GFSSGP_250_spd_000.txt.gz
Wind_Speed
84 81 78 77 79 83 84 83 77 73 70 73 75 79 80 79 79 82 84 85 87 89 90 92 97 101 103 106 108 113 112 111 111 95 101 112 109 103 83 68 61 57 55 56 57 54 54 53 53
86 87 85 79 77 79 84 82 82 77 81 81 83 82 80 82 83 84 84 87 94 95 95 100 104 106 107 111 112 112 110 99 92 100 102 97 87 65 52 39 33 30 28 26 24 25 28 30 31
87 87 86 89 86 84 84 78 78 81 82 82 83 85 86 85 85 88 91 95 95 98 98 103 102 107 108 111 113 105 93 94 97 94 80 60 47 44 24 17 15 16 18 19 21 20 21 21 22
82 82 85 89 92 90 92 85 85 83 84 86 86 84 87 85 87 89 95 97 102 104 105 106 107 109 111 108 99 94 94 95 80 67 51 38 30 26 17 15 18 22 24 23 24 24 23 24 25
79 84 85 90 91 91 92 82 80 88 90 88 88 86 87 88 92 93 95 100 105 106 106 107 107 112 106 99 93 93 86 71 56 37 31 22 12 14 17 21 25 27 28 29 30 29 28 27 24
76 80 79 87 88 87 89 88 88 89 91 93 93 92 96 98 97 96 100 104 107 105 107 109 104 95 90 86 85 84 64 44 29 18 16 19 21 22 25 28 29 29 30 30 30 30 30 31 31
87 76 79 83 75 84 89 90 91 90 94 92 91 95 97 99 98 97 101 105 101 100 94 94 89 86 85 81 71 61 39 28 22 19 21 24 25 26 27 30 31 33 31 30 30 29 29 27 26
87 86 78 78 81 79 86 91 92 93 94 95 96 94 95 96 95 96 100 104 104 100 102 97 81 77 75 67 53 35 24 20 22 21 22 25 27 31 32 32 33 33 32 31 29 28 28 29 28
91 90 90 79 82 82 87 89 87 88 89 87 86 89 91 92 100 101 102 103 103 98 92 80 70 66 58 46 33 24 24 25 27 27 27 30 31 32 36 35 35 33 32 30 29 29 28 27 26
93 94 91 87 92 83 87 89 90 88 86 86 89 92 94 98 96 95 93 90 77 74 71 67 64 52 44 36 29 27 30 31 33 33 33 35 37 40 39 40 37 34 35 35 34 32 30 29 26
98 92 86 90 91 95 93 91 89 88 90 90 90 92 95 92 87 87 83 75 71 69 59 47 46 39 31 31 32 34 37 38 39 40 41 42 43 43 41 40 39 40 40 36 36 36 34 30 29
93 98 94 92 90 88 87 88 86 85 82 81 83 82 85 84 82 76 71 74 63 52 46 38 34 33 33 37 38 39 41 44 48 51 49 48 47 43 45 44 44 44 43 43 43 41 39 39 38
82 88 88 88 88 86 82 83 81 79 76 80 79 80 78 68 71 74 55 51 48 37 34 35 34 38 39 43 43 44 46 49 52 48 49 50 50 49 47 48 47 47 47 47 46 45 44 43 41
71 77 82 82 81 81 79 76 74 71 71 65 64 69 66 74 55 55 42 38 33 31 31 35 39 45 48 50 48 49 51 53 50 47 48 49 50 49 47 47 47 49 50 50 50 50 50 49 49
65 70 71 74 77 71 67 67 68 67 68 64 60 62 62 52 44 40 31 30 30 32 31 39 38 46 53 56 52 52 51 51 47 48 51 51 48 49 50 51 52 51 50 51 53 54 56 56 56
54 57 58 59 61 68 71 76 62 61 55 50 41 40 40 39 30 26 32 32 35 30 26 18 46 50 58 57 52 47 48 50 51 52 49 51 54 54 56 55 55 54 55 57 59 59 57 57 57
44 46 50 52 55 55 54 50 47 44 39 35 31 30 32 24 27 27 35 36 37 34 32 30 49 56 58 49 46 50 52 53 52 53 54 59 57 57 58 60 60 59 58 59 60 60 60 62 64
36 41 44 47 44 43 39 34 32 31 29 26 23 26 24 26 26 30 34 38 36 34 34 34 40 49 49 48 50 48 49 53 57 59 56 60 61 62 62 63 65 65 64 64 66 66 67 70 70
35 38 37 36 35 32 28 25 23 23 24 24 24 25 28 26 29 31 37 35 35 35 36 42 45 50 47 45 50 57 59 59 57 60 61 65 66 67 66 67 68 69 71 73 74 75 77 79 81
25 23 23 23 24 23 22 20 24 23 23 24 26 29 31 30 32 34 35 38 37 40 43 45 46 51 51 53 58 59 61 63 63 66 67 67 67 69 73 74 75 77 79 82 85 87 87 87 89
20 21 21 22 24 23 23 25 24 23 24 26 30 34 34 35 37 36 38 40 41 45 49 49 50 51 57 59 60 64 65 67 68 70 71 68 73 77 80 82 84 88 90 94 96 96 99 98 97
20 20 21 23 23 21 26 28 22 28 29 30 35 38 38 37 40 38 42 45 47 50 53 53 54 57 64 64 62 65 68 71 73 73 73 78 83 87 89 92 94 96 98 102 105 108 110 112 110
21 20 22 22 24 25 28 33 19 28 28 35 37 37 39 39 36 39 42 45 48 52 55 55 57 63 66 67 68 70 70 71 75 79 81 85 90 94 97 99 103 104 107 110 114 115 118 121 122
22 23 23 24 26 30 32 36 24 30 27 32 38 36 37 37 39 42 45 46 51 55 56 60 65 65 68 69 73 75 78 83 86 89 91 94 98 101 105 110 113 116 118 121 121 125 127 127 131
21 23 24 28 30 33 35 39 22 34 36 27 33 35 41 42 45 48 50 50 50 56 60 64 69 72 73 72 75 81 85 90 93 95 99 102 104 110 115 118 123 124 127 129 130 134 137 134 132
10 13 17 20 25 27 33 38 26 32 38 34 36 37 39 44 49 49 49 51 54 57 61 65 72 75 77 79 80 84 89 94 98 102 107 110 114 119 122 125 130 132 133 134 135 134 129 122 114
8 9 11 15 18 22 27 27 24 32 37 39 39 41 42 44 47 51 53 53 58 60 63 69 73 79 84 86 90 93 97 101 105 110 116 120 123 127 131 135 137 135 133 130 125 120 113 111 110
15 17 19 21 23 25 26 28 25 28 30 33 42 44 46 45 48 51 53 57 60 62 69 76 80 84 87 91 96 100 103 108 113 122 127 130 130 133 137 136 134 128 122 117 114 111 109 105 103
17 20 23 24 27 29 32 37 36 36 37 39 41 43 45 50 49 52 58 62 65 70 76 82 85 87 92 97 101 108 114 120 125 130 132 130 133 136 133 125 119 114 110 109 106 105 103 99 94
17 18 23 26 29 32 37 41 40 41 43 42 44 49 53 54 55 59 64 67 71 76 82 84 87 91 97 103 110 118 124 128 131 133 134 134 133 129 125 120 118 116 113 110 105 102 97 90 85

GFSSGP_250_spd_003.txt.gz
Wind_Speed
79 81 81 80 84 87 85 79 77 77 81 83 83 81 79 80 82 80 80 85 87 87 90 94 93 91 92 98 101 106 108 104 105 109 112 112 101 96 98 95 86 56 46 35 32 31 32 31 27
80 80 81 85 84 88 86 82 78 77 79 81 82 75 79 80 84 86 85 88 90 90 91 88 90 93 99 100 105 108 109 109 107 109 99 98 97 99 84 68 42 22 23 16 21 21 22 19 18
86 86 85 84 86 88 85 84 81 81 85 81 82 76 76 79 84 83 82 86 87 86 88 91 97 102 105 104 107 110 110 111 102 96 88 90 87 70 54 38 27 19 17 19 23 22 24 26 24
89 86 86 92 82 81 80 82 85 87 88 86 86 82 80 83 85 83 84 88 86 92 97 97 101 104 105 104 107 110 110 97 92 81 80 74 65 43 26 18 18 21 23 25 27 25 23 23 22
88 87 88 90 83 82 72 74 85 79 85 87 81 86 89 90 91 93 91 93 93 95 94 101 103 102 101 105 108 106 104 93 83 73 67 51 39 25 21 22 23 27 28 29 29 30 26 26 26
88 91 90 78 83 84 80 83 92 84 82 83 76 79 84 91 94 91 92 92 94 98 99 99 98 99 102 105 105 100 93 73 66 57 45 36 27 26 26 27 29 30 33 34 32 28 25 26 27
91 93 90 88 88 82 81 86 84 85 87 90 84 88 88 89 88 90 93 95 95 98 96 96 97 100 102 97 87 72 71 64 52 41 36 29 30 28 31 32 33 34 37 37 33 30 29 29 27
90 88 91 92 83 77 82 77 78 77 81 84 80 88 94 95 95 96 93 94 93 91 92 97 101 99 96 81 71 63 54 44 38 33 31 32 33 32 34 37 39 40 40 40 35 33 32 30 31
93 88 84 85 84 82 80 75 77 77 74 72 76 87 91 91 90 90 89 87 88 92 96 97 98 90 82 72 62 52 46 40 36 38 40 39 39 41 43 44 45 46 46 44 39 35 33 33 30
86 88 90 87 86 86 89 78 77 73 75 74 82 85 89 90 89 88 87 90 90 92 93 91 81 74 71 60 55 49 43 38 39 39 44 48 48 49 55 49 48 46 45 44 40 40 36 35 33
86 89 91 91 86 82 85 86 81 76 80 81 83 86 87 87 88 87 87 83 86 83 78 73 60 56 59 50 47 39 39 42 46 45 49 51 51 52 53 52 48 47 46 44 43 39 39 39 37
74 80 84 86 86 86 87 85 86 88 85 85 85 88 89 84 81 83 86 86 79 79 69 58 52 54 49 43 44 46 47 47 50 53 54 56 57 55 54 50 46 46 47 45 44 44 45 44 42
67 73 78 77 79 76 82 86 90 92 86 84 85 87 84 81 82 81 85 84 76 60 51 50 45 39 45 48 50 46 47 49 50 53 58 59 57 54 51 49 48 46 48 49 49 50 50 48 46
66 70 72 73 77 82 83 83 85 86 87 85 83 81 78 76 77 76 70 67 58 50 41 37 24 40 40 51 41 47 57 56 53 54 55 55 54 52 54 50 50 51 53 53 53 51 51 50 48
60 66 68 68 74 82 81 80 80 79 76 78 76 71 72 68 69 62 61 59 50 36 33 20 12 42 36 46 37 52 61 57 49 46 51 55 55 52 54 55 56 54 54 54 55 54 52 50 48
52 56 63 67 68 69 70 71 70 69 71 73 75 76 75 78 60 48 45 45 39 34 33 28 33 43 51 47 50 58 57 52 54 54 49 52 57 59 62 59 59 60 59 56 57 56 55 56 56
43 47 49 52 56 57 59 63 62 61 61 61 61 58 56 56 39 34 41 39 39 34 35 29 38 45 47 50 53 56 58 57 54 52 57 61 60 61 61 62 64 64 62 62 63 63 64 65 66
39 41 42 48 48 48 48 48 50 49 49 48 50 46 44 38 36 32 37 38 39 35 29 29 35 40 42 51 57 59 58 54 55 61 63 63 64 66 67 68 67 68 66 66 68 71 73 73 72
34 35 33 35 33 34 36 36 42 39 39 42 41 42 40 34 33 33 34 35 35 37 35 35 41 43 46 51 58 58 55 57 62 65 65 65 66 68 70 73 74 73 73 76 79 80 80 82 83
24 26 26 28 30 31 34 33 38 37 35 35 37 38 36 36 34 31 33 32 32 41 43 40 44 50 53 57 59 59 60 63 68 68 69 70 73 74 74 76 78 79 81 85 88 89 88 90 94
24 25 24 28 28 28 32 29 28 32 33 32 34 35 33 32 32 35 39 35 33 43 48 50 51 53 56 58 56 60 64 66 68 71 73 78 80 81 84 86 87 88 90 93 96 100 101 102 104
15 17 20 23 24 26 30 24 27 29 32 28 35 33 35 34 36 43 44 40 42 44 48 51 55 58 56 55 58 62 66 70 74 75 78 81 84 89 92 96 98 100 102 105 107 110 113 115 116
16 17 20 23 26 28 32 26 26 25 23 30 40 31 36 33 32 36 42 49 51 51 53 56 59 60 60 61 64 67 72 76 78 81 84 88 92 96 100 103 106 110 115 118 120 121 124 123 121
21 21 20 22 24 28 31 32 28 21 23 26 34 40 45 43 39 36 37 45 51 56 57 56 57 61 63 68 71 75 81 85 89 91 94 96 100 106 110 111 114 118 122 124 125 125 124 122 122
12 16 20 23 25 24 29 30 28 27 29 29 31 31 34 36 38 37 41 45 50 54 57 59 62 65 66 68 71 77 84 88 92 94 97 102 107 112 116 122 126 130 131 129 129 128 127 122 117
4 6 7 12 17 21 22 22 23 26 26 27 29 31 33 39 44 43 43 44 46 51 55 56 62 68 73 77 82 88 93 97 101 104 107 110 113 121 126 126 130 134 133 130 126 122 116 110 106
8 9 11 14 18 22 18 21 21 25 27 29 32 35 38 39 45 44 47 49 53 54 59 62 67 72 78 84 90 94 97 100 104 110 114 117 120 127 131 134 135 132 129 124 119 114 110 107 104
11 13 15 18 22 28 27 26 31 30 33 35 37 40 43 43 45 49 51 54 55 58 63 68 74 80 84 87 92 98 103 105 110 116 122 124 130 135 136 136 131 125 120 116 110 108 106 103 100
12 16 15 17 20 24 32 28 31 36 38 39 41 45 49 50 51 52 56 59 62 65 69 73 77 80 86 91 96 102 110 114 119 124 130 132 139 139 130 128 123 117 112 109 106 103 98 93 88
16 17 18 21 25 29 33 35 34 37 38 41 45 48 51 53 55 57 58 61 64 68 74 78 83 88 93 97 104 111 116 122 127 134 138 138 137 129 126 123 116 112 107 104 98 94 90 85 79

GFSSGP_250_spd_006.txt.gz
Wind_Speed
90 87 90 88 84 87 85 84 87 86 80 80 81 79 78 80 80 81 81 81 82 81 83 85 87 86 85 86 91 96 98 99 100 106 101 102 106 107 108 105 97 82 81 58 37 26 28 27 26
93 88 90 93 88 85 81 80 82 80 81 78 80 80 82 82 78 83 82 81 80 83 82 84 86 86 88 90 97 99 100 104 105 102 103 105 108 108 99 81 78 64 53 35 27 26 27 26 23
94 90 89 90 85 78 75 78 82 80 77 81 85 86 89 88 84 85 84 83 85 86 84 85 89 95 99 100 100 99 101 101 98 102 105 109 100 88 74 69 56 42 33 28 25 30 31 29 26
89 89 88 83 83 77 72 76 81 70 73 72 78 81 91 90 88 89 89 83 82 89 92 97 100 100 96 96 98 101 99 94 98 103 109 101 81 67 60 47 38 32 31 32 33 34 36 37 35
91 93 83 81 78 79 80 82 76 78 78 71 73 77 78 74 81 86 84 88 88 91 93 92 93 92 95 98 98 97 97 98 103 104 101 84 66 58 47 41 38 35 38 37 39 40 39 39 38
88 95 91 85 90 82 81 85 89 81 77 71 71 78 77 83 81 82 83 78 79 80 85 89 91 96 95 92 92 95 98 101 101 94 74 63 56 49 42 39 38 36 38 37 43 43 45 45 41
86 93 86 83 87 87 83 80 81 75 76 72 75 81 86 78 75 72 75 80 83 86 90 92 93 90 91 94 95 97 98 87 76 60 56 53 45 40 38 37 40 41 40 43 48 48 49 48 40
81 89 89 83 84 87 85 88 84 76 78 80 87 85 80 81 82 83 85 82 84 88 94 93 94 92 93 95 94 93 89 76 52 54 47 47 41 43 44 44 46 50 52 52 55 54 52 47 41
76 82 94 81 82 83 85 87 84 84 85 87 92 86 83 82 82 85 85 85 89 92 91 94 91 90 92 90 88 82 63 57 57 52 49 46 44 46 45 46 50 50 53 53 52 49 46 42 41
73 73 80 83 92 89 85 88 86 84 84 87 89 86 86 87 84 84 83 83 86 87 89 88 87 87 88 83 69 52 53 48 50 47 48 49 48 50 51 55 53 56 56 53 46 42 43 42 42
66 76 74 77 79 82 79 79 80 81 82 81 79 83 85 80 80 79 82 85 86 84 88 87 84 85 77 59 57 47 45 45 48 48 54 55 53 54 55 55 56 54 52 47 47 45 43 43 43
62 67 73 80 75 82 83 83 89 83 83 85 84 78 80 83 83 82 82 81 82 85 79 83 79 72 64 49 43 44 46 50 49 47 45 49 54 56 55 52 48 49 48 49 48 46 48 50 50
55 62 66 69 70 79 78 77 82 83 84 89 86 81 79 74 76 81 81 83 82 77 70 65 66 57 49 44 47 47 46 47 45 48 53 52 58 53 47 48 49 50 47 48 49 52 51 50 51
55 55 60 63 69 72 71 73 77 81 73 74 76 76 79 82 78 75 78 79 65 66 65 60 55 54 47 48 43 43 44 43 48 52 56 57 58 56 53 48 48 54 54 53 54 55 55 56 57
50 50 55 63 65 66 71 77 76 78 74 72 72 72 74 74 74 78 79 78 77 72 63 59 53 45 47 48 52 46 53 53 47 57 61 63 61 59 53 55 58 58 57 56 55 57 59 59 59
43 46 47 50 56 61 67 70 70 68 70 75 80 80 78 74 73 77 75 69 62 55 45 42 45 46 51 53 59 60 62 56 56 59 62 63 60 55 57 61 65 65 64 62 62 62 62 62 63
43 44 45 47 49 54 58 66 70 69 68 66 65 66 66 68 65 60 56 52 46 46 46 44 42 47 52 56 59 60 60 59 61 60 63 61 60 59 61 65 66 64 65 69 69 69 66 68 69
39 42 47 47 46 47 49 53 53 52 54 55 54 53 48 46 42 40 40 43 49 49 42 42 46 49 50 52 54 55 56 60 63 67 67 63 63 65 69 71 71 70 70 74 76 75 74 76 76
33 38 42 42 45 43 42 46 43 43 43 40 39 41 40 40 40 41 43 45 48 45 43 42 47 47 47 52 55 57 61 63 67 68 63 65 68 71 72 74 75 77 79 80 81 80 83 84 84
29 32 34 31 33 32 30 35 33 32 34 35 35 38 40 41 43 41 43 48 48 46 44 45 47 49 52 54 57 60 65 68 68 65 67 71 73 76 79 82 85 87 87 87 89 90 91 93 95
19 25 29 27 32 29 30 33 34 33 30 31 36 40 43 43 42 43 44 43 42 42 42 42 47 51 53 57 61 65 68 67 68 71 74 79 82 84 87 91 92 91 91 93 96 98 101 104 106
23 26 26 27 26 26 25 22 23 22 27 31 35 37 38 39 40 40 39 40 41 41 44 48 52 55 58 61 63 64 66 68 70 74 79 83 86 90 94 97 98 100 102 105 108 111 114 116 117
17 17 19 21 23 26 24 20 21 25 29 29 33 39 41 41 46 46 44 40 42 46 50 54 55 57 59 61 61 63 65 69 74 80 85 90 94 97 100 104 106 110 113 118 121 125 128 130 129
17 18 21 23 25 25 22 20 20 28 30 32 36 38 37 40 43 45 47 47 48 50 52 54 57 58 59 62 64 68 72 77 81 86 91 96 100 105 108 112 115 118 124 129 132 134 135 136 134
14 16 17 18 22 17 17 15 15 18 21 22 24 26 28 30 34 37 41 44 48 55 57 56 56 58 62 65 69 73 77 82 86 91 96 101 105 109 115 119 122 127 133 138 137 135 134 132 128
3 3 4 5 7 7 11 15 18 18 19 17 22 26 32 34 38 38 41 46 48 53 57 60 63 67 71 73 76 79 81 85 90 95 101 106 113 118 122 125 129 136 139 133 130 128 125 122 115
3 4 7 10 11 13 15 18 19 22 24 26 29 33 35 37 42 43 46 49 52 56 59 62 65 67 69 73 77 81 87 92 97 103 109 116 121 126 132 134 133 132 127 127 124 116 112 106 102
6 7 10 12 14 14 15 18 21 24 27 29 31 35 38 39 43 47 47 49 53 56 60 63 65 69 73 78 83 88 94 99 106 112 116 121 128 131 134 131 126 125 124 121 114 106 103 98 92
9 11 15 19 22 25 24 25 26 27 31 35 36 39 42 42 44 46 50 53 57 60 62 65 69 74 78 83 89 94 102 110 114 118 123 129 131 132 126 123 123 119 117 110 102 97 92 90 87
15 17 19 21 24 29 28 30 34 36 38 41 43 44 45 46 48 50 51 54 56 59 63 67 72 79 83 88 96 102 108 115 120 124 127 131 128 127 125 122 117 112 105 99 94 89 86 81 77

GFSSGP_250_spd_009.txt.gz
Wind_Speed
90 90 93 91 86 90 91 89 87 82 81 83 81 85 85 88 88 88 85 85 86 83 84 86 89 90 90 91 93 94 98 96 95 101 103 104 106 103 100 100 102 101 99 80 77 65 55 45 40
91 88 91 90 88 89 89 84 86 85 81 81 81 83 83 84 89 86 85 82 82 83 87 87 88 90 94 95 97 98 94 100 103 100 102 103 99 99 103 103 101 96 79 67 61 53 42 42 37
83 86 88 92 96 91 90 86 84 83 80 76 79 84 85 87 90 85 85 85 84 85 87 90 91 93 96 97 95 98 101 96 97 102 99 98 99 99 100 101 90 73 67 59 54 42 42 41 43
86 77 85 91 95 96 94 86 83 79 70 74 73 78 81 85 84 86 85 87 83 84 85 87 92 89 91 94 92 94 94 97 98 98 97 96 98 100 97 88 67 65 57 50 45 44 46 44 43
79 74 81 84 90 92 92 84 83 79 61 57 68 73 76 75 85 86 80 83 81 87 91 88 88 92 94 86 90 92 95 96 97 95 97 98 97 95 81 64 60 51 47 46 47 44 44 45 47
70 70 76 82 82 89 92 83 79 78 85 80 73 70 71 75 71 76 76 75 77 76 82 85 89 87 83 87 87 94 91 95 95 95 94 95 88 74 66 56 51 46 44 44 46 49 52 53 54
63 68 73 75 78 85 87 85 80 75 75 84 77 78 81 75 73 72 74 74 76 83 91 89 85 87 90 93 90 92 93 93 95 91 88 83 65 57 53 49 47 45 48 47 50 53 55 57 56
63 66 70 72 77 79 79 80 77 75 80 80 77 79 81 83 80 83 86 85 83 82 86 83 87 89 89 92 91 90 95 94 91 86 78 59 56 53 48 48 47 48 48 49 54 57 57 57 55
60 63 68 71 75 74 80 80 72 76 83 82 84 80 81 86 87 87 86 86 87 86 90 89 88 87 87 89 93 89 91 89 88 76 74 60 51 51 49 51 50 50 52 54 56 55 54 52 46
54 57 62 68 70 73 76 76 78 78 75 75 79 81 79 79 80 83 84 86 86 85 86 89 88 86 88 90 88 91 83 80 74 70 61 53 53 52 50 46 45 51 54 53 47 44 45 46 47
54 56 58 61 70 75 77 82 77 78 81 77 80 86 85 85 86 83 86 90 90 85 86 82 84 88 88 84 83 75 75 72 62 63 58 61 58 50 47 48 50 54 54 52 50 49 49 47 46
50 53 61 64 65 75 78 82 75 76 80 81 78 75 79 81 79 81 81 71 76 75 78 83 80 77 83 75 69 71 69 63 62 59 61 60 58 54 54 51 52 55 57 56 52 45 50 54 52
40 49 56 62 68 70 71 76 78 85 82 83 76 84 68 77 76 75 77 78 78 74 78 83 87 84 82 82 75 66 57 58 60 60 58 55 56 57 56 57 57 63 64 56 53 53 57 58 58
40 42 48 56 61 65 70 72 70 72 73 68 71 77 62 70 83 81 75 71 75 78 76 79 78 78 70 70 59 56 54 56 59 57 59 62 63 66 66 63 62 60 60 56 56 57 58 58 59
37 37 41 47 52 56 61 66 65 72 75 72 68 68 67 71 76 79 78 77 78 80 79 76 73 68 60 57 56 55 57 58 61 63 64 67 65 64 63 65 66 64 61 59 60 61 61 60 62
36 35 35 38 42 47 50 55 60 64 69 70 70 72 74 78 77 74 76 78 80 80 81 78 68 48 47 45 50 57 59 62 64 64 65 66 65 64 67 70 70 67 62 62 65 66 64 64 66
38 37 38 38 41 42 44 45 49 57 64 67 68 69 69 72 72 70 63 62 61 56 54 42 35 34 40 53 58 59 65 67 67 66 63 64 65 68 70 71 72 67 67 68 69 70 70 70 71
36 38 40 42 40 38 41 41 42 43 45 47 51 54 56 57 55 53 49 51 50 47 44 34 40 46 51 64 67 70 69 71 70 67 66 67 69 70 72 72 70 72 73 74 76 77 80 81 81
36 37 37 37 35 38 41 41 41 42 44 44 45 45 45 43 42 45 46 45 46 47 46 41 45 50 55 60 68 70 71 72 71 71 72 73 75 75 74 74 74 75 77 79 81 83 86 89 90
32 31 30 27 28 32 35 36 34 34 35 35 37 39 42 43 44 46 47 47 48 49 50 55 56 57 59 62 66 69 68 69 72 74 75 75 75 75 76 78 79 82 85 89 90 91 93 96 98
25 24 24 23 24 27 26 27 26 29 33 37 38 38 40 41 42 44 48 49 52 51 52 55 55 52 53 56 60 63 68 70 72 73 75 78 79 79 82 86 89 91 93 97 100 102 105 107 108
22 23 22 21 21 21 22 25 25 28 31 33 34 33 34 35 37 42 46 49 48 46 45 49 50 50 52 57 60 65 70 72 73 75 77 79 81 85 89 93 96 101 104 108 111 114 119 121 123
21 21 22 20 18 16 16 16 19 22 25 29 33 36 38 40 44 46 46 45 44 44 49 48 49 53 58 62 66 68 69 72 75 78 80 83 87 91 96 103 106 109 113 116 121 124 126 128 130
18 17 18 18 18 13 14 13 17 20 25 29 32 35 37 39 39 40 42 38 36 43 50 51 53 58 61 63 66 68 71 73 75 78 83 89 96 100 104 107 113 117 120 124 127 129 130 130 128
15 14 12 9 5 7 8 10 11 13 15 19 23 27 29 32 35 39 42 41 45 49 52 54 57 59 62 65 68 71 73 77 81 85 89 92 98 102 108 114 116 122 127 130 130 130 127 126 125
4 2 2 2 2 4 5 8 11 13 17 20 23 26 30 33 36 41 45 47 49 51 54 56 57 60 64 67 70 72 74 79 83 88 92 98 103 108 115 121 126 131 131 126 125 122 122 119 118
4 2 1 3 5 8 12 15 17 18 22 25 27 29 31 35 39 42 45 47 49 52 56 60 62 64 66 68 71 74 78 81 87 93 98 105 111 116 122 126 129 127 129 123 120 119 116 112 105
1 4 6 8 11 14 16 18 21 24 26 28 31 33 36 39 41 44 46 49 51 54 57 60 63 64 66 68 71 77 82 87 93 99 106 111 117 122 125 125 125 123 122 122 118 111 104 99 93
5 8 10 13 15 18 20 21 23 25 30 33 36 39 41 43 44 46 47 50 53 55 57 60 62 64 67 70 75 80 86 93 100 106 112 118 120 124 127 125 122 120 117 117 110 103 96 90 86
8 10 13 16 17 19 22 24 27 29 34 38 42 45 47 49 50 51 51 52 54 57 60 61 63 65 70 75 81 88 95 101 108 114 121 123 127 126 123 120 120 117 113 107 102 96 90 83 78

GFSSGP_250_spd_012.txt.gz
Wind_Speed
102 96 96 96 95 93 90 86 87 87 87 87 86 83 84 87 86 86 86 89 88 88 85 85 87 89 89 90 93 96 94 93 96 100 99 100 101 96 93 96 96 97 95 100 96 89 80 71 65
99 100 97 95 93 90 86 86 89 84 87 82 82 84 83 85 88 86 86 88 90 88 85 87 85 91 91 90 95 96 95 96 95 95 98 99 98 95 96 100 96 96 95 98 90 78 70 59 51
97 94 93 90 88 85 87 85 81 86 88 83 81 78 75 82 84 83 86 87 86 87 85 82 86 83 90 95 95 94 93 96 93 97 98 96 94 97 103 99 96 94 91 90 76 69 60 56 47
89 87 88 87 87 85 86 85 85 90 92 80 80 81 82 84 89 88 88 87 85 84 80 82 86 85 89 86 95 91 92 89 101 98 96 91 95 100 100 101 95 91 88 78 68 60 55 53 47
80 77 78 74 81 78 81 82 85 90 91 90 82 81 82 85 81 81 83 79 71 71 78 82 85 89 88 94 87 83 88 94 95 91 94 95 98 99 97 98 93 88 82 68 59 54 53 47 48
74 73 66 69 73 75 75 78 82 88 90 93 92 82 84 81 73 67 74 76 76 77 79 84 88 91 86 85 85 90 92 95 89 91 93 94 94 94 98 91 87 80 71 59 53 51 51 47 51
66 65 64 64 68 71 73 77 80 83 87 90 89 77 82 81 74 69 65 65 74 76 76 72 75 79 80 83 84 88 95 92 95 92 90 97 99 94 91 86 77 72 65 61 57 49 47 49 55
58 60 58 61 67 68 70 73 78 78 81 88 69 81 73 73 79 80 80 80 76 74 77 77 76 80 84 89 92 95 95 90 86 90 95 96 91 84 88 72 70 61 60 54 53 45 48 51 51
51 52 54 58 61 66 64 69 67 76 79 75 69 69 70 76 74 75 73 74 77 79 81 82 86 91 91 90 90 82 83 84 95 93 88 82 81 74 73 65 65 64 60 51 49 50 49 49 50
45 47 51 51 54 60 61 68 68 59 69 75 81 76 76 77 76 81 80 78 81 81 78 82 82 82 88 93 89 83 83 89 85 85 88 71 74 74 66 68 66 65 61 54 51 47 53 52 55
42 43 46 47 51 55 58 65 66 73 67 71 73 76 80 79 83 72 79 76 81 82 84 84 85 80 65 74 82 90 83 86 83 79 74 74 69 69 69 64 61 62 61 61 62 58 53 55 55
37 40 42 46 49 49 56 59 63 60 61 65 72 70 70 64 69 80 83 77 73 75 82 87 81 81 84 85 85 83 83 83 73 67 67 69 66 66 67 64 66 65 64 68 63 58 56 57 54
32 37 42 42 46 48 47 53 56 65 67 65 61 65 72 68 74 66 71 70 70 67 71 73 76 79 81 85 78 77 68 65 62 63 62 65 69 66 67 67 67 68 67 65 64 61 64 63 58
29 30 33 43 45 47 49 51 50 58 67 69 69 72 76 75 73 74 82 84 76 81 77 78 79 78 79 77 75 65 63 65 70 68 62 59 62 63 67 69 69 67 65 65 64 67 69 68 64
31 28 28 30 35 42 48 49 54 53 58 66 68 74 76 76 77 78 75 72 73 78 86 90 79 78 73 67 54 53 54 61 58 60 51 57 63 69 69 69 71 71 71 68 69 70 70 69 65
31 27 28 26 26 30 37 43 46 51 55 54 61 64 67 61 63 69 73 78 75 79 81 78 71 61 48 41 45 52 59 61 58 58 65 69 72 73 73 73 73 71 70 71 73 75 74 72 70
22 27 27 28 29 30 30 32 37 41 47 49 48 52 59 65 67 68 73 75 71 68 65 59 51 39 29 50 60 61 56 62 67 72 76 77 77 77 76 74 74 75 77 78 79 77 76 75 73
24 26 30 32 34 34 34 36 35 36 39 41 44 46 48 52 55 54 56 56 54 52 49 44 41 42 44 55 64 65 67 70 73 76 76 80 78 77 76 76 78 80 81 80 79 79 79 79 79
26 27 29 33 35 35 37 37 38 40 42 43 45 46 46 48 46 43 43 43 46 45 45 45 44 51 55 58 62 67 70 75 78 79 78 76 76 76 78 79 80 80 80 82 83 85 87 90 91
27 24 26 30 32 32 32 36 37 37 37 38 38 38 37 36 37 39 40 43 44 45 47 45 49 54 59 64 67 69 72 72 72 74 75 75 77 80 81 81 82 85 87 88 89 89 91 94 95
19 22 26 28 26 24 24 26 27 29 30 31 30 31 33 34 35 37 39 40 42 43 48 52 55 58 61 62 62 65 66 68 70 72 74 76 78 81 84 86 88 90 90 92 94 96 98 102 107
17 17 18 18 19 19 19 20 23 26 29 28 27 27 27 30 34 37 39 40 44 46 48 49 52 55 57 57 58 60 63 67 70 73 76 79 82 86 88 89 91 93 95 98 101 106 110 113 117
17 17 13 10 11 13 14 15 18 21 24 24 25 28 30 31 32 32 31 34 35 36 39 44 48 50 53 57 60 63 66 70 73 75 77 79 82 83 85 89 94 99 104 106 111 116 119 123 127
10 9 8 8 9 12 17 19 23 22 23 24 25 24 23 25 27 31 34 35 37 40 43 47 50 53 56 59 61 64 66 69 72 74 76 77 81 86 91 95 99 104 109 111 117 124 128 130 134
7 7 9 9 12 16 19 21 21 18 18 19 21 24 26 28 31 34 36 40 43 47 49 52 54 56 58 59 61 63 66 68 71 74 78 82 86 90 95 101 107 112 118 120 125 128 129 121 121
8 7 8 7 6 5 5 8 11 15 19 22 25 28 29 32 35 39 43 46 48 50 51 53 54 56 58 60 61 64 67 70 73 77 81 86 92 98 103 110 115 118 119 120 123 120 117 118 115
11 8 6 6 6 6 7 9 13 16 20 23 27 30 34 38 41 44 47 49 52 55 57 59 60 60 61 63 66 67 69 70 75 81 88 95 101 107 109 112 115 118 117 118 117 117 113 110 111
7 4 3 3 6 10 12 15 18 22 25 27 29 32 36 40 44 49 52 55 57 59 61 62 62 62 63 63 63 65 69 75 81 89 96 102 104 106 111 114 115 116 115 114 114 112 111 104 98
3 3 4 6 9 12 14 15 17 20 23 28 33 39 43 47 49 52 52 54 56 59 60 60 59 59 60 62 64 69 76 83 89 94 100 107 111 116 118 118 118 116 116 115 112 105 100 95 91
6 6 8 10 12 15 18 17 21 25 30 35 40 44 46 49 51 51 52 53 55 57 57 58 58 60 62 65 71 77 82 88 95 100 108 113 120 123 124 120 117 117 115 110 101 97 93 90 86

GFSSGP_250_spd_015.txt.gz
Wind_Speed
102 101 102 101 98 96 97 97 93 88 86 84 82 83 83 82 83 83 82 86 90 88 90 88 87 89 84 89 89 89 89 90 91 94 94 94 93 91 96 90 93 92 88 94 98 96 92 88 85
104 104 104 102 101 92 94 93 92 87 84 83 83 80 79 81 81 79 80 83 88 87 87 83 83 85 87 88 88 87 87 88 88 90 90 86 92 90 89 92 91 92 95 96 94 91 89 85 80
101 102 102 101 98 93 91 90 90 88 85 82 83 81 80 80 83 84 88 84 86 87 85 83 79 81 83 77 76 86 87 86 87 89 95 97 90 89 92 89 90 93 97 95 96 84 91 80 71
92 95 98 99 94 89 90 84 85 86 83 79 82 80 80 78 84 85 81 80 82 85 80 78 79 79 88 84 87 85 87 91 93 95 95 86 88 87 96 88 94 95 97 95 85 83 83 75 66
81 84 87 86 84 84 84 84 80 77 79 79 82 80 78 65 71 79 77 79 69 59 73 78 78 81 77 81 84 80 85 88 92 89 84 88 93 90 91 100 96 97 89 78 82 74 69 61 62
65 69 75 72 68 73 74 74 70 71 78 78 78 83 79 69 81 81 80 76 72 70 64 66 77 74 81 86 80 80 86 93 81 83 89 89 89 92 96 93 93 91 82 86 76 71 63 61 58
54 54 60 59 61 61 60 62 63 69 72 76 77 73 81 89 77 87 85 78 76 81 79 78 74 71 76 80 84 79 82 81 87 91 92 89 94 93 92 93 92 84 87 73 69 67 64 59 54
43 45 51 51 51 52 58 60 61 69 70 75 76 74 68 64 78 78 82 75 75 75 75 74 75 78 79 81 85 84 85 83 82 95 92 95 87 85 87 83 82 82 67 74 67 62 61 58 52
38 43 48 49 50 53 56 61 66 71 70 68 66 69 45 49 49 59 62 74 80 79 74 76 80 86 80 77 77 85 87 86 83 89 90 83 86 79 80 79 80 73 72 67 61 61 57 58 55
39 40 44 45 45 48 52 58 63 66 62 63 54 69 67 63 56 47 48 43 45 50 58 65 66 68 69 78 85 86 82 82 86 86 82 85 80 79 77 72 72 70 67 65 60 60 58 57 53
34 34 37 39 41 42 44 48 50 56 59 61 65 50 68 63 62 67 65 63 61 56 72 68 77 78 87 86 82 80 82 82 85 87 88 77 80 80 71 73 71 67 63 57 59 60 58 57 50
27 28 33 33 33 39 43 44 46 44 50 57 56 50 51 54 61 64 71 76 70 66 71 69 73 72 78 80 82 84 83 84 86 82 83 76 78 75 71 68 63 59 58 62 66 65 61 59 58
28 28 33 33 32 35 37 37 39 43 40 48 56 55 56 61 61 64 67 64 56 64 60 68 67 69 76 77 79 86 91 86 80 78 77 72 75 71 60 60 60 57 65 69 69 71 69 66 63
29 28 28 31 31 33 35 38 39 37 34 41 48 54 60 61 60 62 62 66 71 70 71 76 77 82 74 75 80 80 76 75 70 70 68 62 58 60 63 66 68 69 72 73 75 75 73 69 68
28 26 24 21 23 26 31 33 33 36 37 35 36 42 51 53 53 59 64 69 66 69 73 73 75 81 78 80 74 66 70 67 63 66 64 64 70 67 70 75 76 78 78 79 78 74 73 73 71
23 26 24 21 21 19 20 24 29 32 39 41 44 46 46 47 49 53 60 65 66 67 67 72 71 69 68 59 42 50 52 58 60 63 67 71 73 73 74 78 81 84 84 83 76 75 73 73 73
21 23 24 23 23 23 25 24 25 26 28 33 38 42 45 45 51 53 53 56 58 59 60 60 57 51 48 48 50 62 55 59 67 65 71 74 76 79 82 86 86 83 81 81 78 77 78 78 77
19 22 22 26 29 28 27 27 28 30 30 32 35 36 37 38 41 43 45 46 47 47 46 46 44 45 49 53 57 59 60 65 69 72 77 83 83 87 87 83 79 80 79 79 81 81 81 82 83
22 24 25 27 28 29 30 30 32 34 35 36 35 35 38 41 41 42 42 41 41 41 41 41 43 45 48 50 55 60 65 69 72 76 79 79 79 80 81 82 81 80 81 82 84 85 86 87 87
24 24 24 26 27 27 29 31 32 33 35 37 38 38 37 37 38 38 35 34 36 40 41 43 44 47 50 52 56 60 64 69 73 75 78 79 79 78 79 82 83 83 84 85 87 87 87 88 89
23 23 23 22 22 22 24 26 27 28 30 30 28 28 29 30 30 30 30 31 32 35 39 41 44 48 53 58 61 63 66 67 68 69 71 74 76 78 79 80 82 85 86 86 87 90 94 99 102
21 19 18 19 20 20 20 21 21 21 22 21 21 21 22 21 21 24 26 28 31 36 38 40 42 46 47 50 54 58 62 64 67 69 71 73 74 76 78 80 82 84 85 88 93 99 104 108 110
18 18 16 14 12 15 16 19 22 23 22 19 18 19 18 20 23 24 24 27 30 33 36 39 42 45 48 51 54 58 61 63 65 67 70 72 73 75 77 79 81 86 90 96 101 106 108 109 112
17 12 12 15 17 19 17 17 19 16 16 16 15 16 18 22 26 28 31 33 37 40 43 46 49 51 54 56 59 61 63 64 66 68 70 72 73 73 75 81 87 93 98 102 108 112 112 113 113
14 16 15 12 11 13 15 16 16 13 9 10 14 18 21 26 30 33 35 38 42 45 49 52 54 57 58 60 61 63 65 66 67 68 69 69 72 79 83 88 92 99 104 107 115 114 117 114 113
11 10 8 7 5 4 2 3 5 7 10 12 16 20 24 26 29 34 38 40 43 46 49 51 53 55 57 58 60 59 60 62 64 67 70 75 81 86 90 94 101 106 111 118 117 116 113 109 107
10 11 10 9 5 2 4 6 8 11 13 16 19 21 24 27 31 37 40 44 47 49 50 52 53 54 55 57 58 61 64 66 69 73 77 82 87 90 95 103 106 111 117 118 114 112 111 106 103
15 13 9 7 7 7 8 10 11 13 14 16 20 24 29 34 39 41 43 45 48 50 53 55 56 57 59 59 59 62 65 68 71 76 81 85 91 95 102 106 112 115 117 112 112 111 105 101 96
11 9 7 7 7 7 8 12 14 16 19 22 24 29 34 39 41 45 47 50 51 53 56 59 60 61 61 62 62 64 67 70 75 81 86 91 96 101 108 112 114 115 115 115 111 106 99 93 89
8 6 7 8 8 10 12 15 19 20 22 25 29 33 37 40 46 49 47 47 49 53 58 60 60 60 61 62 64 67 71 77 82 85 92 96 103 109 112 114 115 112 116 113 107 99 93 88 84

GFSSGP_250_spd_021.txt.gz
Wind_Speed
99 101 101 102 101 102 100 100 100 96 93 90 91 92 87 85 81 79 74 74 76 76 80 81 79 82 82 82 81 80 83 82 83 86 86 89 88 89 83 82 83 80 88 84 86 82 79 82 81
101 99 99 99 101 102 101 104 98 95 91 93 90 91 89 86 86 81 80 75 71 73 77 81 82 81 80 79 80 81 78 80 79 84 83 84 85 87 80 78 81 81 82 82 80 83 84 85 83
105 102 102 101 99 102 103 103 94 93 93 92 91 90 88 87 85 85 76 71 68 68 75 80 82 84 84 86 83 81 80 75 75 65 71 77 79 80 82 82 81 80 78 79 89 91 88 89 82
96 102 102 101 100 101 102 97 96 91 93 88 88 89 87 86 85 82 79 71 60 63 74 72 80 79 78 77 72 78 62 61 67 74 76 76 78 75 71 72 75 80 84 88 90 83 83 73 84
86 92 96 95 93 100 94 90 85 93 93 91 93 91 87 84 81 80 79 65 59 59 58 68 68 70 70 71 58 51 58 61 64 74 75 66 67 66 67 74 81 80 82 86 82 79 75 87 84
76 81 83 86 93 89 90 80 77 84 79 80 84 82 81 80 71 74 68 57 62 60 66 73 63 61 64 52 51 55 54 69 73 66 65 72 68 73 81 84 83 84 76 78 77 83 80 82 84
67 67 68 76 74 78 79 81 28 77 79 79 80 82 77 73 71 61 45 46 29 31 42 53 43 52 48 52 58 63 75 70 67 67 70 80 89 79 82 84 85 75 82 81 76 78 84 86 74
56 56 55 56 56 60 63 63 58 65 58 65 67 71 73 71 59 46 32 36 33 31 49 51 52 59 61 66 65 78 74 72 77 79 76 83 80 85 77 76 75 76 75 81 82 86 88 82 69
42 42 42 42 37 27 47 53 54 51 57 62 58 55 59 64 57 49 51 43 46 61 69 71 75 81 78 74 82 84 81 82 78 74 79 77 78 73 74 75 77 84 85 87 89 86 80 65 59
37 36 37 37 34 26 46 46 45 46 52 55 56 55 55 51 50 51 54 64 66 73 81 83 81 84 83 83 87 86 71 80 80 73 77 80 77 77 78 82 86 93 91 91 84 80 68 60 49
35 38 33 39 38 45 43 39 40 41 39 50 50 50 49 46 40 45 49 53 66 67 75 83 86 87 82 83 83 81 69 76 79 79 79 80 82 85 85 92 90 88 84 82 75 67 62 59 59
33 30 29 32 36 30 29 30 31 30 19 43 36 44 46 47 50 51 50 49 59 66 71 77 79 82 87 86 85 89 87 83 81 76 81 83 87 91 94 92 87 81 78 69 65 64 62 59 59
28 23 24 27 30 34 29 28 27 32 40 44 34 38 34 39 41 45 48 58 54 58 65 63 68 77 82 78 69 73 69 75 79 83 85 90 90 90 89 89 85 76 73 66 67 67 68 68 70
24 28 28 28 25 26 27 26 25 29 34 43 41 30 29 29 34 43 46 49 60 68 68 65 67 67 68 72 69 75 83 87 90 91 89 89 87 81 73 74 74 76 75 75 73 74 73 75 76
27 29 30 25 24 20 22 26 23 24 24 28 31 31 24 26 35 34 41 48 55 57 58 66 72 75 79 80 80 81 84 85 83 80 76 78 74 70 65 61 65 73 76 78 80 80 84 84 87
30 32 31 27 23 22 23 28 29 29 31 28 27 27 31 30 28 31 36 48 56 59 60 66 70 68 71 71 71 70 69 72 70 68 65 64 65 67 66 68 73 77 81 82 86 90 93 92 81
30 31 30 28 27 22 23 23 26 27 26 26 29 28 31 33 34 37 40 44 47 53 59 65 67 67 64 61 63 64 68 67 64 65 66 70 70 74 75 77 81 87 88 87 87 84 83 81 84
30 27 25 28 29 29 27 28 24 25 27 27 29 30 30 34 36 39 41 41 49 52 53 55 57 57 56 57 62 64 64 64 63 64 67 67 70 73 75 78 80 81 79 79 80 82 84 84 82
27 26 25 25 27 31 29 27 26 24 27 28 26 28 30 33 38 37 38 39 41 42 45 47 47 53 53 56 58 59 58 57 59 61 63 65 66 69 71 73 76 79 82 82 84 85 87 86 86
25 25 24 25 27 29 31 31 31 29 29 28 28 30 32 33 35 36 38 41 42 42 44 46 47 47 45 44 46 47 48 50 52 55 60 64 69 72 76 80 82 84 86 87 87 85 84 83 84
25 26 25 24 23 23 25 26 27 29 31 31 31 34 34 35 35 35 36 38 38 38 37 33 33 33 34 37 41 45 49 54 58 63 67 71 75 78 81 83 86 87 87 86 84 82 81 79 82
26 27 25 23 22 24 26 26 29 30 30 30 29 28 29 30 31 32 33 30 26 24 24 27 30 34 38 41 45 49 53 55 59 60 63 65 67 72 74 75 77 77 76 74 75 78 80 85 87
28 27 26 25 24 29 26 26 26 24 21 24 25 26 27 27 24 21 19 18 18 21 25 29 33 36 40 45 48 49 51 52 53 55 59 62 65 67 68 69 68 71 73 74 76 82 87 92 96
27 27 29 29 27 26 23 22 22 19 17 23 24 23 20 16 17 15 14 16 19 23 27 32 36 39 41 44 46 49 52 55 57 60 63 64 66 68 69 68 69 71 74 79 82 88 95 98 103
28 28 26 25 24 19 19 20 16 16 21 25 21 18 17 16 14 13 14 17 22 26 30 33 36 38 42 45 49 51 54 57 58 60 62 65 66 66 68 70 73 77 82 85 91 98 104 106 109
25 23 22 20 19 17 16 18 14 17 17 15 15 15 13 13 13 15 18 22 26 30 34 36 41 45 48 52 55 59 60 63 65 65 69 70 71 70 72 75 80 84 89 96 101 106 108 109 109
21 20 19 18 16 15 14 13 12 12 13 12 12 13 14 14 16 21 24 27 31 34 37 43 46 47 51 56 60 65 69 71 72 73 75 76 74 74 76 81 85 90 97 104 108 110 112 111 108
19 18 17 17 16 15 15 15 14 12 10 12 15 17 19 21 24 27 30 32 36 38 41 47 50 53 57 61 64 69 72 74 75 76 79 78 77 79 83 88 93 99 104 108 112 114 114 110 107
19 20 19 17 17 18 17 14 11 11 14 18 20 23 26 29 32 35 37 39 41 43 47 52 56 59 62 65 69 73 76 75 76 77 78 79 82 85 90 96 101 106 109 113 114 113 110 112 111
21 21 19 17 17 15 14 13 15 17 18 20 23 27 31 34 37 43 44 46 47 48 52 57 61 65 69 74 75 78 80 79 80 80 81 83 87 93 98 102 106 110 111 109 109 108 109 109 106

GFSSGP_250_spd_024.txt.gz
Wind_Speed
101 100 100 100 98 98 95 97 98 95 94 100 98 96 92 89 83 86 79 68 69 73 73 65 69 71 76 76 76 74 74 73 75 76 75 76 77 73 77 73 73 69 72 78 81 80 78 74 70
98 101 103 100 100 99 99 102 100 95 100 98 98 91 91 87 84 85 80 73 72 73 72 73 75 76 77 75 76 75 70 68 72 74 80 77 75 72 67 64 68 72 75 72 74 81 74 75 82
89 95 98 99 100 98 101 104 101 99 98 98 90 89 89 86 83 85 80 68 73 75 73 75 73 73 73 71 68 71 72 70 70 77 71 67 57 58 65 71 75 69 74 75 77 70 74 81 86
85 85 89 92 97 97 102 100 92 95 87 81 84 88 88 85 81 80 80 75 70 72 71 67 70 77 70 70 69 72 67 68 65 56 57 58 60 61 68 65 73 65 70 73 74 75 87 82 78
74 77 76 85 87 89 92 88 88 73 59 78 85 81 86 82 74 73 64 68 67 69 70 70 70 72 72 70 64 62 68 64 59 59 54 59 57 69 70 63 65 68 67 76 86 83 77 73 69
70 72 71 74 79 82 80 73 63 45 39 65 77 76 72 65 63 58 56 54 60 59 58 49 62 67 67 64 62 66 68 68 63 56 52 56 64 64 66 69 74 79 79 83 80 80 75 78 75
62 61 61 70 75 68 55 59 52 51 57 69 63 67 59 63 58 52 48 57 53 51 44 39 61 56 60 60 49 55 48 48 54 56 59 64 72 72 77 84 82 81 81 85 77 80 76 77 80
57 52 55 59 54 51 46 52 43 40 55 63 53 62 46 49 42 41 43 50 44 40 31 38 58 65 65 62 55 49 50 48 53 62 63 68 71 77 82 87 75 74 78 87 88 83 83 84 90
52 44 46 47 35 31 23 17 43 42 54 53 48 39 55 56 45 43 39 35 29 33 46 59 62 64 58 58 62 62 59 63 68 68 72 74 81 88 90 84 84 84 85 85 90 90 87 92 94
44 42 40 34 25 26 28 49 52 43 46 36 38 56 56 56 43 40 32 31 28 46 58 50 43 50 57 56 65 62 68 76 79 82 86 86 87 85 80 82 88 91 91 90 90 90 94 96 93
40 35 30 31 30 37 45 47 47 42 44 42 8 38 51 52 43 19 26 42 50 49 55 57 50 51 53 62 67 70 70 75 79 83 79 80 89 91 93 90 91 91 95 96 100 102 101 93 78
35 29 32 31 36 46 43 38 45 36 35 39 57 50 37 40 41 38 39 53 59 62 63 62 63 64 70 76 81 81 84 89 90 88 89 90 88 90 93 87 91 96 102 102 99 92 88 79 70
32 29 28 30 46 42 37 29 36 35 29 28 22 31 29 21 20 35 46 54 69 70 70 70 73 77 81 81 83 87 88 91 92 93 94 95 91 91 94 94 97 103 104 99 91 81 77 74 72
27 27 27 26 29 29 34 31 28 20 23 33 32 31 26 28 27 30 44 51 59 66 72 75 72 70 80 85 85 85 84 89 88 89 91 93 94 97 101 100 99 95 95 88 82 78 77 76 77
27 32 30 30 28 26 32 35 35 33 26 32 40 45 44 38 31 32 40 52 56 62 69 69 71 72 71 79 91 87 86 82 84 91 92 91 95 98 97 93 93 89 84 80 79 79 79 83 87
31 29 34 31 30 28 25 27 32 26 25 26 31 47 51 47 36 34 39 40 45 51 60 69 79 75 80 78 80 84 83 86 88 91 92 92 94 91 87 86 84 81 78 80 83 84 82 80 80
32 35 36 33 32 30 31 23 23 25 25 28 28 29 30 32 32 33 36 40 38 44 49 62 67 70 75 78 81 82 84 84 84 83 83 80 80 80 79 77 75 75 77 77 78 80 81 82 83
36 35 32 31 29 31 25 22 22 24 31 31 28 29 31 32 30 28 33 35 38 46 54 52 59 59 65 67 70 75 77 75 74 73 73 74 72 70 68 70 72 76 78 80 82 83 84 86 83
35 29 26 28 29 31 29 25 19 23 25 28 31 31 32 32 32 35 42 46 48 52 48 51 53 59 63 66 65 62 62 64 65 64 62 61 62 66 69 72 74 77 80 80 80 81 80 82 80
26 23 20 23 24 22 22 26 28 25 27 27 28 30 32 32 34 36 39 42 45 45 48 45 47 50 53 53 54 53 53 51 51 51 55 59 63 67 68 71 72 73 74 74 73 71 68 70 70
25 22 22 23 23 22 23 28 33 32 31 33 33 33 34 34 36 38 40 40 40 42 44 43 42 42 43 43 42 41 41 44 49 53 56 59 62 64 66 66 68 70 72 72 72 72 71 70 75
22 22 22 21 22 20 23 26 27 26 27 27 30 32 35 38 38 39 39 36 34 33 31 34 35 34 33 34 37 40 42 44 46 48 52 54 58 63 66 67 69 70 73 74 74 74 76 78 79
24 23 23 22 21 22 29 26 25 26 26 20 26 29 31 35 35 33 30 30 28 28 28 27 26 29 32 33 35 38 40 42 46 51 54 59 60 63 66 67 69 72 74 74 77 78 79 83 86
24 22 23 24 23 25 29 24 26 25 13 11 34 36 32 31 30 29 26 23 24 24 23 24 27 29 31 36 41 44 47 50 53 58 63 67 70 69 68 70 73 75 76 77 78 82 86 90 94
27 24 24 25 28 29 27 28 24 16 12 22 42 50 36 27 27 24 24 24 22 23 24 27 30 33 37 42 46 48 53 56 60 64 69 72 75 73 74 75 76 77 80 83 87 93 96 101 104
28 26 27 26 30 22 20 24 20 21 27 34 45 36 28 24 25 25 23 22 24 26 29 32 36 40 44 47 52 53 58 63 67 71 74 77 79 78 78 79 79 82 86 92 97 101 105 110 113
27 29 29 26 23 21 23 21 21 22 23 25 30 23 24 26 25 23 23 26 29 32 36 39 41 47 51 53 57 59 63 68 73 76 79 82 84 82 81 82 84 88 95 99 103 109 111 112 109
28 27 26 24 24 23 19 24 19 21 21 22 23 24 24 23 24 25 28 32 35 40 44 47 49 53 57 58 61 66 70 76 80 82 84 86 84 82 84 86 90 96 102 106 109 111 109 107 108
24 25 24 23 21 19 21 20 20 20 22 23 23 22 23 25 27 29 33 37 39 44 48 50 50 55 61 64 68 72 78 80 84 86 88 85 83 85 88 93 97 103 106 110 109 107 104 105 110
27 25 23 21 19 22 22 21 21 23 22 21 23 24 28 31 34 36 41 44 46 48 50 50 52 59 66 71 75 78 80 84 87 88 84 82 85 89 94 99 102 106 109 108 107 107 108 107 109

GFSSGP_250_spd_027.txt.gz
Wind_Speed
96 101 99 99 95 91 93 97 91 89 90 90 89 85 88 89 91 83 79 82 77 75 74 68 72 79 78 70 60 67 68 71 75 71 69 71 68 68 70 72 70 67 64 67 64 64 67 70 69
87 93 99 98 94 94 94 97 95 91 91 89 87 90 92 90 89 82 76 82 78 73 73 72 78 72 65 73 75 75 73 77 75 73 70 66 67 71 73 71 69 66 59 55 62 67 69 67 64
79 79 88 88 90 89 96 98 96 93 90 93 91 91 86 83 84 84 78 74 73 75 69 68 71 77 84 78 77 79 81 74 76 74 74 70 68 72 71 65 62 59 61 63 65 67 59 61 65
68 71 76 80 80 85 95 90 89 92 83 87 86 83 80 77 73 77 69 69 68 71 67 65 67 73 77 80 82 80 75 70 70 62 61 65 66 67 61 57 61 60 62 67 69 67 64 70 74
59 62 63 69 73 80 87 91 89 81 82 80 70 67 72 72 71 64 39 31 45 54 52 52 56 65 73 75 76 73 69 70 66 67 65 66 64 66 58 65 65 61 65 68 71 69 71 79 78
53 54 52 61 68 74 76 67 67 73 70 58 58 65 73 64 59 46 44 29 34 48 49 50 57 62 67 70 70 70 61 55 52 49 47 51 55 58 62 64 60 67 72 72 71 76 73 70 68
48 47 50 56 61 68 65 57 59 60 52 46 54 60 58 53 47 45 36 27 29 54 52 56 61 52 59 61 63 57 54 52 53 52 50 51 52 52 55 61 67 71 67 76 75 72 76 79 79
41 41 46 49 56 56 47 47 42 47 46 39 43 40 32 21 35 34 35 40 44 48 24 45 36 47 52 57 61 50 49 49 47 55 58 60 57 53 59 66 69 74 76 78 77 79 89 91 90
32 32 41 47 43 26 32 30 31 25 24 36 20 9 21 31 41 37 31 30 39 52 49 51 58 60 54 51 52 41 49 51 53 61 58 53 64 64 72 74 73 77 86 85 86 89 88 88 92
39 43 44 36 27 30 32 28 24 18 24 35 5 12 18 36 40 39 33 32 40 43 48 45 55 53 50 54 55 57 53 58 59 53 54 63 68 71 77 76 80 81 84 85 91 89 99 99 97
44 43 35 23 28 29 36 38 39 35 26 23 31 42 32 38 40 39 42 30 40 34 33 52 61 57 56 58 64 49 54 49 55 66 76 68 73 79 87 93 96 97 98 94 93 100 100 100 98
40 37 31 27 34 48 42 48 45 39 34 27 48 43 36 33 41 38 27 24 36 35 39 39 52 56 65 68 64 64 61 69 73 73 72 76 83 87 92 87 83 85 90 93 98 99 98 97 98
43 35 31 33 53 49 47 43 44 41 39 34 45 47 38 40 36 33 50 47 46 42 44 43 45 58 61 62 64 67 65 73 75 80 85 87 91 91 92 90 91 93 97 100 97 100 100 97 94
32 30 31 41 48 45 40 39 44 52 45 37 31 56 49 46 35 38 42 49 56 55 55 53 55 61 63 68 71 74 77 81 82 84 83 86 90 91 95 95 100 101 100 100 101 97 95 90 90
25 32 31 35 43 44 44 37 19 21 31 27 37 53 55 38 31 34 30 45 47 56 59 61 65 66 70 73 76 77 77 79 78 82 83 84 88 91 99 101 98 95 98 97 93 92 90 87 83
35 33 31 32 43 47 42 44 30 24 15 21 25 42 53 56 37 39 40 38 37 45 62 65 69 76 78 79 78 76 78 82 84 86 88 92 92 94 94 99 100 97 90 88 84 83 82 82 83
32 35 36 36 34 38 42 29 30 28 34 31 33 37 47 46 43 41 37 43 41 47 61 68 69 70 69 74 78 82 83 87 91 91 92 93 92 92 90 92 88 84 82 78 77 80 82 83 83
35 42 39 37 33 30 25 27 29 34 29 25 28 28 32 35 39 37 33 38 39 43 52 70 70 64 58 65 69 71 76 79 80 83 85 81 83 84 83 78 74 72 74 76 77 78 79 78 78
35 36 34 34 30 26 30 31 28 25 20 24 26 28 30 35 31 32 33 34 40 40 39 45 48 50 58 62 69 70 70 74 77 79 82 77 72 66 64 67 69 70 71 72 73 73 74 78 82
35 30 29 29 30 29 28 32 25 24 20 26 28 28 32 32 34 34 36 34 42 41 47 51 56 60 62 63 65 66 65 64 65 64 62 58 59 60 59 59 61 64 68 71 73 74 75 78 79
27 26 22 21 23 24 28 26 27 30 34 26 26 27 30 33 31 33 35 35 40 43 44 43 49 51 54 56 56 57 57 52 51 52 53 53 52 54 57 62 65 68 71 74 75 76 77 77 77
20 19 21 21 21 25 25 25 27 31 32 30 30 31 31 33 35 35 37 36 38 42 42 40 46 49 49 48 45 45 43 44 44 46 48 52 54 57 61 64 67 71 75 78 79 79 79 79 79
21 20 21 21 23 26 25 23 25 27 29 24 28 31 26 16 23 27 31 34 33 33 34 35 40 40 41 41 40 41 41 42 43 45 49 54 57 61 67 71 76 79 83 82 79 80 80 82 86
23 22 22 22 22 24 27 23 23 26 24 27 29 33 29 21 26 29 30 28 28 28 29 32 34 36 39 40 42 42 44 45 46 50 54 60 63 68 73 77 82 86 86 81 80 83 86 90 96
22 25 22 22 24 30 25 27 25 25 22 18 26 33 28 24 28 32 33 30 27 26 29 33 36 38 41 43 43 45 49 53 56 59 62 67 71 75 79 85 88 86 81 82 86 91 96 99 104
29 27 24 25 27 29 30 28 26 27 25 25 30 29 28 34 35 35 28 25 27 30 30 33 37 41 45 50 52 52 55 56 60 65 67 73 79 80 85 91 88 84 83 86 92 98 102 106 110
29 27 27 28 30 26 25 30 17 24 26 25 31 28 32 30 34 31 28 28 28 31 33 34 38 43 50 53 54 56 58 63 67 70 75 80 81 86 91 90 86 86 88 93 100 103 106 110 109
27 29 28 26 26 28 27 24 22 27 21 22 29 33 35 37 36 28 27 29 31 34 37 39 43 49 53 57 57 58 63 67 72 74 76 81 86 90 92 89 88 88 92 97 104 110 111 109 107
33 31 29 26 26 27 25 24 27 27 23 18 22 24 27 30 30 29 29 32 37 41 43 45 45 48 52 57 59 62 67 70 70 75 80 84 89 94 91 90 90 94 99 103 109 111 111 105 106
30 27 25 23 23 26 27 26 27 22 21 21 20 26 29 31 31 30 32 37 40 43 46 49 49 51 54 61 65 67 66 70 75 80 84 87 94 91 91 92 95 99 103 108 111 110 106 104 106

GFSSGP_250_spd_030.txt.gz
Wind_Speed
71 77 81 85 89 92 94 96 96 93 88 86 85 88 86 84 82 83 84 79 78 77 74 75 77 77 76 76 75 77 77 73 70 63 68 74 75 73 76 80 77 75 78 69 71 69 61 62 60
61 66 70 74 80 88 90 96 95 92 88 86 88 89 89 86 85 85 84 81 75 77 77 76 74 74 73 72 77 75 74 74 68 66 74 77 77 80 81 76 77 75 72 70 67 58 60 59 59
53 59 64 64 70 80 93 95 93 91 90 88 90 90 88 87 86 85 82 78 75 74 78 74 73 72 69 71 73 71 74 72 71 73 78 77 80 78 79 68 71 69 66 67 62 55 61 61 67
50 51 54 56 64 79 89 88 86 85 87 87 88 86 86 82 82 82 77 74 74 68 61 57 59 59 63 61 68 69 68 69 77 77 76 77 76 70 67 66 70 67 65 65 59 60 65 67 68
46 48 50 52 69 76 74 73 77 74 81 83 80 79 81 79 76 67 59 61 58 53 48 48 45 50 50 55 60 65 72 80 76 75 72 69 58 57 58 61 62 53 57 55 59 62 63 65 70
41 42 48 58 61 57 58 59 59 55 64 69 64 58 60 56 61 63 57 48 45 36 31 41 44 41 48 53 58 64 69 68 66 66 60 58 62 61 58 55 50 58 61 61 58 60 66 66 70
37 38 48 50 51 51 48 44 49 56 64 67 57 51 50 34 36 37 41 35 27 18 28 36 44 41 45 53 57 58 57 56 56 50 51 54 60 59 58 46 54 56 56 52 59 62 62 67 77
33 35 43 46 40 43 34 36 42 44 47 45 38 39 40 33 34 34 34 25 16 27 38 39 41 33 37 40 45 45 48 53 53 53 57 61 60 58 52 56 63 64 60 60 63 75 76 77 83
32 35 46 34 29 26 32 38 41 44 42 43 46 31 26 25 36 33 32 35 48 53 36 35 45 45 46 54 53 49 55 53 55 55 44 40 48 57 67 60 59 59 63 65 71 72 83 89 92
35 36 32 29 21 19 29 32 37 41 37 37 29 31 22 28 33 30 27 33 35 50 56 61 49 50 52 49 48 51 47 45 45 46 50 53 46 51 52 54 68 80 72 76 81 85 88 94 98
41 41 30 22 18 26 27 31 32 36 34 36 40 34 26 29 31 36 28 28 38 35 61 61 62 57 56 54 42 47 51 48 47 48 44 49 56 57 61 71 71 77 86 85 89 88 93 99 105
44 36 31 23 19 29 34 40 33 32 32 36 29 37 27 31 33 32 30 39 41 43 35 50 62 61 50 55 52 40 43 51 58 59 62 65 73 74 77 82 83 87 87 90 95 96 100 99 98
39 39 30 22 27 33 40 38 36 30 31 42 39 36 35 29 28 28 29 37 39 37 40 46 45 46 55 64 67 64 62 63 63 68 65 60 71 70 76 79 86 87 88 94 94 98 94 94 86
39 35 33 23 31 39 37 43 42 34 41 42 44 40 40 38 36 35 29 35 36 42 49 50 50 59 62 57 52 63 58 59 61 67 71 72 77 79 80 84 86 91 94 93 87 83 88 82 88
33 24 24 27 33 37 39 44 40 34 49 45 36 45 46 45 39 35 40 40 42 45 47 49 55 57 56 56 62 66 71 66 73 78 80 81 82 88 90 92 90 91 92 90 87 86 89 85 85
30 29 29 38 39 36 44 42 39 32 49 44 36 33 49 42 45 43 40 42 44 49 50 57 58 56 57 59 59 66 71 78 79 78 79 83 86 87 84 87 93 88 85 84 84 85 82 77 79
32 30 32 40 41 40 39 35 31 24 29 37 44 40 44 45 44 48 46 45 38 47 49 56 61 59 61 69 70 74 74 76 78 80 84 84 83 83 83 84 84 84 83 82 76 72 74 76 76
28 34 36 37 41 42 43 37 33 29 28 28 31 38 41 48 52 51 50 49 45 44 46 50 52 57 61 65 70 71 74 79 79 77 75 76 76 79 80 81 80 78 72 69 70 72 73 75 78
29 28 32 33 36 43 41 37 30 28 30 32 35 37 40 44 46 53 52 49 52 50 48 52 54 55 57 59 61 66 73 75 72 71 75 76 77 78 77 75 72 69 68 70 70 71 73 78 81
26 27 30 35 30 34 39 34 32 29 31 32 33 33 31 33 36 43 48 47 48 52 50 45 44 50 55 54 57 59 62 67 72 75 74 74 74 72 71 68 68 67 67 70 71 73 78 82 87
22 26 28 28 28 30 30 28 33 34 31 30 29 29 34 35 31 39 43 42 42 39 36 38 42 48 53 56 59 60 62 61 64 66 67 65 64 66 67 66 65 65 68 73 75 79 84 88 90
25 25 32 31 29 32 32 31 30 32 30 31 33 31 29 29 30 31 35 39 40 40 37 40 44 49 49 54 54 56 57 57 56 56 59 60 62 64 64 65 67 69 74 77 80 86 91 95 92
24 24 26 27 25 26 26 28 24 25 28 31 36 37 37 37 35 34 38 40 36 32 35 35 38 42 47 49 48 47 48 49 53 57 58 60 62 66 70 73 74 75 77 80 85 90 94 93 90
23 24 23 24 27 25 23 27 28 27 27 31 33 32 33 36 38 39 33 33 27 27 30 30 40 39 39 40 42 43 46 51 54 57 60 63 66 67 68 71 74 77 79 84 89 95 96 93 91
19 22 21 23 27 26 24 25 27 29 29 32 33 27 30 32 37 38 35 25 24 29 28 31 33 35 38 41 44 47 49 51 55 58 60 64 67 69 69 72 75 79 84 88 93 96 93 92 93
23 22 25 26 26 25 26 25 27 30 31 33 31 27 24 26 33 30 28 29 31 25 25 29 36 39 42 44 46 48 52 55 54 57 62 64 65 66 68 74 80 85 89 92 98 95 93 95 99
23 28 27 26 29 29 26 25 27 29 30 29 28 24 23 23 28 27 27 32 25 28 32 35 39 44 45 47 48 51 53 56 60 63 65 66 66 71 75 81 85 89 93 98 95 94 97 101 106
25 28 28 28 30 31 26 26 27 28 27 24 29 26 25 26 29 34 33 32 34 33 32 37 42 45 48 51 54 56 59 61 63 66 66 69 74 78 83 87 90 94 99 96 96 99 104 108 109
28 29 28 30 33 33 30 28 27 25 24 22 25 25 23 23 25 26 30 34 36 34 35 39 43 47 50 54 58 61 64 64 65 67 71 76 81 85 88 91 96 99 97 98 101 106 109 109 106
31 34 31 33 32 32 31 26 25 26 21 21 22 24 24 25 26 32 35 35 37 38 38 41 45 49 53 58 63 67 66 66 70 73 78 82 86 89 92 96 98 97 99 104 107 108 106 106 107

GFSSGP_250_spd_033.txt.gz
Wind_Speed
50 51 57 62 69 75 81 87 97 96 94 90 88 87 85 85 85 83 83 78 75 76 77 75 73 72 71 72 73 75 74 76 77 76 74 74 73 75 74 73 74 76 79 76 75 77 75 72 73
50 53 51 56 53 59 70 87 92 93 93 89 89 89 88 87 86 85 83 81 79 78 77 74 72 73 73 74 76 75 75 75 77 75 75 73 75 75 76 74 74 79 77 76 75 72 65 64 63
47 48 53 51 56 62 70 80 81 84 85 84 89 90 91 88 87 86 85 80 76 77 79 74 71 73 74 69 67 68 71 71 73 72 72 73 76 76 74 72 76 78 76 75 73 66 61 59 56
42 45 48 50 54 59 71 70 74 80 80 77 81 90 90 88 86 86 85 82 76 72 69 70 71 74 70 66 62 64 66 64 69 70 72 72 72 69 69 75 79 73 61 57 54 59 55 51 53
38 40 44 50 57 58 60 62 65 70 68 73 78 86 86 83 80 76 74 67 66 65 59 59 63 58 58 56 56 54 56 61 64 67 64 63 63 66 74 74 61 62 57 65 63 52 47 49 54
34 37 41 47 49 51 48 51 57 60 59 62 72 79 79 79 76 72 69 58 55 52 52 49 50 52 48 46 50 51 52 54 56 56 62 68 72 76 70 66 64 66 64 60 53 49 52 53 53
32 33 37 40 38 41 40 42 46 45 47 53 55 57 67 69 62 57 46 48 40 35 33 33 36 40 44 42 48 49 47 49 52 55 57 56 53 54 50 55 59 61 63 58 55 57 56 57 56
29 33 33 32 28 30 30 32 34 38 46 52 52 47 52 47 41 35 35 30 19 19 25 24 23 31 41 46 45 37 41 44 49 50 52 51 52 54 53 58 50 52 57 59 49 48 56 55 63
26 31 28 25 24 23 27 30 35 41 48 51 47 43 37 34 36 35 32 31 33 31 30 35 41 50 57 53 46 52 52 46 46 45 47 52 54 47 48 58 46 45 46 45 54 60 66 73 76
25 30 25 22 19 21 27 31 34 40 46 47 46 36 30 33 39 39 35 35 41 43 40 46 49 54 57 58 53 54 54 49 50 47 53 51 47 43 48 44 41 41 52 60 65 73 75 83 85
27 26 19 20 19 21 24 32 35 40 42 42 46 42 34 31 38 41 37 34 45 49 48 50 42 55 51 59 56 52 54 51 49 50 37 42 48 49 47 44 70 67 70 79 75 71 74 81 84
23 26 17 23 19 21 26 30 36 34 37 40 36 34 36 38 39 36 38 41 52 53 53 52 52 56 58 61 59 58 58 46 50 49 42 50 64 56 67 65 64 74 72 70 78 85 91 92 91
26 27 22 22 18 19 25 28 31 34 31 37 38 38 33 33 32 33 35 38 47 53 60 59 62 61 65 54 46 40 41 42 52 52 59 56 61 59 68 68 72 72 78 85 85 88 91 94 96
30 33 27 20 23 22 26 28 24 29 36 39 45 39 29 33 33 33 37 44 49 46 50 58 58 55 52 56 46 49 49 54 60 56 54 55 65 68 68 75 78 79 83 84 89 92 86 82 82
30 32 25 27 27 20 23 30 33 39 40 36 42 46 44 35 40 38 33 37 41 46 49 50 57 62 59 58 62 63 64 55 65 66 61 69 72 74 78 82 85 89 88 90 82 79 78 76 80
33 31 31 32 22 22 31 38 40 38 36 35 40 49 53 43 42 35 35 40 42 38 43 45 45 45 52 54 60 62 63 71 67 67 69 73 74 78 85 88 90 89 87 81 81 81 78 77 72
30 26 28 33 25 25 32 36 43 40 41 40 43 54 45 49 43 43 34 48 46 47 45 46 48 52 57 60 62 62 65 60 62 68 73 78 80 83 81 78 76 76 82 82 76 77 73 72 72
17 20 20 23 23 26 31 34 40 44 31 39 40 34 48 43 41 45 42 43 41 47 50 49 49 58 59 60 61 66 67 69 72 72 69 66 67 69 70 73 79 79 76 72 72 72 71 73 74
19 22 23 25 28 31 35 32 31 36 38 27 38 34 33 38 51 51 51 53 48 42 43 47 49 48 49 54 59 59 64 66 64 64 67 67 69 71 73 76 74 75 71 70 71 72 74 75 78
18 19 22 25 29 28 34 35 34 35 31 40 40 38 36 36 39 48 51 46 48 49 53 51 55 54 54 56 55 58 60 61 61 64 68 69 70 71 71 73 72 70 71 72 73 77 79 84 86
16 20 24 27 27 31 31 36 39 34 32 31 34 38 38 40 42 45 47 48 48 47 48 51 52 51 49 50 52 52 53 54 58 61 63 63 64 64 66 67 69 71 74 77 79 82 84 84 84
15 19 19 24 30 30 25 29 29 30 27 31 32 33 36 38 37 39 38 39 37 36 41 44 45 46 46 48 49 50 55 55 57 58 59 58 59 62 66 70 73 77 78 79 80 80 77 80 85
13 21 21 22 32 32 30 29 29 27 30 31 35 33 32 35 37 37 36 37 37 37 39 43 41 43 40 40 41 43 49 50 51 52 54 57 62 66 68 69 66 68 73 75 74 78 81 85 88
14 18 21 23 29 28 27 27 29 33 30 29 32 37 38 39 41 41 38 38 39 39 37 39 31 32 35 35 36 39 44 47 51 53 57 62 65 68 66 68 69 68 68 73 78 81 86 90 92
17 20 23 24 27 25 24 24 23 28 31 28 29 33 36 36 32 32 34 36 41 41 37 29 28 29 34 37 40 42 46 49 54 57 58 62 64 67 69 69 68 70 76 80 83 87 90 92 95
16 20 26 26 23 22 23 26 23 27 29 33 33 33 35 38 37 32 30 30 32 33 25 23 32 31 36 40 45 48 50 53 54 58 61 64 67 69 69 70 72 76 81 83 88 91 92 90 92
18 21 26 28 27 24 24 26 28 28 29 31 30 31 34 35 30 29 28 28 29 24 26 31 34 36 41 47 49 50 53 53 56 59 63 68 68 69 71 72 76 82 83 87 93 91 89 93 97
17 20 23 27 25 23 25 28 32 31 31 29 28 31 29 27 25 25 26 27 28 30 31 34 38 46 47 48 51 51 51 53 57 63 66 65 69 70 74 78 82 85 86 94 94 91 93 98 103
20 20 21 23 28 26 27 29 32 30 30 32 29 27 26 27 27 27 24 25 26 28 32 37 43 46 47 48 49 50 53 57 61 63 65 68 70 75 80 83 85 87 94 96 92 95 99 101 106
26 26 26 28 28 30 32 31 30 28 29 28 23 24 26 27 25 26 26 28 31 34 39 43 43 43 46 49 52 55 59 62 65 66 68 70 75 80 84 87 88 93 96 93 97 100 102 106 107

GFSSGP_250_spd_039.txt.gz
Wind_Speed
59 53 50 52 53 54 58 66 76 78 81 85 88 93 95 93 94 91 87 85 84 79 79 79 76 75 73 71 71 70 69 68 69 71 73 72 72 75 72 73 76 77 78 79 79 80 79 80 81
56 51 46 47 48 51 54 62 63 66 72 77 80 76 87 90 89 85 85 86 83 81 79 77 75 74 72 72 72 70 69 69 69 68 71 71 72 73 73 75 78 79 78 78 78 77 78 79 79
54 49 44 43 45 48 52 52 53 55 63 71 75 79 70 77 83 85 77 81 79 80 79 78 75 75 73 71 70 70 70 71 70 71 73 74 74 74 75 77 76 78 76 75 76 76 77 77 78
51 47 41 40 41 43 51 49 47 51 57 66 70 70 71 71 68 77 79 73 73 74 75 75 73 73 73 74 72 71 71 71 71 72 72 73 72 71 74 74 74 73 74 72 74 72 74 72 67
45 41 38 36 35 39 45 47 46 49 50 57 65 63 64 59 66 69 68 72 71 77 72 71 71 71 71 72 70 70 70 67 69 69 70 70 71 69 71 71 71 69 72 68 69 66 62 67 63
40 33 32 28 27 29 34 41 44 50 51 48 55 54 55 52 53 61 65 68 66 49 48 60 59 67 72 71 68 64 59 59 59 61 62 62 63 65 64 65 63 62 60 63 60 61 58 57 58
39 29 23 20 20 20 25 32 41 47 50 46 49 46 46 49 50 52 54 54 49 32 40 42 49 56 64 52 47 47 49 52 53 54 57 60 59 59 58 59 55 57 55 53 53 54 57 59 60
36 23 18 17 17 20 22 25 33 41 45 43 43 43 44 43 49 46 49 48 36 44 37 39 44 50 46 44 42 35 39 46 48 52 57 55 56 55 52 53 56 56 53 54 52 51 56 55 58
32 20 13 14 13 13 17 20 28 35 40 41 40 42 44 45 45 47 47 44 48 42 46 34 32 34 34 36 36 37 38 40 46 49 47 54 52 54 55 53 51 50 53 52 57 63 65 50 39
26 19 13 7 7 10 15 17 21 29 35 38 39 38 43 37 43 47 48 49 37 47 49 40 38 39 34 37 38 44 43 44 51 53 55 54 53 55 57 56 60 56 55 62 65 55 49 51 54
18 19 10 8 9 13 13 16 18 26 30 33 37 38 33 38 36 37 36 36 46 45 47 55 47 40 45 43 48 50 51 55 57 57 54 57 53 54 56 57 62 63 68 54 45 51 52 61 65
13 11 8 10 13 13 11 12 16 21 22 27 31 28 28 32 37 38 36 37 47 51 54 56 53 51 57 56 53 52 53 53 55 56 58 60 55 56 57 64 66 60 48 52 56 59 64 70 75
9 8 10 11 10 11 10 14 20 24 30 37 39 34 32 31 27 37 37 43 50 49 55 56 59 58 56 57 52 56 51 58 56 58 60 62 60 60 64 63 51 55 54 61 65 69 72 75 78
12 4 9 6 15 15 17 13 18 25 29 36 39 35 33 32 28 30 34 46 51 52 55 56 50 49 53 53 56 57 54 58 60 61 61 61 63 61 61 59 58 63 61 62 66 70 76 75 76
12 7 10 13 16 17 21 19 19 19 24 33 33 37 33 27 21 37 39 45 50 52 42 46 46 42 43 48 52 51 52 56 59 58 63 64 60 57 59 60 62 64 68 73 75 80 79 84 85
9 4 11 7 12 16 15 14 13 15 21 24 28 41 38 29 22 34 37 41 50 49 47 46 48 46 45 47 53 58 60 57 53 56 52 54 57 59 61 65 69 73 72 75 78 79 81 75 71
3 9 9 11 15 15 11 2 7 16 16 21 30 31 34 36 34 32 38 41 50 44 44 50 50 50 53 52 49 55 52 53 58 56 59 60 62 63 67 71 71 75 78 79 79 75 72 69 63
7 6 5 5 10 7 5 9 11 17 19 19 21 23 28 32 30 37 33 41 46 45 43 41 49 43 53 57 51 53 56 62 60 59 62 63 67 69 70 72 73 74 69 68 69 67 67 64 65
9 6 1 2 13 11 7 11 12 17 22 19 21 15 20 38 29 29 35 34 32 44 43 43 44 45 51 53 55 54 55 55 54 59 62 66 70 69 70 66 67 64 62 66 64 63 63 65 67
8 1 2 3 2 15 11 12 13 17 19 20 21 23 16 22 31 34 29 30 33 36 35 44 41 41 44 47 51 57 58 55 61 65 65 65 65 65 67 66 60 60 60 59 60 62 65 67 70
7 5 5 6 9 12 15 14 16 14 20 23 19 21 24 22 27 30 28 31 35 40 43 42 42 45 48 51 53 57 61 63 59 60 63 64 61 60 58 54 54 55 58 60 63 65 67 72 74
12 5 9 13 14 14 11 13 18 19 15 16 21 24 26 30 28 27 28 30 28 32 38 40 42 44 45 45 48 47 47 50 50 48 48 47 49 46 50 52 56 58 61 64 66 69 71 73 70
22 9 9 12 12 11 12 14 21 21 17 20 26 25 23 22 26 33 32 31 33 33 32 35 33 34 36 40 41 39 43 42 42 42 42 44 46 50 53 58 61 63 66 66 68 72 73 73 74
17 18 10 11 15 14 15 16 19 19 17 21 27 32 30 30 31 33 33 37 37 38 34 33 35 38 36 34 39 42 44 41 37 38 42 46 49 53 58 61 64 67 67 69 72 75 75 75 79
20 19 17 12 14 17 19 18 18 21 23 22 25 27 29 30 30 31 30 28 29 31 33 33 35 36 36 35 39 40 38 40 41 44 48 51 53 58 62 65 68 69 71 73 75 76 75 78 82
24 18 19 18 17 18 20 20 21 22 23 23 24 26 25 27 30 30 29 28 29 31 34 35 36 36 30 32 37 33 36 41 47 53 56 58 59 60 65 68 69 72 73 75 77 77 80 83 86
27 21 17 17 18 19 20 23 23 25 27 26 26 26 26 24 24 26 29 32 34 35 38 38 37 34 27 28 33 39 40 47 52 56 58 61 60 64 68 71 72 72 74 76 79 82 84 85 89
35 23 21 19 17 19 21 24 26 23 24 26 28 29 31 30 32 33 35 34 34 34 35 34 33 32 32 36 38 40 45 47 52 57 59 59 61 68 72 74 74 75 75 79 82 85 87 88 92
36 27 23 20 22 20 22 29 30 29 30 31 33 33 35 35 36 39 37 35 35 33 31 31 33 29 30 32 38 41 44 46 52 55 55 60 66 73 73 75 76 76 80 83 87 90 91 94 94
36 33 23 23 22 27 27 34 28 31 33 35 38 38 38 38 40 42 37 36 34 33 31 31 27 26 27 30 33 37 43 51 52 53 59 66 72 72 74 77 79 81 82 86 89 92 94 96 99

GFSSGP_250_spd_042.txt.gz
Wind_Speed
74 69 65 63 61 61 62 62 59 60 67 69 75 74 85 76 88 94 93 90 91 89 87 84 84 83 81 80 77 75 73 73 73 72 73 75 76 76 75 75 75 76 75 74 73 74 74 77 77
75 67 60 57 56 56 56 54 53 55 58 66 73 74 79 75 83 86 89 92 91 91 86 84 84 81 78 78 77 76 73 72 73 73 73 75 75 76 77 75 73 73 74 73 74 76 76 77 77
77 64 57 54 51 50 49 48 52 52 55 60 67 71 73 77 82 79 86 89 92 83 83 84 82 80 78 77 76 75 74 72 72 75 76 78 76 76 76 76 74 73 73 74 73 75 74 73 72
76 66 56 46 42 40 42 44 46 48 53 56 58 63 68 74 75 77 79 80 83 81 77 83 81 80 79 76 75 74 75 75 74 75 76 77 77 77 77 77 72 71 71 71 74 73 73 72 70
74 63 50 41 37 34 33 36 40 42 48 51 54 58 65 70 74 70 66 69 72 67 72 71 73 76 72 70 76 77 76 75 74 73 77 79 77 73 74 71 70 71 68 67 70 66 67 65 64
67 56 45 37 31 28 29 31 34 38 43 46 49 51 58 63 66 67 60 52 58 57 59 51 50 60 63 68 69 69 69 69 68 68 68 70 70 68 67 67 65 62 64 63 64 63 63 61 60
63 49 38 31 28 27 26 28 29 35 37 44 46 46 49 57 57 54 59 53 48 32 34 40 39 46 57 60 60 59 63 62 60 59 59 55 57 57 56 56 60 59 60 61 60 58 58 59 58
58 44 35 26 24 21 22 23 26 29 32 38 42 43 45 48 53 52 48 46 45 37 31 39 40 36 39 35 26 42 46 40 39 42 46 48 52 53 54 53 56 55 58 58 57 57 63 60 62
52 42 32 25 22 18 18 19 21 26 29 36 41 43 41 40 48 50 49 41 44 45 46 39 39 40 40 35 30 37 35 37 32 38 41 47 49 52 55 53 52 52 54 56 58 58 58 61 63
44 34 27 22 20 13 12 16 14 19 23 25 31 39 40 40 44 46 44 42 49 47 51 50 43 44 29 28 32 33 30 35 38 39 46 47 47 45 46 50 57 57 56 56 58 60 59 57 51
48 31 21 19 12 10 14 12 7 15 22 27 28 31 34 32 40 41 46 47 48 49 51 52 52 40 32 46 36 33 38 43 43 45 50 54 52 52 53 56 60 54 55 60 60 60 57 51 54
47 25 18 12 12 11 14 14 10 13 17 20 25 26 26 28 32 41 40 41 41 50 49 51 46 51 41 41 42 37 43 49 49 47 52 56 57 56 58 59 60 61 62 62 62 58 56 58 62
43 23 10 5 9 10 6 8 15 21 22 26 29 22 23 23 26 28 30 36 46 47 53 52 58 52 50 48 47 54 53 56 54 52 53 62 65 61 63 60 63 62 61 61 59 58 58 64 68
37 15 4 2 6 9 9 9 18 23 31 36 33 29 29 25 27 28 30 33 37 43 54 57 52 57 55 54 51 55 57 49 49 52 58 64 61 60 59 61 62 60 57 60 60 62 66 70 74
31 6 2 4 5 5 10 12 17 22 26 35 33 32 30 28 25 30 37 36 38 46 55 57 57 54 55 52 50 57 60 61 49 54 56 60 55 57 58 59 55 57 60 62 64 67 70 70 69
32 1 8 6 3 8 11 17 15 15 24 33 33 31 30 28 17 22 26 29 35 47 55 51 52 51 53 51 51 50 58 57 58 59 60 59 59 58 58 55 59 62 65 67 71 73 72 70 71
34 5 7 5 5 8 7 6 12 13 19 26 33 35 33 23 13 26 28 28 35 47 45 45 49 45 47 52 54 52 47 52 52 56 63 63 64 65 61 62 68 69 70 74 74 73 68 71 65
31 7 3 5 6 9 5 6 2 9 17 20 28 36 36 34 21 17 30 33 28 31 45 40 43 49 48 49 50 47 49 46 46 53 58 61 62 62 65 66 68 72 73 71 70 69 67 64 61
29 11 3 4 11 10 5 4 7 8 17 22 24 23 29 38 34 27 27 30 36 39 51 42 45 46 44 48 53 44 46 52 52 51 59 63 64 68 64 70 74 75 71 71 67 64 61 59 60
24 14 4 2 4 14 10 8 8 7 13 22 28 16 19 18 28 30 26 26 32 36 41 48 46 45 45 46 47 49 61 66 71 70 70 65 66 67 69 70 69 69 64 62 58 56 60 61 63
24 18 10 5 4 7 10 10 12 8 9 21 28 26 23 22 20 28 30 30 30 33 32 38 48 50 46 46 48 53 49 50 54 59 61 63 63 63 61 63 65 58 56 56 58 62 63 64 68
26 19 14 10 11 13 15 14 14 14 11 16 24 25 29 21 25 22 31 35 34 31 33 36 38 39 43 47 47 53 57 55 57 55 57 55 54 54 54 55 53 53 55 57 63 66 67 70 72
37 22 18 13 12 11 12 11 11 15 13 13 18 21 21 22 22 29 27 28 31 35 34 34 33 36 37 42 46 46 47 51 51 53 51 51 51 52 51 50 52 55 59 62 66 69 71 73 76
32 28 18 17 15 15 14 12 12 14 19 18 17 18 21 23 21 21 24 28 31 33 34 38 33 36 34 35 39 43 41 42 46 50 51 51 48 47 49 52 58 61 64 68 70 70 74 78 79
32 33 22 17 17 17 20 18 13 13 15 18 18 21 23 26 28 30 32 33 34 36 36 36 39 39 36 34 33 36 41 40 43 44 49 47 47 52 56 61 64 66 69 70 70 76 78 79 79
35 29 28 20 18 19 23 22 17 18 18 20 22 23 26 29 30 31 33 34 34 32 32 33 32 32 33 31 27 23 35 39 36 41 46 52 53 56 61 65 67 68 70 72 76 81 83 79 80
38 31 32 26 22 19 21 25 21 22 21 23 24 25 25 24 25 26 27 30 32 33 34 36 37 35 36 33 32 36 30 42 40 48 52 56 60 61 63 65 66 69 73 76 83 86 83 84 84
38 33 29 31 24 23 22 25 23 22 24 24 26 26 27 28 29 30 32 32 33 34 35 35 38 38 37 35 35 42 48 48 47 51 54 56 60 62 64 66 67 71 77 83 86 85 86 88 89
38 35 34 29 28 25 25 27 27 25 25 26 26 29 30 30 32 34 34 34 34 36 37 38 38 39 38 37 38 49 48 46 50 52 54 57 60 63 65 66 69 77 82 84 85 86 88 92 94
37 39 36 29 28 25 28 32 32 28 29 32 33 34 35 37 37 38 38 39 37 37 40 41 38 37 40 40 42 50 55 53 50 50 54 59 63 65 68 70 77 81 84 84 86 89 92 96 97

GFSSGP_250_spd_045.txt.gz
Wind_Speed
67 69 73 69 74 70 65 65 65 63 56 51 56 62 34 69 67 52 51 75 85 86 95 97 92 90 92 90 86 84 83 82 80 79 78 78 76 78 78 79 78 78 77 76 78 78 78 76 75
67 71 70 70 70 65 61 58 56 54 36 35 51 62 77 74 69 74 78 83 71 73 85 93 94 90 88 87 88 86 84 82 81 79 80 81 80 82 81 82 81 80 79 78 78 79 77 76 77
73 71 71 71 68 62 56 52 49 45 44 53 59 59 65 70 75 71 85 66 64 48 71 77 87 86 89 90 88 84 82 82 80 81 81 82 81 82 83 82 82 80 80 80 79 79 77 76 77
74 70 74 71 65 59 52 45 44 41 41 44 46 50 55 62 69 72 82 83 67 53 42 73 64 83 88 85 83 83 81 79 79 81 82 83 82 81 81 80 81 81 80 79 76 76 75 72 72
72 75 73 67 61 52 45 39 36 36 40 41 42 36 49 53 62 68 72 70 59 57 51 47 66 70 67 71 80 81 76 75 80 80 78 80 80 79 78 79 78 78 77 79 76 72 70 71 69
74 75 71 64 56 47 38 33 31 33 37 39 38 35 66 48 55 64 68 63 61 54 44 44 47 55 65 64 65 69 75 74 74 76 77 76 74 73 72 72 69 71 70 70 69 69 67 64 65
74 70 64 57 46 34 25 38 29 30 34 35 35 37 41 45 49 58 62 61 65 61 50 39 46 46 52 62 52 56 69 71 67 67 67 64 65 63 61 61 58 58 59 60 59 60 61 63 61
68 61 58 43 32 29 26 26 25 24 14 33 32 31 31 38 42 49 46 52 48 44 38 25 18 29 37 47 46 42 35 42 51 50 51 50 49 46 48 51 56 55 57 57 56 59 60 57 58
68 59 49 32 28 24 23 23 23 23 22 26 26 28 34 34 39 45 45 45 50 40 44 42 33 25 31 36 38 34 32 31 37 36 31 37 41 44 48 50 52 55 53 52 54 57 59 58 57
65 55 44 28 23 22 16 14 15 16 10 17 23 28 37 36 33 34 40 45 42 50 54 47 47 46 41 36 34 38 34 38 32 30 31 39 45 42 46 46 42 42 52 55 58 59 59 60 59
62 53 40 27 20 15 9 11 4 5 14 23 24 26 30 28 33 36 40 42 44 54 59 53 43 46 44 40 43 34 38 35 22 32 39 43 46 48 49 50 52 59 59 59 58 60 63 64 57
56 51 36 18 12 13 12 13 13 23 17 36 33 27 19 24 28 33 38 48 51 51 62 58 47 52 47 45 44 42 43 38 31 37 46 45 51 54 58 60 61 58 58 63 66 60 59 59 59
48 47 29 15 11 4 3 6 5 15 30 31 20 16 22 22 23 30 39 41 49 52 64 67 61 53 54 49 51 47 43 42 41 50 54 48 51 55 54 53 60 65 65 67 59 59 56 62 61
43 42 22 10 6 5 6 4 8 12 20 28 28 25 24 24 23 28 34 34 44 52 59 63 60 59 55 56 54 46 44 43 44 52 54 56 57 59 60 62 64 60 61 58 59 59 60 61 65
39 38 16 7 9 11 27 17 6 13 22 29 33 31 30 25 21 19 29 37 44 49 55 55 57 61 59 60 54 49 49 50 53 53 48 51 53 52 55 60 63 65 60 61 59 65 64 69 73
37 31 5 8 8 9 26 13 15 16 26 31 33 26 26 22 24 23 23 28 34 47 51 50 52 54 60 60 55 51 50 48 49 50 48 47 49 47 55 58 60 65 69 66 69 75 72 73 73
35 26 9 5 2 5 6 16 9 9 24 26 27 25 24 21 17 16 18 23 28 38 46 47 52 57 55 58 59 59 53 49 49 46 49 55 57 58 60 65 65 70 73 77 77 74 75 77 77
33 24 15 6 3 2 5 5 8 10 17 30 27 29 21 24 14 25 23 24 29 32 39 37 40 40 40 57 55 55 56 49 44 52 54 57 55 58 61 63 66 65 65 73 75 77 75 76 72
36 21 14 11 13 13 7 8 7 6 12 18 28 29 27 19 16 20 14 19 25 17 25 33 26 36 48 43 40 40 39 43 57 57 57 60 60 57 58 63 67 75 78 82 73 70 68 66 63
34 22 16 10 10 16 15 10 5 3 14 20 21 32 25 28 27 28 20 19 31 30 31 31 36 37 39 42 41 46 55 58 56 53 53 55 59 64 71 77 79 79 79 77 71 67 61 61 62
36 31 14 14 10 6 10 13 8 7 10 21 23 30 27 29 33 34 29 28 29 32 37 38 39 43 40 43 46 44 45 50 57 61 63 66 66 62 64 67 69 70 70 66 65 62 60 60 64
38 29 20 12 13 16 15 14 13 11 9 18 25 27 27 25 24 27 36 32 30 37 34 36 39 42 42 45 45 46 50 54 54 57 59 62 66 69 68 67 66 63 61 61 60 61 62 66 69
36 34 24 14 12 16 14 12 13 12 11 12 22 34 30 31 32 27 27 29 33 35 35 36 34 35 36 41 49 53 56 57 60 62 64 66 65 63 63 62 60 59 60 59 60 62 67 71 76
34 36 28 22 14 12 14 13 12 13 16 17 15 26 37 36 32 26 26 25 25 31 36 39 39 37 41 41 41 44 46 49 50 46 45 54 60 61 57 58 59 55 57 62 63 67 73 75 77
33 35 34 28 22 16 13 16 17 21 20 22 24 23 24 32 27 27 28 29 28 28 30 34 35 37 40 41 42 43 45 46 41 38 47 53 58 58 58 57 54 57 64 68 71 73 77 78 79
31 34 35 35 28 22 18 14 19 25 23 24 23 25 23 24 28 32 34 35 36 36 37 37 39 40 40 42 34 35 44 45 40 42 45 57 56 53 56 56 59 64 70 75 76 76 79 81 83
31 33 35 33 35 28 23 20 17 20 24 26 27 25 27 29 31 32 35 36 35 36 36 37 37 36 38 38 31 41 40 45 47 50 53 54 53 53 56 59 67 71 72 72 76 79 82 85 86
30 32 34 37 35 34 26 21 19 20 22 26 29 30 30 31 32 31 29 30 31 31 32 33 35 36 36 40 43 49 47 46 53 54 53 51 50 56 62 66 67 68 73 77 80 82 86 89 92
32 30 34 38 36 35 28 25 20 20 25 25 29 32 33 33 34 32 33 35 35 34 34 37 38 39 39 41 41 44 46 47 57 60 60 61 60 63 66 69 69 72 76 80 84 86 88 94 95
33 33 35 36 38 36 31 27 22 18 20 27 29 32 33 36 37 37 37 37 37 38 39 41 42 44 44 43 44 44 46 45 48 58 62 62 63 65 67 67 70 75 80 84 86 89 92 96 94

GFSSGP_250_spd_048.txt.gz
Wind_Speed
72 73 73 71 70 73 77 77 75 72 67 54 48 41 40 36 43 45 31 34 43 61 60 59 66 73 88 92 91 93 91 90 89 86 84 83 83 82 82 80 79 78 77 79 78 78 79 79 79
74 70 71 68 73 75 73 73 68 65 49 40 40 37 34 15 14 38 40 53 44 29 45 53 60 64 64 77 91 91 92 92 90 87 86 85 86 84 83 82 81 81 81 81 81 82 81 80 81
73 69 69 70 74 70 70 66 59 49 35 32 33 31 36 19 26 24 44 77 58 36 35 29 38 58 69 77 73 90 90 89 90 85 87 88 87 84 86 84 83 83 84 83 82 83 83 80 79
67 67 69 70 68 65 64 56 48 36 22 20 21 31 32 40 48 35 50 68 73 32 35 15 23 26 40 55 72 76 87 90 84 85 88 88 85 82 83 82 82 84 84 83 85 83 81 79 78
69 67 70 69 64 63 59 45 34 22 14 21 25 27 27 37 36 55 47 69 69 51 31 29 24 31 48 58 57 61 73 81 85 87 85 84 79 80 79 80 82 82 84 83 83 80 80 77 76
70 67 71 67 65 59 52 40 25 12 9 3 7 13 34 50 31 42 62 63 79 58 44 47 50 40 44 43 40 53 54 67 78 77 76 79 76 75 77 76 78 78 79 77 78 77 77 75 72
64 67 68 64 60 53 38 28 14 5 8 15 22 28 1 25 39 39 40 65 84 93 52 43 37 34 30 36 39 41 51 57 58 64 67 70 67 68 69 66 67 70 71 70 72 69 67 63 62
64 65 63 59 56 37 17 13 12 5 21 21 21 21 27 35 38 41 37 56 85 83 84 60 53 45 38 29 36 34 39 43 52 52 48 45 50 50 56 59 57 58 58 57 58 56 53 55 56
62 63 58 53 43 27 13 6 15 19 8 13 4 35 31 42 37 39 41 46 71 77 75 75 60 42 40 30 23 26 26 31 32 27 33 30 28 33 35 40 50 51 48 48 49 46 48 52 56
58 62 54 53 33 23 18 4 11 6 17 21 26 19 22 37 54 33 42 44 54 66 63 63 51 43 43 43 37 25 32 32 29 25 22 24 23 28 32 37 42 44 41 46 44 41 50 57 57
57 54 51 43 30 23 17 13 9 17 26 22 24 14 21 25 40 33 40 42 51 60 69 61 54 47 45 45 39 35 33 35 35 32 31 22 28 35 45 45 47 43 48 51 53 56 58 60 60
55 51 45 34 22 17 16 17 11 28 23 24 34 19 29 27 33 32 37 46 46 54 54 55 60 55 47 43 42 43 42 41 38 39 36 35 41 43 44 47 48 48 53 54 57 60 61 61 61
54 49 39 30 16 16 16 29 12 13 29 30 30 16 34 32 28 35 37 41 46 51 56 62 61 58 50 48 47 45 42 49 45 45 47 39 40 42 45 51 49 51 55 53 55 57 61 70 63
52 45 34 23 17 16 15 25 6 21 31 28 25 19 25 29 33 34 33 43 44 58 61 60 63 56 50 54 51 41 48 47 45 45 42 45 47 52 54 53 50 53 56 58 59 60 61 62 64
48 42 30 19 23 23 16 13 6 13 26 30 31 29 28 34 38 35 34 43 48 51 56 59 62 61 53 52 56 50 50 48 48 49 47 53 52 55 54 57 58 58 58 58 59 60 62 66 69
45 41 25 13 15 22 16 7 23 16 20 24 23 24 25 19 22 26 25 37 47 51 50 57 61 59 59 53 60 53 50 51 50 46 48 50 56 59 60 60 61 58 53 56 61 65 68 69 72
43 39 24 14 5 20 14 3 15 10 11 21 14 15 15 22 15 17 21 34 37 40 52 49 56 59 52 55 57 57 55 54 54 52 51 49 51 54 52 53 51 56 62 66 65 68 72 74 78
40 37 28 16 4 8 18 17 13 8 19 17 20 12 17 16 12 14 21 27 34 37 45 46 50 56 52 47 54 55 56 56 55 59 53 55 47 50 51 56 61 58 57 62 66 69 74 75 85
40 41 33 16 9 11 9 11 13 5 24 23 25 19 16 20 23 18 16 20 22 22 27 39 42 41 46 47 55 63 58 54 61 60 50 53 55 56 57 58 62 66 68 67 70 74 80 79 79
40 39 32 20 9 7 15 18 12 12 17 16 22 27 20 24 18 22 21 18 18 25 25 28 33 34 34 37 36 43 50 53 56 57 60 62 60 56 58 62 65 63 69 76 80 80 80 81 79
40 37 35 26 16 9 12 20 21 18 11 19 23 26 28 30 25 25 27 24 22 19 26 27 30 32 32 35 40 42 41 46 48 52 51 54 61 66 67 70 69 73 75 78 79 76 75 74 73
37 36 36 31 20 12 7 16 19 18 15 22 28 29 31 34 35 30 26 28 26 28 35 34 37 39 42 43 43 43 48 55 54 53 52 50 52 56 59 61 66 68 70 70 72 75 74 71 67
35 37 36 34 29 21 13 10 15 18 18 18 29 29 33 35 38 28 29 31 30 29 33 38 39 39 42 45 49 48 48 52 56 56 57 59 62 67 70 70 71 68 71 71 73 72 72 70 67
37 38 37 32 33 29 21 14 13 15 16 17 19 30 38 34 37 43 32 29 33 30 32 37 36 39 42 43 43 41 43 48 49 48 50 50 56 63 62 64 67 65 67 71 71 70 68 68 72
36 38 39 36 34 33 26 20 15 16 16 16 21 21 40 41 36 38 43 39 29 27 30 29 34 40 41 44 43 45 45 45 48 48 45 49 49 48 56 62 73 73 72 72 72 70 70 73 78
31 35 37 38 37 35 35 25 16 17 20 15 20 22 27 37 45 41 42 35 29 32 33 32 32 34 35 37 38 40 44 50 52 50 45 49 44 48 62 66 69 72 71 69 70 74 72 78 84
33 33 33 35 38 37 37 33 24 16 19 19 20 24 28 30 34 40 45 44 41 44 45 44 42 42 42 43 44 44 36 41 47 45 51 52 48 54 60 67 75 77 76 73 71 72 83 83 82
36 31 32 34 34 37 40 37 25 20 20 20 20 22 28 33 31 35 37 38 40 41 44 48 46 44 43 40 42 41 42 46 48 51 53 54 57 57 64 70 73 75 73 69 75 80 84 85 88
30 35 33 35 37 34 38 37 36 30 22 20 18 20 21 25 35 36 37 37 37 36 36 36 41 39 39 43 43 43 45 48 52 52 59 58 59 61 66 69 72 72 74 78 82 84 85 86 90
43 39 37 37 37 36 34 41 37 32 29 23 24 18 19 22 25 35 39 40 37 38 40 38 42 42 41 45 44 48 46 49 51 49 51 53 56 65 70 71 73 75 77 80 83 83 87 89 93

GFSSGP_250_spd_051.txt.gz
Wind_Speed
68 69 72 73 74 73 71 72 74 73 69 56 54 56 56 51 54 44 35 39 39 33 22 17 37 44 40 45 54 63 73 81 89 90 90 89 87 85 85 84 82 82 82 82 80 80 78 77 78
65 70 74 74 73 71 72 75 72 68 58 56 50 46 42 44 29 31 32 34 45 38 31 18 38 43 39 45 51 59 64 72 81 86 90 90 88 87 88 86 85 85 84 84 84 83 82 81 80
67 72 72 73 72 73 75 71 69 58 54 45 37 32 24 27 18 13 3 23 54 41 48 45 32 35 34 29 42 53 60 59 67 79 84 88 88 86 86 88 87 87 86 85 85 84 84 84 83
66 66 68 69 68 72 71 65 60 49 40 31 27 21 31 37 21 12 4 27 62 58 54 47 46 25 15 35 35 36 38 44 49 65 69 82 84 83 87 86 85 87 87 86 88 85 84 84 82
60 64 65 65 64 67 62 57 49 31 21 13 16 28 39 32 22 14 13 20 49 58 55 47 31 14 17 17 46 44 43 37 39 48 61 63 71 80 79 81 83 83 83 84 85 86 84 84 80
57 58 61 61 63 58 53 45 23 7 12 19 27 50 41 38 33 26 20 24 34 62 51 48 41 28 22 30 41 49 45 38 36 35 48 51 57 65 76 80 78 76 76 76 75 77 73 79 78
54 57 57 58 56 51 44 19 7 9 21 20 33 56 47 33 35 30 23 33 37 44 65 41 47 38 33 50 53 57 53 42 34 31 36 40 45 51 61 70 70 68 66 70 67 71 66 64 62
51 55 53 55 49 46 26 7 16 23 27 29 28 37 46 40 34 33 30 41 39 47 56 70 43 50 41 42 39 57 43 34 44 32 30 35 41 46 44 45 51 51 52 53 56 51 55 47 46
52 49 52 48 46 36 7 19 27 27 31 32 31 30 28 30 35 38 32 41 39 46 50 65 56 61 51 60 63 58 32 25 20 21 25 29 24 28 39 26 32 38 41 39 39 41 39 40 39
46 48 48 46 44 16 14 24 28 33 28 33 33 38 36 38 41 39 39 40 39 44 61 59 60 65 68 66 60 46 34 31 23 25 25 28 28 19 24 23 29 35 34 35 37 38 39 39 42
43 46 46 42 35 6 13 26 23 16 17 35 39 39 37 40 42 44 42 46 44 49 62 62 66 67 65 64 58 51 39 31 28 28 32 32 28 28 22 29 33 39 42 43 40 39 41 44 49
42 46 43 35 10 10 23 22 23 7 15 29 35 39 37 37 36 36 39 59 49 53 68 70 66 74 69 56 52 50 41 40 34 42 38 33 33 31 31 32 38 41 49 41 40 41 42 47 51
40 45 42 24 4 26 30 27 18 9 13 29 34 34 31 28 34 21 30 47 50 58 64 78 72 67 62 54 49 48 50 48 50 43 44 37 36 42 41 43 44 46 46 42 45 45 49 47 48
40 47 37 4 1 9 27 21 15 7 7 19 31 38 31 29 24 19 23 32 36 52 62 85 71 65 62 62 52 53 51 55 53 50 46 42 41 49 48 43 42 44 45 49 48 46 46 53 58
35 44 34 5 14 16 24 12 4 9 15 18 19 30 33 36 28 21 22 33 38 45 56 64 81 69 64 64 58 58 53 55 51 51 46 47 46 50 48 47 49 49 49 52 47 54 58 60 58
34 40 34 21 12 14 12 10 4 5 8 12 11 19 29 34 24 24 26 34 39 38 51 53 57 59 61 58 62 64 61 58 51 47 45 48 45 49 47 49 52 55 54 57 52 57 62 60 62
36 39 41 26 9 17 16 9 5 5 4 6 12 17 21 19 20 22 26 31 36 47 50 53 53 56 62 62 66 60 57 58 56 47 47 49 46 51 50 53 51 54 57 55 54 57 59 64 64
33 39 42 30 22 10 15 5 6 14 7 3 8 13 16 16 16 19 22 25 31 40 41 48 53 55 56 59 58 56 56 54 58 58 52 48 48 54 50 51 53 51 50 54 58 60 65 68 72
30 32 35 42 31 14 16 16 15 15 18 17 11 15 15 15 15 11 16 22 30 36 42 45 49 53 55 58 57 48 56 55 52 52 56 57 58 58 59 59 58 57 59 60 63 68 70 69 71
24 30 36 38 38 25 8 11 20 11 16 17 14 21 18 12 16 18 14 14 17 27 41 45 45 52 53 53 59 59 48 50 53 55 52 53 58 60 64 60 60 62 66 67 66 66 77 82 79
25 29 35 38 37 37 25 7 12 19 23 15 18 21 26 21 18 20 22 23 19 16 24 31 35 38 49 45 39 42 44 40 41 44 49 59 58 55 60 64 66 69 71 71 72 79 79 74 73
24 27 32 37 34 39 30 20 13 16 17 18 21 20 30 31 23 23 26 25 21 23 19 22 30 29 33 33 36 38 40 42 44 46 49 52 53 52 52 59 61 62 66 67 69 70 71 72 73
20 25 29 32 33 34 39 29 17 10 13 17 26 25 28 30 30 28 26 30 33 32 29 28 29 27 30 34 38 41 45 47 52 51 55 56 58 60 63 64 65 65 63 67 74 72 73 74 79
24 27 25 31 30 34 33 40 28 17 12 9 22 21 32 30 34 33 30 28 28 29 33 31 30 34 38 39 41 49 51 56 56 55 55 55 58 61 65 64 60 61 74 79 77 77 79 81 79
25 28 22 32 30 31 36 34 37 26 16 5 15 19 23 32 38 37 37 37 30 30 31 35 33 37 38 44 47 48 50 53 57 59 57 49 47 53 56 51 53 60 68 69 69 72 74 76 80
26 31 32 32 31 31 34 33 35 36 26 16 10 15 23 25 31 42 41 39 40 41 34 22 29 32 35 38 42 45 48 50 54 53 51 53 56 55 53 54 57 60 65 68 71 74 78 80 82
26 32 33 33 30 35 36 33 31 33 36 24 19 11 14 27 27 41 43 44 43 42 42 34 34 36 36 37 40 42 46 49 51 55 56 59 61 57 56 57 60 61 65 69 73 76 77 79 83
32 31 32 33 27 34 40 33 31 37 33 33 25 25 19 12 18 27 34 45 50 47 46 46 44 44 46 51 56 53 52 48 50 52 54 57 55 55 58 64 67 68 70 74 76 79 82 84 86
27 33 33 35 30 34 35 32 31 34 36 32 30 22 21 23 18 18 24 31 36 37 38 42 26 31 40 34 39 38 38 42 49 47 58 54 55 58 62 65 68 73 75 77 77 78 80 81 84
29 27 33 36 38 34 34 34 33 33 35 35 32 28 21 21 23 23 21 22 28 35 35 36 33 25 47 34 40 40 36 35 36 39 55 57 61 65 65 68 68 68 69 71 77 83 86 88 90

GFSSGP_250_spd_054.txt.gz
Wind_Speed
56 54 56 59 65 71 77 75 73 74 71 72 68 69 64 60 64 65 52 53 53 46 42 42 13 45 42 41 41 43 49 47 49 61 75 79 85 87 86 87 86 87 85 83 83 81 81 80 80
56 57 61 67 73 74 77 78 75 72 67 62 61 53 53 51 53 50 44 46 45 49 53 57 53 44 38 29 29 30 39 46 45 48 56 67 76 83 86 86 85 87 86 85 86 84 81 83 83
57 63 69 73 74 76 74 72 71 67 60 58 53 48 47 44 45 46 36 35 40 53 63 52 64 44 25 31 26 23 30 39 48 50 52 58 60 66 75 84 86 84 85 86 85 85 83 85 84
62 65 69 72 71 67 66 65 65 58 54 52 43 40 36 35 31 23 29 34 34 57 52 49 45 38 22 23 21 29 36 34 28 33 41 54 54 61 61 66 75 85 84 83 85 85 83 83 83
62 65 64 58 60 63 62 60 57 57 50 43 30 26 31 27 35 28 32 40 40 50 55 52 42 31 27 15 38 41 41 41 39 35 34 37 40 45 55 56 58 70 78 77 78 80 80 82 79
58 55 52 54 56 60 60 55 53 48 39 30 24 27 39 38 41 35 35 30 39 46 46 47 46 38 35 43 35 41 40 41 50 48 46 30 32 29 36 49 53 53 59 68 73 76 75 75 71
41 48 50 54 55 57 54 50 40 30 23 24 30 44 49 34 36 38 37 31 42 42 46 43 40 45 41 56 52 45 45 45 42 45 44 39 32 26 27 33 38 44 46 49 52 59 67 65 65
44 46 51 51 54 50 48 32 33 20 20 32 45 56 51 43 40 32 28 32 41 40 49 38 45 44 35 39 46 57 53 47 37 45 39 42 40 30 32 32 33 38 40 42 46 48 47 46 42
45 46 48 43 49 43 41 22 25 24 28 38 54 58 55 49 45 40 31 36 28 36 59 54 49 49 42 33 38 43 44 43 36 27 28 29 27 36 30 27 29 34 40 42 39 39 34 33 36
43 44 39 45 46 36 33 25 24 30 31 35 53 59 56 54 48 47 38 40 38 46 52 63 53 54 54 43 45 39 50 42 30 28 31 40 38 38 28 24 27 35 35 36 37 34 34 35 41
39 33 38 44 42 31 25 21 30 31 34 36 44 57 59 55 49 48 44 43 53 52 53 56 66 63 56 62 52 49 46 43 38 34 33 34 35 35 35 36 31 39 43 42 39 42 46 42 37
26 31 39 42 33 28 18 24 22 28 34 41 41 53 61 56 49 47 48 50 43 51 48 59 65 67 63 72 66 64 50 54 51 45 41 37 36 34 35 38 43 42 51 47 42 44 47 37 41
22 29 36 37 25 20 18 28 26 38 36 40 41 41 56 57 51 46 45 53 52 47 45 61 62 65 73 74 70 66 67 67 63 54 44 41 36 36 36 38 40 42 45 43 43 44 41 41 43
19 27 32 33 20 10 20 36 30 30 30 38 34 41 50 47 43 45 43 41 54 51 48 65 67 70 75 80 73 74 67 66 58 53 45 47 47 46 40 40 42 45 48 44 47 47 46 46 48
18 27 30 36 27 21 22 31 25 24 20 22 33 30 51 45 43 42 42 43 45 55 53 57 71 69 72 80 77 71 70 68 57 56 56 55 51 49 43 45 49 48 52 54 50 49 53 53 54
19 24 26 36 33 23 14 23 16 14 14 17 21 26 36 48 47 43 42 36 41 57 58 66 59 79 76 77 80 74 70 65 61 57 54 58 58 54 51 50 52 54 54 54 56 57 56 62 60
19 22 25 33 35 17 21 29 34 24 13 6 5 12 23 23 23 36 44 38 33 35 37 54 63 67 79 81 80 79 72 65 60 57 57 57 57 59 59 54 53 55 52 54 58 63 62 63 58
20 21 26 29 37 29 20 27 29 31 10 7 13 9 11 10 14 23 29 32 29 33 33 38 47 60 71 77 76 68 64 66 59 59 62 61 60 60 56 53 56 54 54 61 63 63 58 59 61
21 22 26 31 27 35 20 23 27 21 22 27 21 10 13 15 18 20 22 24 26 27 29 35 39 50 59 72 68 60 51 54 60 66 65 60 57 59 62 62 60 58 61 64 61 61 64 64 65
17 21 22 28 26 29 32 20 27 30 24 24 19 17 16 16 20 19 17 17 21 25 27 31 39 41 47 58 67 59 53 56 56 58 57 55 59 58 59 58 56 57 61 64 65 66 68 65 68
17 18 20 25 28 31 30 36 19 23 28 28 26 22 16 23 18 22 18 12 15 15 18 30 35 40 45 45 43 46 53 56 55 56 53 47 52 60 64 66 65 69 71 70 71 74 74 76 74
13 16 19 25 25 27 28 33 28 22 19 25 24 24 19 24 23 18 22 16 15 16 12 12 22 30 33 37 40 43 49 52 48 47 51 58 60 57 55 56 59 64 67 71 72 71 70 70 71
17 16 19 23 24 30 28 29 36 28 21 19 17 22 22 20 28 27 17 21 19 22 22 17 16 19 22 26 28 27 31 35 37 39 42 47 51 55 59 61 62 67 67 69 72 75 82 77 76
23 20 18 21 26 30 26 29 28 31 27 22 21 19 10 20 25 33 30 22 24 23 24 26 23 24 27 27 27 32 36 38 37 45 51 56 57 60 63 66 66 67 70 69 73 76 81 77 77
26 31 20 17 23 28 31 31 29 29 30 27 22 21 16 16 23 27 36 30 25 28 30 27 28 28 28 31 34 34 38 44 46 47 49 52 56 60 62 64 64 69 67 69 69 70 71 75 76
27 25 24 16 22 25 29 29 34 25 26 27 23 19 20 15 19 26 35 43 37 34 29 30 34 34 39 36 37 36 38 41 44 48 50 50 52 57 62 63 65 65 62 61 63 67 70 75 77
44 30 32 23 24 25 27 27 34 24 25 25 26 23 20 22 19 20 26 31 46 42 38 38 39 38 34 32 31 32 35 38 42 46 47 51 55 58 61 61 63 62 62 63 66 68 73 77 78
44 36 34 26 25 22 26 26 33 27 24 25 22 25 20 18 22 23 25 29 36 41 41 43 45 45 39 37 37 32 35 38 33 33 35 38 44 40 56 56 60 59 59 61 65 71 74 76 81
45 42 34 31 27 24 30 25 27 29 26 28 25 22 19 11 11 15 24 30 29 35 41 41 38 35 31 38 41 36 31 24 31 37 43 42 38 33 42 49 58 58 60 64 70 74 78 79 77
50 41 42 33 25 27 22 25 26 29 31 26 29 31 26 22 12 12 16 19 26 31 30 35 38 36 33 37 35 39 40 35 38 30 51 37 46 50 57 63 68 72 72 78 74 72 73 74 76

GFSSGP_250_spd_057.txt.gz
Wind_Speed
54 53 58 60 63 63 63 64 68 71 75 77 77 74 72 70 71 73 72 66 66 64 57 59 52 51 49 33 39 32 39 46 52 50 52 56 60 65 71 80 89 86 86 86 87 88 87 85 84
58 60 58 56 58 62 65 69 73 74 75 74 72 71 66 67 66 66 65 63 59 59 51 51 49 49 39 27 43 42 34 32 42 42 50 59 60 61 64 72 76 86 89 89 89 89 88 87 86
59 57 56 60 66 68 70 72 77 68 68 70 70 64 62 63 63 63 61 57 54 48 50 47 48 47 39 50 20 29 30 26 30 30 37 46 52 52 56 58 65 71 78 88 88 88 90 87 86
60 61 63 62 66 73 76 70 66 68 69 64 60 56 55 52 54 56 56 54 52 51 47 42 48 54 54 48 26 28 23 22 25 25 28 33 40 44 47 53 54 58 59 67 76 81 83 81 81
60 64 66 68 65 60 59 64 64 63 63 53 50 48 45 38 44 46 43 46 46 37 44 43 58 55 59 45 30 21 25 28 32 34 35 32 32 35 35 40 45 50 53 58 65 64 65 68 69
46 49 55 52 54 58 60 62 61 61 54 49 38 33 29 21 18 27 31 34 37 37 42 48 58 56 52 38 27 26 28 35 38 31 37 37 41 43 35 30 29 33 37 41 49 54 54 55 55
43 44 47 49 53 53 59 60 57 54 48 39 27 16 15 26 29 22 23 28 37 35 35 45 62 52 43 32 34 28 30 41 35 31 37 40 46 45 38 39 27 23 25 25 32 37 43 45 45
39 43 45 47 53 57 59 56 48 39 38 33 19 27 39 36 33 29 28 28 38 39 43 41 50 43 36 30 29 48 45 44 37 34 43 41 43 46 43 39 42 30 28 26 31 35 45 42 44
40 41 41 47 46 50 53 44 35 31 30 25 22 41 42 43 38 39 35 36 48 45 46 26 46 46 49 42 47 47 53 46 47 45 44 43 39 42 31 34 39 40 41 45 38 42 47 51 42
36 38 42 38 41 46 43 30 27 27 25 23 31 50 41 43 39 44 40 45 41 45 45 46 49 52 59 50 54 53 50 47 48 46 45 43 36 34 34 38 40 44 42 38 41 42 44 55 45
33 32 32 32 39 37 31 28 22 28 27 24 39 58 47 43 40 49 50 51 43 44 53 53 52 52 51 48 48 53 63 54 46 48 43 40 36 34 33 36 32 36 38 39 45 41 47 49 43
28 28 25 32 31 32 25 25 23 27 27 28 42 58 49 45 39 46 52 47 39 43 52 59 56 58 60 54 50 57 49 42 39 46 42 42 33 41 37 33 36 38 40 40 41 39 51 47 41
26 20 25 29 34 32 31 22 29 28 30 34 36 55 52 49 45 47 47 54 41 42 51 51 62 58 61 61 59 60 56 49 45 47 42 45 38 38 39 35 33 37 36 39 37 38 42 45 44
23 21 22 27 32 30 27 23 25 29 35 37 37 57 57 56 51 50 50 52 44 41 50 52 56 62 61 58 61 64 63 59 51 54 55 49 44 41 37 39 35 40 41 39 40 42 45 50 49
17 18 17 25 30 31 21 19 21 27 34 35 39 46 59 60 56 52 52 50 47 43 42 53 53 60 64 62 57 60 63 61 61 53 57 53 52 56 49 45 49 48 44 45 46 46 47 50 53
12 14 19 24 27 32 26 18 18 23 15 24 32 41 57 64 60 58 52 55 48 44 44 50 55 55 60 71 69 63 64 64 65 64 63 62 52 56 57 53 52 51 50 53 52 51 54 58 55
13 18 15 22 26 30 31 22 15 24 28 18 25 29 35 58 61 66 59 52 51 50 55 53 57 57 60 66 77 76 69 69 72 74 69 65 58 49 54 54 52 52 54 55 56 58 56 58 57
14 17 19 21 20 28 30 30 19 17 28 27 31 14 17 28 57 60 61 56 52 51 54 55 62 63 62 65 68 80 81 72 71 73 69 64 64 66 64 57 57 56 61 59 59 60 62 61 62
17 21 18 21 19 24 30 35 29 19 22 28 23 28 24 19 17 34 53 60 58 60 54 53 53 61 62 69 75 73 75 78 75 72 72 73 70 64 64 61 61 60 57 56 58 62 64 69 70
19 21 19 18 16 22 27 30 34 23 16 20 30 32 25 16 18 17 21 32 39 44 54 59 51 44 40 50 74 74 76 75 75 77 75 77 76 69 61 63 64 62 61 64 65 68 66 64 65
21 20 17 16 23 19 27 27 32 26 20 16 17 29 28 23 21 19 19 24 25 27 34 39 36 33 35 34 42 61 72 76 82 79 70 64 64 60 49 56 51 52 54 57 59 61 62 66 70
24 22 20 12 22 22 23 28 31 34 25 19 15 16 20 19 22 25 18 25 23 22 22 26 24 27 26 28 32 41 50 70 65 65 65 65 51 52 51 54 56 56 55 58 58 62 67 69 70
28 25 23 22 21 23 19 27 32 35 27 22 19 12 15 20 20 26 24 23 24 23 20 20 21 21 28 27 31 35 36 41 50 56 52 47 47 44 46 49 52 55 60 60 61 65 66 69 71
35 37 30 25 22 26 19 23 27 32 30 27 21 19 12 13 19 25 30 26 24 26 24 24 21 21 19 17 18 23 29 30 30 33 36 41 45 48 49 51 59 61 58 59 60 63 66 68 72
35 40 32 27 22 24 20 19 23 27 31 29 25 23 20 10 11 24 27 30 29 23 27 27 25 27 22 19 22 23 26 29 33 36 37 40 43 45 48 49 51 51 55 56 60 63 65 62 63
38 31 35 35 22 26 27 19 21 23 27 26 26 25 23 18 11 12 19 28 33 33 28 27 33 33 30 27 28 31 34 34 36 36 35 39 41 43 45 45 47 49 51 53 53 53 51 56 59
38 37 38 34 34 29 27 21 24 19 23 26 31 28 28 26 13 9 12 19 26 34 38 36 32 33 35 35 32 30 34 37 38 35 36 35 36 36 38 44 47 51 52 54 51 51 51 55 59
39 41 40 39 36 35 28 21 24 20 21 21 28 34 34 30 27 21 13 12 17 21 28 37 45 42 39 38 39 37 36 40 39 41 42 39 36 41 44 43 48 51 54 54 50 47 56 64 68
47 41 43 45 36 39 29 24 27 21 20 19 20 30 35 33 31 28 22 18 15 17 18 24 32 37 46 47 48 49 44 46 46 46 46 41 32 36 37 44 48 51 54 57 62 68 70 76 79
51 44 46 45 42 40 34 30 31 27 22 25 23 26 30 35 35 27 26 20 16 13 15 19 22 29 38 42 45 45 44 47 46 47 46 37 33 40 48 48 50 53 61 65 71 74 78 79 81

GFSSGP_250_spd_060.txt.gz
Wind_Speed
61 63 63 61 63 61 61 58 57 56 59 62 65 69 73 74 75 78 81 78 72 71 75 74 72 68 69 65 62 62 65 70 72 56 57 59 63 63 63 67 70 75 81 89 88 87 89 89 88
59 58 58 62 62 61 60 61 61 62 63 66 69 72 71 71 68 70 72 72 68 61 65 68 70 68 70 63 61 57 59 57 51 52 37 47 52 62 65 64 67 70 71 78 80 84 85 88 89
52 52 53 56 58 61 63 65 67 68 69 66 65 64 68 68 68 67 66 65 64 57 59 61 64 67 69 64 57 53 50 44 40 32 27 38 43 45 49 52 58 61 61 65 69 75 79 86 82
51 51 51 48 49 56 61 60 61 65 63 67 66 64 63 66 66 65 63 62 58 54 57 63 68 60 58 49 52 49 45 37 32 29 29 36 34 30 34 39 41 55 55 56 61 59 58 65 65
51 50 49 51 52 51 53 55 57 59 62 63 64 60 51 55 57 57 54 51 49 41 49 50 54 51 46 42 48 39 31 25 29 36 35 30 28 28 28 30 28 27 30 46 48 42 43 46 51
48 47 47 44 46 48 52 54 56 55 60 61 60 48 45 44 39 40 37 34 34 34 35 36 43 37 38 42 42 32 25 25 30 28 29 29 32 34 30 32 30 31 23 21 28 30 25 25 25
41 38 35 38 43 48 50 57 57 57 60 58 53 40 32 29 20 25 22 16 21 25 28 31 36 30 41 42 42 38 29 30 27 33 25 32 32 33 30 33 34 37 27 19 11 8 8 22 25
30 30 33 40 41 45 51 58 57 56 51 52 46 26 17 24 11 9 6 9 18 23 21 24 28 37 48 46 45 49 43 41 35 27 32 40 29 31 31 36 38 39 33 27 27 26 26 32 32
28 31 32 34 39 46 51 54 55 47 46 36 27 15 21 15 17 14 12 14 20 24 35 33 37 37 38 42 42 48 45 39 45 39 38 40 34 30 38 39 43 38 38 36 34 33 32 34 39
32 31 32 32 38 40 48 49 40 40 27 25 24 11 27 27 25 21 18 23 23 25 40 41 38 31 33 38 44 42 33 32 45 49 40 40 41 36 39 37 34 30 38 38 36 36 38 41 39
35 33 28 29 30 36 44 38 32 30 21 23 19 21 31 28 33 32 31 27 27 28 36 48 25 42 34 35 47 39 38 40 41 43 48 48 43 40 37 38 38 41 42 43 40 42 42 36 41
31 28 24 24 28 33 38 35 28 24 24 22 19 28 33 34 39 37 41 39 40 41 42 41 38 45 43 54 50 53 44 44 43 42 40 43 47 47 44 41 37 41 37 42 40 41 40 41 41
27 17 20 23 26 28 33 33 28 21 26 23 20 21 38 36 41 32 40 46 48 50 52 48 34 43 43 60 56 50 56 51 45 45 49 46 51 46 38 34 28 29 31 35 42 39 39 41 44
24 15 18 19 22 26 33 31 24 22 26 24 24 20 41 40 41 30 37 50 48 49 55 50 47 42 46 55 52 51 52 47 45 48 51 48 40 44 39 39 39 38 39 37 36 40 42 45 44
19 16 14 15 21 24 30 30 22 23 26 23 21 23 32 50 45 37 34 41 47 47 46 48 47 48 46 49 51 57 55 53 53 46 50 48 47 51 54 47 50 51 41 40 40 42 46 46 47
21 19 14 15 19 21 26 31 26 21 16 17 9 12 13 57 51 45 42 38 45 49 46 45 47 43 46 49 53 57 59 52 57 55 54 51 52 50 50 50 50 51 52 46 54 47 49 48 49
19 17 14 15 15 17 22 29 32 22 15 19 18 17 17 17 59 58 47 50 47 48 50 44 51 52 51 44 45 55 62 63 57 56 50 51 52 55 55 49 47 46 47 48 48 50 51 49 52
26 19 17 15 15 15 20 24 31 27 19 14 18 26 26 16 25 61 62 53 55 49 52 51 50 47 55 49 45 43 55 67 68 63 63 62 60 59 59 59 60 59 61 60 60 59 60 57 62
29 22 19 13 11 16 19 21 26 33 30 20 15 18 21 28 18 22 50 64 59 56 56 56 52 50 51 59 55 59 54 56 61 63 60 66 65 67 71 69 70 72 70 61 65 69 62 64 65
34 25 21 15 11 16 20 21 25 33 31 29 20 17 19 24 22 20 25 55 66 62 63 62 57 58 57 58 59 61 58 57 64 62 68 72 73 74 69 66 70 70 70 62 60 61 63 58 54
34 27 20 17 12 13 17 23 24 27 30 30 25 21 17 16 19 20 19 25 41 60 74 67 69 63 59 57 57 63 60 73 69 69 72 69 68 68 68 69 64 65 63 63 63 63 54 52 54
36 29 24 21 14 12 16 19 23 24 28 30 30 26 19 15 15 21 23 22 24 27 33 51 68 70 69 68 64 63 56 55 60 70 70 67 67 70 67 65 66 61 63 62 56 55 58 56 55
34 31 30 24 17 19 19 18 23 24 24 25 29 28 24 17 14 15 21 24 20 22 23 22 26 35 44 49 52 57 51 42 42 42 52 66 67 55 59 53 51 56 64 59 54 57 58 58 62
40 25 30 25 24 26 19 21 18 24 22 22 26 29 27 23 18 14 16 20 26 21 20 21 20 23 25 27 30 30 31 31 31 34 37 40 43 46 52 59 54 59 57 58 58 58 60 63 62
35 39 31 26 30 29 20 23 20 24 20 20 20 24 31 29 22 18 15 15 22 27 25 27 24 22 21 24 27 28 25 27 30 32 35 35 37 39 44 48 52 56 55 54 57 56 59 58 57
34 32 30 31 30 28 19 22 20 24 20 21 20 21 26 32 30 23 19 16 13 22 29 25 27 29 27 27 25 25 26 27 30 31 33 38 39 42 46 48 50 51 51 49 48 51 52 55 56
40 36 36 28 30 28 25 25 30 24 25 21 20 21 20 26 29 32 24 18 16 14 24 35 32 29 28 32 33 35 34 32 34 38 40 40 42 42 44 47 48 47 47 48 50 53 50 46 47
46 44 38 33 29 32 30 31 31 24 25 21 21 25 25 22 25 27 28 25 18 14 16 20 32 40 38 36 34 34 36 37 39 37 38 40 42 43 46 49 51 55 54 57 58 56 55 55 59
51 48 45 44 36 32 35 35 35 28 27 22 23 23 28 29 24 26 27 30 25 18 15 15 19 23 31 46 41 39 40 40 41 43 46 47 49 48 51 53 53 50 47 48 51 57 60 64 61
52 51 49 40 40 34 34 41 42 31 32 26 25 26 29 28 28 24 26 24 25 21 21 18 16 20 23 25 34 42 46 49 50 52 49 48 47 47 50 48 48 45 51 54 52 59 59 63 68

GFSSGP_250_spd_063.txt.gz
Wind_Speed
59 59 58 57 58 57 59 61 59 60 60 62 62 61 62 63 64 66 70 72 74 72 71 72 72 72 74 74 70 69 68 66 68 67 68 70 67 65 59 57 61 65 66 70 74 77 80 81 82
58 58 57 53 52 52 52 53 54 54 57 59 59 59 62 65 66 66 66 68 68 68 69 69 68 67 70 70 70 71 66 65 66 65 62 64 60 55 51 57 57 63 68 67 67 71 76 77 77
57 55 53 50 49 53 54 54 50 50 52 57 59 61 64 65 66 66 68 70 69 66 62 67 64 62 66 64 69 66 66 66 63 58 56 56 49 50 45 53 56 56 58 64 61 65 70 72 71
48 49 50 51 51 52 52 50 53 50 52 56 59 62 63 64 64 67 66 66 62 60 61 36 53 55 59 62 66 64 60 61 60 52 50 48 35 33 47 44 41 40 34 40 37 38 51 53 57
48 48 47 49 48 49 48 47 47 47 50 55 55 59 60 56 57 58 55 55 54 51 48 44 56 54 49 51 53 52 50 50 54 51 41 36 32 28 39 33 27 28 27 21 16 19 25 28 22
46 47 46 42 41 39 38 41 44 45 50 54 51 51 48 51 46 43 39 37 35 33 37 39 48 50 46 37 40 40 40 48 49 41 41 33 28 35 35 32 29 28 35 8 5 4 10 6 12
43 42 37 31 32 36 37 40 45 47 48 50 48 47 40 31 26 26 25 18 19 21 27 31 33 37 39 32 37 33 30 35 34 38 37 37 31 35 38 32 31 30 29 20 17 12 6 8 11
38 33 31 34 36 37 38 43 47 49 46 47 45 30 22 10 16 17 17 9 19 29 27 19 25 20 26 29 32 34 36 36 32 27 32 35 37 35 31 34 30 29 28 29 24 19 20 14 20
37 33 33 35 37 36 39 43 46 49 46 41 28 12 11 11 8 9 11 9 4 17 15 18 23 21 26 29 33 43 38 34 31 31 37 33 30 32 38 33 30 28 33 31 28 27 28 26 26
34 30 32 36 31 36 36 40 47 45 42 34 11 11 12 13 11 9 7 9 7 22 34 24 21 25 29 29 35 41 39 39 41 39 36 32 27 30 42 40 35 34 36 39 36 33 35 31 36
31 25 29 26 30 32 33 39 44 38 36 18 8 12 9 19 17 13 11 11 13 35 33 32 48 20 21 24 27 32 34 39 43 40 40 39 30 36 45 42 42 39 39 42 42 39 41 39 33
28 24 27 21 26 29 32 34 38 35 29 14 11 13 11 18 20 22 16 11 16 29 28 40 40 45 36 31 32 39 37 39 40 44 41 40 42 40 44 46 45 39 37 39 43 43 42 37 35
26 20 21 21 22 26 25 29 33 31 26 17 11 12 12 23 23 25 20 16 23 33 42 30 25 30 43 46 40 46 39 37 40 41 38 39 41 45 47 48 43 39 36 26 36 42 45 44 42
23 19 17 20 18 21 23 26 31 28 24 15 11 13 14 22 30 27 25 20 27 35 37 28 28 35 41 44 48 46 46 44 37 35 39 40 42 41 42 42 43 45 42 39 42 40 39 40 44
21 19 19 20 19 22 22 24 29 26 25 16 8 7 11 14 37 32 29 28 32 35 41 32 41 41 40 44 44 49 47 44 46 40 39 45 48 47 48 51 50 54 51 50 46 40 38 39 42
21 21 21 21 15 18 18 21 25 29 24 18 8 7 4 11 32 36 34 32 31 43 39 35 32 38 41 43 45 47 48 51 46 39 39 42 43 42 43 44 45 43 43 44 44 41 40 41 41
20 23 22 23 16 13 14 16 22 26 28 24 13 13 14 13 14 25 45 43 43 43 44 43 35 43 38 42 35 40 50 47 47 46 37 41 34 33 39 44 46 48 41 41 41 43 45 48 51
21 26 27 21 22 9 11 13 18 24 26 26 17 12 15 16 20 18 39 47 44 44 47 42 38 42 45 43 36 33 43 53 48 44 46 52 52 50 47 51 52 54 49 51 52 57 61 65 65
22 27 27 22 24 14 9 13 16 19 23 24 23 15 8 13 24 26 24 48 57 51 48 53 47 42 42 47 47 38 37 38 51 51 44 46 44 45 48 54 59 59 62 63 61 62 66 67 64
24 25 26 21 24 18 8 12 17 18 23 22 24 25 18 10 19 28 29 36 54 58 56 52 51 56 50 47 46 46 46 48 43 50 53 54 57 61 57 59 59 63 65 65 67 70 63 60 56
25 25 26 26 23 20 13 13 14 17 20 21 23 28 25 17 10 24 32 39 53 62 65 59 57 56 59 56 53 51 49 48 51 53 50 53 54 59 62 62 67 62 61 64 63 59 49 51 51
31 21 26 24 23 24 16 16 17 16 20 21 24 24 29 25 19 10 16 25 28 38 40 62 56 58 61 58 60 61 62 55 53 55 57 61 58 57 61 67 63 48 57 52 52 41 46 47 48
37 24 30 27 27 26 19 19 18 14 22 19 20 20 24 29 25 18 11 11 22 25 27 34 41 57 59 61 62 62 57 64 62 63 59 61 65 59 52 51 53 50 44 42 44 44 47 49 51
37 31 32 26 27 30 20 22 18 19 21 17 20 21 21 24 27 23 15 11 11 20 25 24 26 29 28 31 40 49 54 60 65 60 62 59 54 46 39 38 38 40 41 41 46 50 53 53 57
39 33 31 31 22 26 20 25 24 21 19 18 19 20 24 19 22 26 23 14 9 14 22 21 24 23 20 21 25 29 34 38 36 39 36 35 34 38 40 39 40 43 44 49 50 51 53 54 54
44 33 21 30 30 30 27 31 28 22 20 20 15 16 22 24 21 20 23 24 16 8 17 23 25 27 26 25 24 24 28 32 34 35 34 35 36 37 38 42 46 44 47 50 49 49 52 54 53
45 32 35 26 23 23 24 36 34 27 23 21 18 12 18 20 24 25 25 20 20 16 8 14 27 26 27 28 28 27 29 33 32 34 34 36 38 40 46 48 47 43 42 44 46 49 54 53 55
45 42 34 31 30 27 22 28 41 31 28 28 23 18 16 18 23 24 24 23 17 17 16 9 13 26 35 34 32 31 33 36 36 39 38 38 37 39 42 42 42 42 47 49 52 53 52 51 50
47 44 41 40 37 33 31 31 37 36 34 34 30 26 21 21 22 24 21 22 21 17 13 17 13 10 17 25 37 42 41 38 39 38 36 38 37 36 40 44 48 49 50 51 53 55 58 58 54
46 41 41 42 42 42 39 34 41 36 38 38 37 34 31 22 22 21 22 20 21 22 19 18 18 18 13 12 20 26 31 43 47 43 42 42 44 44 45 46 45 48 51 50 52 49 46 44 48

GFSSGP_250_spd_066.txt.gz
Wind_Speed
59 57 55 55 58 59 60 61 60 58 57 58 59 60 60 61 62 63 63 64 68 69 68 71 70 70 70 71 71 72 73 70 68 68 68 67 67 72 71 69 69 63 60 58 60 68 72 73 79
55 54 56 55 57 57 55 53 53 52 54 55 56 57 56 56 57 57 59 61 64 67 68 70 68 66 69 69 69 71 72 71 66 64 66 67 65 66 68 65 62 61 57 62 62 61 61 63 66
54 53 52 51 52 52 53 50 50 50 51 52 54 56 57 58 57 59 61 65 68 69 66 64 63 62 60 63 71 75 73 76 72 69 70 66 63 64 63 59 54 46 44 53 50 54 56 53 59
49 48 48 49 50 50 52 50 48 46 48 49 53 57 55 54 55 59 61 64 65 63 55 54 51 49 48 59 67 69 70 70 67 65 64 66 61 57 57 47 41 41 39 45 48 42 44 45 43
46 43 46 44 46 49 48 44 41 40 40 44 50 53 51 53 54 54 56 55 53 53 43 44 42 41 42 48 59 62 62 70 64 57 58 57 58 49 44 42 35 34 30 29 26 18 15 25 27
43 43 43 43 45 47 41 37 38 38 39 44 50 49 48 48 44 45 48 35 33 34 30 32 33 43 59 55 40 50 50 53 48 46 52 49 50 43 37 32 35 27 32 25 17 9 8 10 12
43 41 39 40 41 40 36 39 39 39 41 46 44 45 41 41 39 35 29 18 19 20 19 28 28 44 46 38 32 34 30 35 37 37 40 43 43 39 33 29 32 28 33 29 23 20 14 7 8
41 39 39 43 44 40 36 41 39 41 44 42 41 45 40 36 29 20 15 10 11 21 26 28 27 36 44 47 43 35 22 18 22 32 39 36 33 35 34 37 33 32 36 34 29 21 20 23 13
42 40 38 42 41 34 34 35 39 40 43 41 41 37 35 26 20 10 10 13 9 20 27 22 22 23 29 33 40 39 34 24 21 25 31 37 39 37 33 34 32 37 33 30 31 30 24 30 27
41 37 38 39 34 28 28 36 38 40 42 40 33 24 24 12 12 10 9 11 4 15 23 27 22 17 25 34 34 36 35 26 21 21 21 28 33 32 33 35 37 33 34 25 28 31 34 36 35
40 35 33 34 30 27 28 33 37 37 40 35 21 20 18 13 14 10 6 10 6 23 23 27 23 30 31 28 34 34 33 25 22 22 21 28 33 36 32 34 36 36 32 35 31 33 38 41 39
39 35 34 32 29 23 27 30 32 35 36 29 18 19 12 12 16 13 8 8 9 25 23 32 30 32 42 37 27 27 25 27 28 32 33 32 30 36 35 33 35 37 36 34 36 37 42 36 38
39 32 33 27 24 20 24 27 30 32 36 26 15 11 8 6 19 18 16 13 15 27 47 41 37 36 34 32 34 33 29 36 26 37 39 38 36 34 33 36 37 40 40 37 35 35 38 40 40
37 30 29 25 19 20 21 26 26 28 32 25 16 14 7 13 17 26 22 12 23 32 42 29 26 32 39 42 38 29 34 34 31 32 38 38 38 39 38 42 42 40 41 36 37 37 42 44 41
35 30 28 22 17 22 22 22 23 23 25 23 16 13 6 14 23 26 28 22 25 29 35 35 26 31 37 36 40 38 36 38 35 36 35 37 37 40 40 43 40 41 41 40 42 47 46 44 38
35 32 27 22 18 20 20 19 18 20 24 24 17 10 9 6 21 27 33 28 31 31 31 33 32 27 34 38 43 37 39 38 41 38 34 35 35 33 35 40 42 44 46 46 42 40 43 42 44
38 33 30 24 20 21 21 15 14 17 21 23 21 12 12 17 19 34 38 35 36 36 33 31 33 38 35 39 41 42 42 42 45 45 44 37 36 37 37 41 42 41 42 41 40 42 43 45 42
37 33 33 24 22 21 21 14 12 17 20 20 20 17 8 19 25 27 45 40 41 42 39 41 34 44 38 39 48 46 44 45 45 49 48 42 41 38 38 38 38 40 45 46 46 47 50 51 51
32 34 34 24 27 23 21 14 12 14 17 18 20 20 14 9 21 32 38 46 49 44 47 49 42 43 34 38 42 47 48 42 38 48 50 48 43 43 42 38 39 44 46 48 50 52 56 57 58
37 35 34 24 27 26 24 22 12 11 16 17 21 22 18 10 10 20 33 33 46 52 52 47 51 44 52 39 39 45 44 38 35 42 39 49 48 41 38 36 40 46 47 51 53 56 61 64 65
39 37 30 27 26 29 26 23 13 12 15 16 18 19 21 18 9 8 20 35 34 52 55 57 53 49 50 48 44 45 41 46 41 42 40 45 51 56 57 54 52 52 57 56 58 60 59 56 54
41 38 28 27 27 29 29 24 20 13 13 15 16 18 21 22 18 8 9 20 33 35 48 56 59 60 56 51 46 49 53 47 49 48 45 42 43 44 49 51 54 57 61 60 59 59 51 47 51
48 34 30 26 28 32 29 26 20 16 16 16 15 18 18 18 21 17 8 7 21 31 33 39 56 57 63 64 62 56 58 55 53 49 55 51 55 51 49 53 58 55 56 63 59 53 49 48 49
46 35 32 31 28 31 30 27 22 23 18 17 14 17 16 19 16 20 19 13 7 20 29 28 31 37 47 60 55 62 63 59 59 59 57 54 55 60 63 59 58 55 53 48 48 47 47 46 49
46 41 40 36 33 37 26 29 29 28 24 19 17 14 16 15 16 21 23 20 13 6 19 27 26 24 27 32 34 40 45 45 55 52 54 50 52 58 52 51 48 45 45 46 47 46 45 48 52
54 52 44 42 37 37 23 27 27 31 28 24 23 16 16 20 17 17 22 22 16 12 4 16 25 23 25 25 23 24 25 28 31 33 36 36 35 33 33 33 34 38 41 44 47 51 51 48 45
56 48 49 43 38 35 37 38 35 31 32 33 27 23 17 18 18 19 22 20 19 14 13 8 11 24 28 28 28 26 24 24 28 32 34 34 34 34 33 33 37 42 45 49 50 49 51 45 47
53 52 46 40 34 34 34 38 38 31 31 36 33 27 23 19 18 18 22 19 16 15 12 11 9 8 21 25 27 31 32 32 32 32 36 35 38 39 42 46 48 49 53 52 51 50 51 50 50
51 50 48 47 44 42 39 41 40 31 30 29 33 33 31 27 21 21 22 20 18 15 14 14 9 9 8 12 28 37 37 35 35 36 38 39 38 39 42 43 46 46 50 50 49 51 50 52 54
52 51 50 50 46 42 39 40 42 40 39 37 32 34 33 32 32 29 25 20 19 19 16 13 15 11 8 7 8 11 19 30 40 46 43 40 45 43 42 42 44 48 48 50 51 53 54 55 53

GFSSGP_250_spd_069.txt.gz
Wind_Speed
53 54 54 52 54 56 60 54 57 53 51 51 52 53 56 60 60 61 62 64 66 66 69 66 73 72 73 72 70 69 69 70 70 69 70 69 67 72 70 68 68 68 67 66 64 64 63 65 67
45 47 49 50 53 56 57 51 53 52 52 51 51 53 54 55 55 56 60 62 62 64 67 68 69 70 69 67 64 63 65 67 68 67 67 63 62 66 65 63 62 61 61 59 59 59 56 58 60
45 43 46 49 50 53 56 51 52 54 53 51 51 51 52 52 55 57 58 59 62 65 65 63 65 66 61 58 57 58 60 65 68 66 65 63 59 62 64 63 63 60 55 53 49 43 49 53 57
43 47 46 49 52 50 53 51 50 51 50 49 47 48 48 50 49 52 54 58 61 59 59 58 55 56 50 46 47 49 50 57 65 63 65 68 64 64 65 63 63 56 49 47 46 47 49 44 48
48 47 52 51 56 51 49 48 46 47 46 44 46 49 49 48 49 51 54 56 56 51 50 47 42 38 33 23 31 25 41 43 52 53 61 62 63 64 63 64 60 53 45 36 36 26 28 20 26
52 49 52 55 58 50 50 45 45 47 45 45 45 46 46 46 49 49 50 46 47 45 40 37 26 35 38 48 29 28 38 56 49 52 47 59 55 55 55 50 52 47 37 40 21 24 19 9 8
51 50 55 58 57 50 49 45 46 45 44 43 42 46 44 43 42 41 38 35 30 33 25 30 33 40 37 47 42 34 56 51 50 47 39 39 42 49 50 38 41 37 33 28 24 26 22 14 8
54 48 52 55 53 52 47 46 44 40 40 42 42 42 44 42 36 33 26 27 21 20 19 18 23 32 37 57 60 59 40 39 38 33 33 38 40 45 45 40 34 32 31 23 28 34 28 24 16
56 54 56 52 53 50 46 43 38 35 37 40 40 42 42 38 31 23 22 22 13 13 15 14 18 24 40 66 73 62 42 35 32 21 23 34 36 35 39 42 35 32 34 25 32 36 34 27 21
59 54 52 50 49 46 43 39 36 34 34 37 39 40 39 34 25 19 16 15 7 6 22 22 17 37 40 62 66 55 52 40 29 23 21 27 34 31 33 30 33 29 28 30 38 37 33 32 31
59 54 47 48 47 45 42 39 38 30 32 37 39 38 35 29 22 21 14 12 7 14 17 27 24 30 46 57 53 47 39 40 36 15 12 11 22 29 27 27 25 28 30 38 37 32 29 29 33
55 52 44 44 45 44 42 35 31 27 32 34 38 35 31 23 20 21 16 11 8 24 24 22 26 27 35 54 56 51 47 42 32 21 17 16 14 19 25 25 31 32 38 39 33 34 26 30 33
53 50 38 40 44 41 38 33 26 26 29 33 35 33 25 21 21 23 17 14 12 28 27 25 22 29 32 38 44 45 45 37 33 26 25 23 21 21 30 27 33 41 38 36 36 30 33 33 39
55 47 42 38 42 38 33 29 21 26 27 29 31 31 23 22 24 24 22 17 8 21 26 29 37 32 32 41 44 44 38 33 29 32 34 34 29 24 30 31 36 34 31 33 34 37 41 40 42
49 46 40 40 40 37 30 25 23 23 22 25 29 29 20 22 24 28 27 17 13 27 27 41 30 30 26 43 41 42 34 35 34 31 34 35 35 30 31 29 30 33 34 37 38 38 35 36 39
49 44 39 41 38 34 28 17 21 22 18 21 26 25 19 20 27 24 30 23 20 28 39 35 33 38 34 41 41 43 36 35 40 30 32 34 34 37 37 35 35 38 40 42 40 41 39 39 38
46 46 42 41 39 31 27 18 22 20 15 17 20 23 20 15 22 30 33 30 27 38 44 36 31 28 25 41 38 46 34 40 36 31 31 29 32 31 30 29 28 32 37 40 41 39 32 37 42
46 47 39 41 40 33 30 20 25 19 13 15 18 22 21 16 19 25 30 38 34 40 40 36 35 32 31 36 42 43 42 42 38 35 36 36 33 33 32 30 30 33 36 37 36 36 38 41 46
48 37 40 44 40 35 30 26 23 16 14 15 16 20 20 18 13 25 31 43 42 47 45 44 36 35 36 36 45 48 44 43 45 43 44 44 40 36 36 35 36 36 38 36 40 39 39 42 46
38 39 43 45 39 34 31 32 23 22 16 13 15 15 21 19 21 12 26 38 48 51 50 45 50 35 33 42 39 43 49 52 46 44 44 49 50 48 43 41 42 38 36 31 35 39 46 49 55
40 43 47 44 36 35 33 36 24 25 19 14 14 14 17 21 21 16 14 30 46 51 58 54 50 51 38 39 48 48 47 46 53 51 47 48 50 50 53 45 42 39 39 44 44 46 50 58 60
41 46 46 44 36 35 34 37 27 25 21 17 14 15 14 17 18 20 15 10 38 46 54 62 55 53 57 48 47 50 43 51 47 43 43 42 41 43 40 45 46 49 52 55 50 52 55 62 64
48 49 45 46 36 35 39 35 30 28 26 19 16 14 14 13 14 15 19 17 11 25 45 50 63 58 55 55 58 52 58 49 46 47 47 42 45 45 47 44 44 44 47 47 49 54 57 63 60
53 46 47 44 37 34 40 35 34 31 28 25 18 16 16 11 11 15 17 18 16 12 17 38 46 56 59 63 63 60 55 60 53 55 53 57 51 49 51 52 52 52 55 57 60 60 59 59 59
51 46 47 44 38 40 38 32 34 29 30 30 26 20 19 16 16 20 18 21 17 15 12 14 27 35 46 53 61 62 68 63 63 65 63 60 53 54 56 57 60 59 59 59 61 62 58 54 49
52 51 51 50 44 48 37 35 33 30 34 34 29 25 23 21 17 19 21 20 16 15 15 10 10 20 30 31 35 41 52 60 53 59 57 58 57 58 55 56 55 57 51 50 49 49 49 46 47
55 49 53 52 47 46 37 42 35 29 34 35 31 29 27 24 20 18 19 22 17 14 16 13 10 9 16 24 26 28 27 30 37 38 35 37 34 36 38 37 37 36 34 34 35 41 45 47 51
56 55 52 50 51 48 44 46 43 39 35 34 34 30 32 29 24 22 18 22 22 14 12 14 11 9 7 12 22 27 29 28 28 28 30 30 29 29 32 32 32 33 37 39 41 43 45 50 51
57 56 51 55 55 52 50 49 47 46 43 42 38 36 35 29 30 28 21 21 22 23 16 13 10 10 8 8 9 15 26 29 28 30 33 35 36 39 39 40 44 47 48 50 52 52 52 53 54
59 58 57 55 59 56 54 52 49 46 41 40 39 36 31 32 26 28 28 27 29 23 25 19 17 14 11 10 9 11 12 16 23 32 39 41 39 38 41 42 45 48 48 49 51 53 56 56 56

GFSSGP_250_spd_072.txt.gz
Wind_Speed
38 39 41 41 44 42 51 50 45 49 48 45 51 52 54 53 52 51 54 60 61 63 68 67 67 69 71 70 69 69 70 70 69 71 70 71 71 70 71 71 71 72 74 74 73 72 72 72 70
36 39 40 36 39 47 48 48 42 42 45 46 47 50 52 52 50 51 53 57 57 57 62 63 65 65 64 64 64 62 61 62 62 63 63 63 65 63 62 60 64 63 62 63 61 62 62 62 60
37 39 41 39 43 47 51 56 42 45 42 46 48 48 48 48 49 49 52 53 56 57 59 63 61 61 59 59 55 53 52 52 54 53 54 55 56 58 58 57 58 60 58 58 57 54 51 52 53
41 41 45 45 45 49 49 53 47 50 42 44 48 49 45 43 47 45 46 49 52 55 57 56 58 55 53 49 45 34 37 39 41 44 42 43 40 45 51 55 57 60 56 58 56 52 49 45 43
44 46 45 43 46 49 52 52 48 47 46 45 46 52 49 43 45 44 46 48 53 53 53 54 53 47 44 37 26 14 21 31 41 36 32 30 35 34 41 52 58 59 58 56 52 51 44 32 31
50 47 48 50 48 50 47 41 49 46 47 49 51 50 48 41 46 44 46 48 48 49 45 47 44 40 30 28 38 40 32 28 36 38 38 37 34 40 42 45 56 58 58 58 51 45 34 30 15
56 55 51 54 53 52 52 38 50 46 48 48 50 46 46 39 45 44 45 42 42 42 37 36 34 28 27 36 53 55 46 39 30 45 41 40 45 46 42 46 48 49 49 46 38 32 28 24 20
59 58 54 57 56 51 56 41 49 44 47 48 47 44 41 39 45 42 39 34 34 30 31 24 26 30 30 46 63 57 61 52 56 38 37 47 48 45 40 38 41 42 41 32 31 30 29 25 23
62 61 59 61 59 55 56 47 47 43 46 47 43 43 38 41 42 39 37 27 23 22 24 21 20 28 38 56 49 51 53 53 62 46 39 39 38 31 37 38 36 39 29 29 28 28 28 29 23
68 67 65 65 59 57 56 52 43 44 45 46 41 36 40 40 39 37 31 20 19 22 19 18 18 21 28 43 47 47 42 48 50 46 43 41 28 28 31 33 37 44 29 29 32 22 28 29 25
75 73 76 65 60 56 53 52 42 44 46 40 35 35 33 38 36 33 29 15 16 15 21 23 19 24 29 44 56 50 56 50 43 36 37 30 25 25 26 27 33 35 35 30 32 26 30 35 29
84 82 71 63 57 53 52 49 43 42 44 36 29 29 34 37 34 28 19 18 19 20 19 27 23 28 36 42 69 59 61 50 43 35 30 27 16 14 14 21 25 32 32 34 32 24 34 36 28
80 61 60 60 54 53 49 46 40 41 37 30 23 25 33 34 32 26 18 22 23 20 23 24 25 39 45 46 60 66 62 54 41 36 31 24 20 15 19 23 29 33 36 35 25 36 37 26 21
60 59 56 57 52 49 47 43 37 40 32 24 21 24 32 31 29 22 19 22 23 19 26 20 29 43 48 57 56 64 51 48 37 34 31 24 19 23 30 28 30 32 30 27 37 35 30 21 27
57 55 53 50 47 45 43 41 35 36 30 19 20 23 26 28 28 18 18 22 24 15 32 29 22 33 45 57 61 64 58 47 44 43 42 29 23 23 22 27 29 29 29 30 39 28 27 28 28
53 49 48 45 46 44 38 42 32 32 25 17 17 18 23 25 26 19 21 28 24 22 24 28 32 29 33 53 62 68 65 60 50 47 39 39 35 31 27 27 25 28 27 33 28 28 27 30 32
50 42 40 44 41 40 38 39 32 31 23 16 16 20 21 22 24 21 18 34 24 23 26 27 44 33 31 26 40 58 66 58 54 51 42 39 38 34 32 29 29 26 27 28 29 33 32 28 31
43 42 42 41 40 37 39 37 31 29 25 16 14 18 14 19 20 19 13 28 31 24 28 42 46 36 36 21 37 43 52 47 44 42 39 33 34 35 34 31 33 33 34 33 28 28 32 33 39
46 46 43 39 38 36 39 37 33 31 27 20 14 16 12 17 19 18 15 19 36 31 35 46 41 39 38 26 41 46 44 42 49 41 43 38 39 37 31 30 29 30 25 30 29 33 40 40 35
47 45 41 37 34 37 42 37 36 30 28 21 16 17 11 15 18 18 12 14 28 40 42 49 42 44 42 33 29 48 49 49 47 42 48 45 39 41 35 35 34 33 32 34 34 37 40 36 39
46 41 38 35 36 39 40 38 38 29 32 26 19 18 16 11 14 17 17 8 15 37 40 54 49 44 51 40 36 40 45 48 52 51 48 46 45 42 43 39 35 34 36 34 38 39 39 40 46
48 36 41 37 39 37 42 38 37 35 33 31 22 19 18 12 12 13 19 17 10 16 49 49 56 56 43 50 42 42 44 50 49 48 47 44 39 44 44 48 50 50 51 51 50 49 46 53 54
37 44 45 41 39 40 41 37 37 34 34 30 25 21 20 16 8 9 15 19 16 10 18 55 57 57 56 45 42 46 44 48 52 53 55 54 51 45 47 46 51 51 53 48 51 47 53 55 57
44 49 44 40 38 39 45 40 36 37 32 29 29 25 21 18 14 12 14 18 20 14 8 14 50 58 61 57 59 52 45 49 56 55 56 59 53 53 50 49 45 44 47 49 54 54 54 58 59
42 49 46 38 37 38 51 41 38 34 30 34 31 31 24 20 18 17 15 17 18 16 15 10 10 41 55 63 62 61 57 56 55 55 57 57 56 58 59 53 51 54 52 55 56 59 60 63 66
46 50 45 39 40 44 52 38 39 32 31 29 36 34 30 26 23 20 17 16 19 14 15 14 12 6 26 44 49 66 66 64 63 61 61 58 56 62 60 59 60 61 62 63 61 64 65 66 70
49 48 45 47 46 48 49 44 38 34 32 35 36 33 32 29 28 22 21 18 17 18 13 13 15 12 9 12 28 36 40 50 57 62 63 68 65 65 65 65 63 69 67 68 66 67 66 58 53
49 50 54 52 47 44 50 46 42 38 37 36 34 30 32 31 29 28 26 20 21 18 16 12 11 11 10 9 9 16 27 30 31 33 33 41 48 51 48 50 47 51 49 45 45 40 38 38 42
52 52 53 51 49 45 50 52 48 44 39 36 35 29 36 31 30 24 25 25 27 18 20 25 18 12 7 9 10 8 9 17 22 23 24 28 31 31 34 38 41 40 40 38 40 40 44 46 46
55 52 52 53 49 48 48 53 54 52 45 41 39 41 40 36 36 35 35 24 29 32 25 24 19 20 17 15 9 9 8 10 12 16 22 28 34 36 35 36 39 45 46 44 48 51 54 54 55

GFSSGP_250_spd_075.txt.gz
Wind_Speed
50 53 53 55 52 52 54 54 55 55 53 50 51 57 55 50 50 54 58 57 57 61 61 61 63 64 67 70 71 70 69 69 68 67 66 67 69 70 71 73 72 74 75 76 77 75 73 71 71
43 45 43 42 42 45 50 47 47 49 51 49 51 50 52 50 46 47 52 54 47 54 59 58 60 60 61 63 64 65 61 57 56 55 54 53 56 57 59 62 64 66 66 66 67 66 65 64 63
46 42 42 40 42 47 46 48 50 53 54 52 48 51 45 46 43 44 46 50 52 49 56 59 59 60 59 58 58 55 52 50 45 44 44 42 44 45 46 52 54 55 55 55 54 55 56 54 53
46 45 45 38 39 45 46 45 42 48 51 46 46 47 43 43 43 50 46 47 50 47 50 58 55 56 53 47 44 42 40 35 31 26 28 32 34 39 37 39 40 42 45 46 46 47 49 47 48
50 49 47 47 49 51 48 47 39 45 56 50 43 41 44 42 46 45 42 47 49 48 50 51 49 47 46 37 26 25 17 13 16 19 25 27 32 32 31 36 38 37 40 44 45 45 48 44 43
56 58 52 52 51 53 54 50 45 38 53 50 45 42 36 41 49 44 43 45 48 48 49 49 42 40 36 27 24 18 18 18 28 21 27 37 33 31 31 31 33 32 33 41 46 46 46 42 37
63 64 61 61 58 61 59 51 46 45 53 46 44 44 38 45 46 44 44 46 47 42 44 42 37 32 31 29 35 40 34 43 45 32 26 41 36 41 40 37 33 32 33 40 46 48 46 34 30
67 62 54 58 61 62 65 56 49 50 52 47 45 43 34 42 43 45 46 46 44 42 35 34 32 27 28 30 42 53 53 55 52 44 42 42 45 43 38 37 38 39 39 38 43 38 34 30 25
72 64 57 63 63 66 67 61 59 55 53 50 44 37 40 46 41 42 43 44 40 36 29 25 23 22 27 28 46 62 63 59 58 50 40 54 47 38 38 36 33 35 39 39 36 31 27 25 29
72 65 62 70 68 72 69 66 65 58 54 51 43 36 35 41 42 41 43 44 38 30 24 19 12 17 19 32 44 65 64 65 63 48 56 47 44 43 39 31 34 38 39 39 33 28 28 30 31
75 61 73 73 77 83 74 70 74 56 52 47 44 35 36 33 38 37 40 41 35 22 17 16 20 22 21 32 46 66 69 64 59 50 61 41 47 47 44 33 30 31 39 33 29 30 31 29 31
76 75 75 79 87 91 81 75 67 52 51 42 39 32 33 28 31 37 41 35 26 22 18 17 25 27 27 35 49 65 60 69 57 51 60 48 37 33 40 38 31 27 27 27 28 30 31 27 32
81 85 88 90 92 80 71 61 54 50 49 35 38 31 31 24 30 33 35 30 20 23 22 21 26 27 28 32 49 65 69 64 51 53 64 54 43 37 29 28 26 23 23 27 31 38 32 28 31
90 88 93 86 71 64 58 48 51 47 44 32 32 28 28 21 27 33 32 24 18 24 24 21 24 30 29 32 46 59 65 63 63 60 53 48 46 33 28 32 27 26 25 36 42 39 37 29 32
92 85 69 63 61 59 59 50 39 47 34 32 25 24 24 17 26 27 29 23 21 24 23 23 20 32 27 35 38 58 58 66 66 61 48 46 46 28 26 21 22 24 28 29 38 46 41 32 33
81 64 61 61 60 58 58 37 41 38 30 30 25 22 19 17 24 27 26 21 24 22 26 24 22 29 27 35 36 51 55 54 58 63 51 35 41 40 31 31 27 27 29 33 38 41 32 34 29
66 64 57 57 53 54 51 36 43 30 29 26 27 23 17 13 18 22 27 20 27 26 25 21 25 27 30 41 38 50 59 57 55 53 51 47 41 36 35 33 28 27 29 31 32 31 29 27 29
66 60 56 49 52 54 42 37 39 29 28 25 27 21 17 10 15 18 24 20 24 28 27 25 26 30 34 36 44 54 56 53 56 53 48 41 38 33 30 25 25 26 31 32 26 29 27 32 31
62 52 46 45 52 49 47 46 36 30 27 26 26 21 13 10 14 16 20 22 14 32 27 27 25 35 37 41 33 43 59 57 56 59 54 41 40 31 34 30 30 33 33 31 28 28 31 31 32
50 45 39 42 45 43 42 40 32 29 28 30 27 23 14 11 12 11 16 19 16 24 34 26 28 40 41 37 28 37 48 47 56 60 61 51 39 35 30 33 37 40 37 31 33 29 31 33 37
38 37 45 48 49 44 43 34 33 31 30 28 29 25 15 14 11 11 14 13 13 14 35 34 33 46 45 35 31 33 41 42 45 44 43 40 40 41 41 37 35 40 33 34 34 38 40 40 40
35 44 50 55 51 39 41 36 32 30 31 29 29 27 17 16 15 9 11 11 11 9 19 39 40 51 48 43 39 33 39 37 39 46 47 50 53 39 44 47 43 43 48 42 36 36 35 37 40
42 45 51 49 41 44 35 31 30 33 33 30 28 32 25 22 17 11 10 12 12 15 12 16 48 48 55 43 48 41 35 42 50 50 48 49 55 60 51 49 53 51 51 50 51 53 53 50 51
50 49 51 48 47 39 30 29 32 33 33 30 29 31 29 23 19 16 11 11 13 14 15 11 21 50 55 52 47 45 42 46 44 45 55 53 57 57 52 52 46 44 46 49 49 50 53 56 55
55 54 53 50 45 29 29 31 36 35 34 30 31 33 31 26 21 17 14 11 14 13 13 12 7 20 57 62 56 54 45 45 51 47 47 53 53 54 56 56 55 54 54 53 57 56 54 54 57
57 55 56 46 42 35 36 31 40 36 36 29 31 36 31 30 28 24 18 15 15 17 11 13 11 7 12 49 65 65 65 54 53 52 50 51 53 57 60 60 62 61 62 63 64 67 66 65 63
52 48 49 46 41 37 31 37 36 35 36 31 34 34 35 32 32 30 25 20 16 16 14 8 11 14 9 7 21 59 62 61 61 61 57 56 54 58 61 62 64 66 68 68 69 66 66 69 71
55 51 47 47 38 37 36 37 36 38 39 35 32 33 30 31 34 34 29 24 23 21 17 17 10 12 14 10 6 9 23 45 60 66 68 66 64 62 63 65 68 69 69 69 70 73 73 72 77
56 52 47 46 41 41 34 35 36 37 39 37 34 33 36 35 34 32 30 25 28 26 23 21 17 19 8 12 11 8 9 11 21 32 42 51 57 58 53 57 62 63 62 62 63 63 57 53 52
59 52 47 47 43 39 34 35 39 39 42 41 39 38 35 33 31 31 30 27 25 22 22 25 27 22 13 14 16 14 11 8 10 13 16 21 27 34 39 41 43 41 41 43 45 46 47 49 48

GFSSGP_250_spd_078.txt.gz
Wind_Speed
53 52 52 54 53 55 56 54 54 55 56 59 60 61 63 59 60 62 56 55 56 59 61 63 65 67 68 67 68 70 72 69 68 68 68 68 68 68 70 73 74 75 76 76 76 76 75 74 73
51 51 51 50 52 55 54 51 49 50 51 52 53 59 59 56 60 59 56 56 53 54 58 59 59 63 65 66 67 65 66 67 65 63 61 56 54 52 53 55 58 62 64 65 66 65 65 65 63
48 49 50 49 51 56 56 52 49 52 51 49 52 54 57 53 57 61 53 57 55 54 56 54 53 55 60 61 63 63 61 58 55 51 47 40 41 43 43 43 44 47 49 50 52 54 52 51 52
49 49 46 44 48 54 53 52 50 47 48 48 48 50 55 55 50 51 52 47 49 49 52 52 48 50 53 52 55 55 50 45 42 37 32 27 28 29 29 29 31 34 37 39 40 39 39 40 43
54 53 51 47 51 58 58 60 58 52 53 52 51 51 48 50 52 51 48 53 47 46 46 47 46 45 46 46 42 40 30 24 27 22 22 22 18 20 22 24 30 31 30 32 31 32 32 35 41
54 54 48 49 53 64 64 63 58 56 54 56 57 51 48 46 49 52 52 48 45 42 45 46 45 42 43 38 30 17 20 18 15 17 17 17 22 20 25 25 30 27 28 28 26 23 24 31 39
57 56 51 52 58 65 72 68 65 59 55 53 59 55 52 49 49 49 49 48 43 42 43 45 44 40 38 32 25 31 33 21 24 35 23 13 16 29 26 28 24 30 29 23 22 22 26 34 43
63 58 52 55 60 62 80 73 67 62 58 56 57 59 55 52 53 47 48 47 43 41 43 44 42 39 32 28 33 35 47 45 51 61 38 31 23 35 32 38 34 30 35 28 27 27 29 39 40
64 60 61 64 66 68 83 73 69 59 58 57 59 60 57 56 53 46 43 42 44 42 41 40 41 34 29 27 35 37 52 56 60 55 41 32 34 39 39 43 38 25 31 33 29 28 34 40 35
66 67 67 71 71 72 79 69 62 63 62 62 71 66 58 53 51 46 42 39 42 44 43 37 34 29 21 23 35 42 54 61 60 54 52 37 39 43 37 44 36 23 19 25 25 27 33 36 30
70 67 71 71 74 74 76 70 71 71 74 73 75 68 59 52 43 43 39 37 43 44 40 34 28 24 23 25 32 43 52 65 56 59 60 56 42 43 48 48 44 36 32 23 25 34 34 30 29
73 75 78 80 80 79 76 78 75 77 80 79 72 58 52 50 38 37 33 36 41 43 37 31 24 21 26 28 33 40 47 60 53 59 60 56 48 44 51 45 44 46 43 30 29 29 31 32 36
79 81 80 81 82 77 81 83 83 85 83 76 58 44 44 37 34 32 32 34 37 38 34 28 22 18 28 28 33 35 35 58 57 61 57 54 52 52 45 43 35 32 34 33 31 25 34 33 36
88 85 82 83 78 79 86 85 90 70 63 63 49 38 35 35 26 29 29 31 34 34 28 29 22 15 28 26 31 29 35 59 65 63 55 56 48 49 42 32 26 19 15 25 25 30 28 31 33
86 84 83 82 83 84 90 84 68 63 58 54 40 32 30 33 22 25 28 28 32 33 27 32 20 19 25 28 28 26 38 60 58 59 48 44 56 48 37 28 25 19 28 26 24 24 28 38 37
89 90 89 89 88 86 92 63 59 59 55 49 33 31 29 27 20 25 23 23 30 29 23 28 22 17 24 28 26 25 39 51 64 62 44 59 52 55 50 38 37 34 33 33 25 28 30 43 40
95 93 89 87 93 95 76 58 58 56 51 43 36 30 27 25 21 20 19 22 29 25 21 28 24 21 23 27 26 26 36 56 61 55 61 62 54 45 43 38 34 29 24 28 29 26 34 43 45
95 92 92 88 91 77 62 49 55 51 41 37 37 31 26 23 21 17 15 21 25 22 20 28 25 20 25 25 23 29 31 56 62 60 59 58 60 50 39 30 28 32 29 29 25 25 36 37 46
91 92 85 83 77 71 55 37 44 44 37 37 35 31 27 24 18 18 13 16 23 18 16 29 29 28 24 28 21 30 34 47 56 63 61 59 59 60 47 37 35 34 35 28 29 29 30 34 42
92 83 79 70 63 62 45 35 38 37 35 39 34 29 27 24 16 11 9 14 17 19 15 24 30 30 22 29 28 36 41 48 53 55 52 56 52 52 41 37 34 34 32 29 32 34 36 30 35
88 83 70 55 57 53 29 40 37 30 38 38 33 27 28 26 18 13 10 11 12 14 17 14 32 29 25 27 31 34 38 50 53 49 54 52 55 54 48 46 44 32 33 33 35 38 39 35 39
64 60 51 50 53 37 32 44 35 39 41 31 34 28 29 29 21 19 12 10 7 12 12 10 25 30 29 26 37 36 37 42 54 53 53 49 53 50 52 53 50 37 34 27 32 38 43 40 40
56 52 48 44 44 27 38 42 45 44 38 33 32 29 30 33 24 21 16 12 7 9 12 11 11 34 35 32 38 39 33 29 42 48 54 49 53 56 56 46 41 41 38 41 42 44 46 50 54
55 47 45 40 33 37 43 48 46 47 41 36 33 31 32 35 28 26 21 14 11 7 10 11 11 8 36 38 45 45 38 33 29 35 40 41 50 57 47 48 48 50 48 47 52 55 54 55 54
49 45 40 33 31 46 48 51 50 49 43 39 37 35 35 37 34 28 25 20 14 8 8 12 10 10 12 42 46 50 47 42 40 36 39 43 45 49 52 50 50 51 55 62 57 52 50 49 52
39 42 37 36 40 53 51 49 49 47 44 39 40 35 32 35 36 33 29 21 17 13 11 10 9 8 8 8 47 51 56 50 51 46 44 44 50 52 56 58 58 62 57 61 58 58 56 56 57
36 40 43 42 48 54 52 48 38 50 37 37 42 38 36 35 39 37 33 25 22 16 11 7 6 7 8 8 7 21 56 58 60 55 52 49 49 53 52 53 57 58 59 61 61 63 64 65 67
38 47 45 47 53 54 55 47 45 45 40 42 42 35 35 35 40 40 36 29 26 21 17 14 12 11 11 12 10 8 7 34 61 59 60 60 57 53 57 59 58 59 60 61 64 65 66 67 71
44 51 50 53 59 49 55 45 49 45 42 40 43 37 34 37 37 36 35 33 30 26 23 22 16 16 13 10 12 12 12 12 12 24 44 60 55 52 59 63 62 64 66 67 70 70 72 73 73
49 56 56 54 60 50 52 48 45 45 39 37 42 40 36 37 36 34 33 32 31 29 23 17 15 15 21 16 12 10 16 19 17 16 16 21 29 37 45 48 50 53 56 58 58 57 57 56 57

GFSSGP_250_spd_081.txt.gz
Wind_Speed
58 58 59 61 59 61 61 57 56 53 53 53 53 54 55 57 59 57 58 58 55 53 55 56 55 54 59 61 62 64 66 68 67 68 68 70 71 73 76 78 76 77 79 80 80 79 79 80 79
59 57 56 55 52 58 58 53 52 50 50 51 52 53 54 56 59 61 60 59 53 50 49 51 52 54 59 61 62 62 64 64 64 64 62 57 60 61 63 65 66 69 66 65 67 67 68 68 70
59 57 55 52 52 57 54 49 47 48 48 48 50 51 53 55 60 63 63 60 59 56 53 48 50 55 57 56 58 59 60 60 60 56 52 47 48 47 48 51 53 54 55 54 52 51 53 54 54
57 53 53 55 55 61 60 54 52 53 49 48 50 54 59 62 63 60 61 63 59 54 53 54 54 51 51 52 53 52 53 50 48 45 42 41 39 34 38 41 43 43 39 38 39 41 42 42 42
58 57 56 52 58 64 61 61 59 55 49 52 54 57 63 63 61 61 62 58 57 53 55 56 53 52 51 51 48 45 43 37 34 31 31 35 30 28 28 25 31 29 24 26 28 32 34 33 32
60 60 58 53 57 63 65 64 62 56 54 54 55 60 60 62 60 60 61 60 57 53 53 54 51 50 50 48 40 35 31 28 25 28 27 27 27 23 16 13 17 21 22 21 24 24 25 26 25
62 63 58 55 56 64 73 68 64 59 58 59 60 61 61 61 59 55 60 60 60 57 54 52 51 48 46 43 37 32 31 29 27 24 26 27 28 30 27 23 21 19 14 21 24 24 22 16 15
63 62 57 57 61 65 76 71 65 61 61 62 63 66 58 61 61 63 61 64 57 52 51 50 50 49 46 38 32 28 33 36 38 27 28 30 27 32 25 22 24 24 21 13 19 22 21 21 21
65 61 58 62 64 64 78 71 70 66 63 66 68 67 59 61 65 68 68 64 59 52 48 49 48 49 43 36 29 26 32 40 46 37 44 40 33 27 30 28 28 30 24 17 18 22 26 25 27
66 62 60 64 65 64 76 73 75 68 65 68 72 64 60 65 69 69 68 65 55 50 48 47 46 49 43 34 27 28 32 46 51 48 47 50 43 35 39 36 33 27 25 22 12 18 23 27 28
66 60 65 67 68 65 70 72 75 71 70 72 76 62 65 70 73 70 66 56 50 47 46 40 45 46 42 30 29 35 41 49 55 55 55 54 46 38 43 38 31 30 24 21 19 23 23 25 27
70 67 71 69 71 71 71 78 78 72 73 76 69 65 69 72 71 63 59 48 44 40 37 39 45 41 36 29 33 38 44 48 50 62 59 52 42 40 43 39 36 36 34 35 33 35 33 29 29
70 76 75 75 76 77 79 79 84 81 82 78 72 71 72 77 67 49 47 42 35 35 36 40 41 39 30 24 34 36 42 46 50 59 60 50 49 46 38 38 39 43 33 34 34 29 32 29 24
80 77 77 78 78 82 85 82 87 83 89 78 73 74 73 67 53 44 39 38 30 32 37 39 37 37 26 21 25 33 33 36 49 51 56 57 54 39 38 36 34 38 31 15 15 23 23 24 24
79 77 78 82 86 87 92 81 87 84 87 81 81 76 67 53 46 43 34 34 30 33 36 35 35 30 27 20 19 30 35 30 34 44 51 54 55 52 39 39 38 33 30 17 18 16 15 19 25
85 85 84 85 86 88 94 78 81 85 86 81 76 70 54 43 42 34 34 29 29 33 32 34 32 25 26 21 19 25 21 21 29 39 50 45 50 53 49 44 42 35 25 28 32 26 27 26 30
89 88 84 82 86 92 96 77 80 87 79 68 57 39 37 42 35 31 30 25 28 30 28 32 27 24 26 20 19 22 19 18 27 43 48 51 50 51 43 44 43 39 40 40 20 21 30 29 26
93 91 88 87 86 89 91 86 71 69 59 43 30 27 35 34 37 29 27 23 27 23 26 27 22 27 22 22 18 20 20 17 30 40 47 46 54 47 44 49 37 36 40 26 25 24 27 23 24
88 93 91 90 93 88 81 70 71 54 39 33 27 30 36 38 32 28 23 26 18 20 26 23 19 28 22 19 19 18 20 19 29 41 47 51 49 47 55 48 39 38 26 24 26 29 30 20 21
87 88 84 90 92 85 77 67 49 44 30 31 27 39 38 37 30 24 22 22 15 19 20 20 16 27 26 21 21 17 20 19 29 39 52 47 51 53 54 44 45 38 29 28 31 31 26 25 25
83 76 84 84 80 76 69 46 31 41 26 29 35 40 38 37 30 24 22 16 13 10 15 17 12 23 28 22 20 22 23 26 25 31 52 56 57 61 60 57 46 39 42 34 33 35 30 27 30
86 86 85 86 80 67 64 25 32 30 28 37 37 40 39 33 32 26 21 17 13 11 11 15 12 13 27 25 20 26 28 33 33 37 45 50 59 54 57 61 55 45 42 40 38 33 34 30 37
85 86 86 85 72 58 46 25 39 26 36 48 46 44 38 33 34 29 25 20 14 14 9 10 12 7 26 28 23 19 30 35 38 36 43 48 50 49 49 51 50 50 45 44 41 35 34 33 32
81 82 83 75 55 43 40 30 35 36 50 54 53 48 43 37 37 33 29 25 18 16 10 8 10 13 7 29 31 28 29 33 35 34 41 46 52 48 51 53 53 50 52 48 45 44 43 45 41
79 79 72 57 45 38 34 37 40 51 58 56 56 53 45 40 42 39 33 27 22 18 13 10 10 9 11 12 31 31 26 38 37 37 36 40 49 48 48 49 53 53 51 51 51 48 47 49 52
79 70 58 48 37 37 29 43 43 60 62 61 55 51 45 40 44 41 35 29 24 22 18 11 8 5 5 6 16 30 27 41 40 35 31 38 44 51 54 61 60 58 59 57 53 50 52 54 57
63 57 45 42 36 34 35 55 60 61 62 62 55 45 44 41 42 41 37 33 28 26 20 14 8 4 4 4 2 8 30 38 47 43 41 38 37 36 41 41 44 48 49 53 56 56 56 56 54
54 48 42 35 37 37 50 60 60 60 60 56 49 44 46 40 39 41 38 37 32 29 23 18 14 11 9 6 6 4 4 14 35 48 53 50 46 47 45 44 46 51 55 55 55 56 58 59 61
48 41 40 33 36 45 58 59 59 58 61 56 49 45 45 46 42 41 40 38 35 33 28 23 20 17 15 14 9 9 6 6 6 11 29 48 55 56 56 54 54 54 56 58 58 61 63 64 64
47 37 37 34 39 47 60 57 59 60 63 54 45 42 46 46 46 39 38 40 40 38 33 31 25 23 18 20 19 13 12 8 9 9 10 10 17 38 55 53 52 51 51 55 58 60 63 64 68

GFSSGP_250_spd_084.txt.gz
Wind_Speed
59 60 61 62 61 62 64 61 60 60 60 61 59 59 60 58 54 56 58 57 56 54 50 50 49 48 50 51 51 52 53 54 54 55 57 59 63 64 65 70 72 75 78 80 82 84 84 83 82
59 60 60 60 58 60 63 62 61 60 59 61 57 55 52 54 55 56 58 59 60 58 57 54 51 50 48 49 47 47 49 49 51 52 53 53 54 55 57 59 61 65 68 70 77 74 74 76 78
60 61 59 57 57 64 64 60 59 60 59 58 53 51 50 54 56 56 59 61 64 63 63 59 54 52 50 49 51 49 47 46 49 49 49 49 47 49 51 50 50 52 55 60 60 60 63 63 62
61 60 59 57 57 65 65 63 60 62 63 57 53 50 54 53 54 58 60 64 68 68 66 61 59 54 48 49 47 43 43 45 45 46 44 42 41 41 45 43 42 39 41 47 50 51 48 50 51
63 62 60 59 60 66 64 61 60 63 62 59 58 57 54 55 59 61 64 65 69 68 67 65 59 56 54 52 48 41 43 42 42 43 34 30 28 31 36 34 33 33 34 37 39 41 42 38 39
63 62 60 59 62 67 68 68 66 61 60 62 59 57 55 57 60 62 68 68 69 65 66 63 61 58 52 49 43 42 40 38 36 36 33 32 31 23 26 26 16 14 18 21 25 24 22 23 26
64 63 59 60 62 67 73 70 67 63 64 64 61 57 57 58 60 62 71 70 65 62 63 65 62 58 50 47 41 40 37 37 38 33 37 39 33 28 29 30 20 11 13 21 21 18 20 17 21
60 60 56 60 64 66 73 69 68 65 65 65 62 59 60 60 61 62 72 70 64 64 64 65 60 58 50 47 42 40 34 32 33 35 38 45 39 36 36 33 27 25 17 21 15 15 19 16 16
61 60 59 62 68 66 70 68 69 66 65 66 64 62 65 64 63 66 70 70 64 64 65 63 59 52 50 46 42 39 30 30 32 37 39 43 42 34 34 36 34 30 23 23 16 12 14 14 16
60 58 59 65 64 63 69 68 71 69 66 66 68 66 66 60 59 69 73 74 67 66 65 58 52 48 47 46 41 37 28 26 37 43 45 48 47 43 42 42 37 32 25 25 20 9 10 13 11
61 56 63 64 69 65 65 70 72 67 64 70 69 70 67 66 69 73 71 69 66 65 61 52 43 45 45 39 38 36 29 36 42 50 51 46 50 43 45 43 35 34 24 22 17 14 13 12 10
62 63 67 67 67 64 66 70 67 67 66 72 72 74 71 69 74 76 66 69 68 65 51 42 38 44 40 36 38 33 29 41 46 50 57 51 48 46 39 43 39 35 26 20 20 22 21 20 25
69 72 73 72 72 73 75 69 69 70 74 78 77 75 74 74 69 66 70 73 65 62 43 37 37 39 35 37 37 30 28 43 51 50 58 58 51 48 45 40 39 33 34 28 31 28 23 25 25
75 72 75 77 75 77 74 71 70 75 83 81 80 77 77 75 73 72 73 67 62 50 36 35 35 36 32 37 35 27 29 42 51 52 53 62 55 52 45 37 39 36 37 35 30 20 14 16 19
73 72 71 75 77 73 77 70 72 81 84 81 82 80 77 77 77 78 70 59 47 40 32 32 32 35 35 37 27 26 25 29 40 49 50 55 63 55 50 38 38 34 31 28 21 14 11 10 11
72 72 73 78 81 82 80 63 78 83 83 83 84 84 80 78 76 62 46 40 32 36 30 28 31 35 38 32 23 24 24 24 30 29 38 48 45 53 47 44 41 35 29 24 27 24 18 19 21
84 81 81 80 81 81 79 74 81 86 89 84 85 81 78 71 51 49 42 22 29 32 27 26 30 34 30 25 23 20 22 23 22 23 27 31 42 49 51 46 35 29 23 25 22 23 25 18 19
78 79 77 78 81 86 84 81 84 87 88 79 73 72 64 54 41 43 20 21 35 28 22 23 34 31 26 20 22 19 24 21 20 20 23 30 39 51 48 47 40 34 32 36 29 31 22 20 29
76 80 78 78 82 86 86 83 83 88 75 71 73 57 46 41 43 26 17 31 32 25 18 28 27 22 22 19 24 19 21 22 20 25 29 39 38 46 45 52 48 39 39 37 39 38 38 27 20
88 82 75 76 79 84 83 84 82 81 79 75 64 43 40 41 39 23 25 36 32 22 18 20 17 18 20 23 20 19 19 20 23 26 35 34 37 38 43 44 46 38 39 37 33 25 23 21 24
86 84 80 80 81 87 87 80 79 77 74 66 56 40 36 43 31 24 37 37 30 19 16 13 12 15 17 25 22 22 18 19 20 31 25 36 39 38 39 42 47 48 34 31 24 23 24 27 30
85 86 86 85 80 83 89 82 74 75 71 54 39 38 40 41 31 34 41 36 26 19 13 12 11 12 10 28 27 17 21 24 24 24 33 35 40 41 46 50 52 52 54 45 35 36 33 29 36
83 84 83 80 82 84 81 82 65 62 49 43 38 41 44 38 37 45 44 34 28 18 14 8 9 9 6 22 26 21 28 29 28 30 35 35 35 44 50 48 54 53 51 51 45 42 37 42 37
78 77 77 77 77 74 73 73 58 56 44 38 41 46 44 45 45 47 41 35 28 20 17 8 7 8 9 13 27 26 31 35 31 37 36 41 46 49 48 46 46 51 54 51 46 45 42 38 35
77 74 76 75 74 68 69 63 51 45 39 38 47 52 52 50 49 49 43 39 30 24 19 12 8 8 9 7 27 30 26 38 38 34 33 41 43 44 49 47 51 55 53 48 50 52 49 44 48
74 72 72 72 68 66 63 47 42 46 30 35 46 46 48 51 54 51 45 37 30 28 21 15 9 5 6 5 9 29 29 26 41 41 39 37 37 49 51 54 52 53 50 52 51 51 56 56 52
72 72 73 71 68 62 51 45 35 45 30 44 50 52 52 53 52 51 44 36 33 30 25 20 13 9 5 1 3 12 30 31 34 38 41 38 39 42 48 52 53 54 52 52 52 53 55 58 58
79 74 72 70 63 53 37 43 34 40 38 53 54 55 56 54 51 51 45 39 36 32 26 25 18 13 10 5 2 2 8 28 32 33 41 40 39 39 36 37 42 47 47 50 47 47 50 53 54
70 70 66 60 53 37 32 37 37 38 47 56 56 57 57 54 51 51 48 43 38 35 31 27 23 17 15 13 11 8 8 8 14 24 43 46 45 42 38 40 41 41 43 45 46 46 49 52 55
56 55 51 47 41 30 31 32 46 43 55 59 59 58 61 59 50 48 49 45 39 36 34 30 29 25 21 20 20 16 11 12 10 11 14 21 33 47 56 54 52 51 52 51 54 56 56 59 60

GFSSGP_250_spd_090.txt.gz
Wind_Speed
70 69 67 66 65 62 67 67 67 66 66 65 63 62 63 62 62 60 58 57 56 54 50 48 49 47 48 51 51 50 50 48 49 51 51 53 56 56 60 61 62 65 67 70 72 75 78 79 78
70 69 67 65 64 64 68 70 69 68 65 66 65 62 63 61 60 58 57 54 55 54 49 48 49 49 50 50 52 52 51 49 47 50 52 51 51 52 54 55 55 61 62 64 66 68 72 73 74
72 69 68 64 64 63 69 70 68 67 65 65 63 64 60 61 58 57 55 52 54 53 49 50 51 53 52 52 53 53 52 50 52 49 50 49 48 47 49 52 49 52 53 53 57 62 64 64 65
78 76 74 67 62 62 67 68 67 66 64 62 62 64 59 60 59 56 55 52 53 55 52 52 53 54 52 54 56 53 52 56 56 49 49 45 45 42 43 44 45 45 48 47 50 51 54 51 52
81 77 73 68 65 64 70 68 67 66 63 62 65 61 60 62 60 58 55 54 55 60 56 54 54 53 54 57 58 55 55 58 61 51 46 43 41 41 39 41 42 40 39 35 38 43 43 43 43
77 75 70 68 66 65 71 71 68 67 65 67 66 61 62 62 60 59 57 54 58 63 61 56 55 56 57 57 56 58 61 61 59 48 43 39 38 37 40 41 40 36 36 32 36 35 36 37 36
65 64 61 62 60 61 70 71 70 70 67 66 65 64 64 62 63 61 57 57 60 63 64 60 57 57 58 60 61 61 63 64 55 43 38 37 32 33 37 34 37 32 38 34 35 32 27 29 31
65 61 55 52 56 57 70 70 69 67 67 64 65 66 65 63 63 62 59 61 61 63 66 62 60 58 58 60 62 64 66 61 49 42 39 40 39 37 35 34 31 31 33 32 23 20 17 20 23
65 58 53 54 57 61 72 71 66 63 65 66 68 67 65 63 62 61 62 63 62 63 66 64 62 58 60 62 65 66 65 56 47 40 37 35 31 30 31 30 29 29 22 26 22 18 16 14 17
65 62 61 62 64 68 71 69 63 62 66 67 68 68 66 62 61 63 64 63 63 65 66 67 66 62 62 64 65 64 61 54 47 37 35 34 34 36 36 40 33 27 30 28 29 27 20 17 19
66 63 67 63 66 67 70 66 66 63 66 68 70 68 62 59 60 62 64 65 65 63 68 70 68 66 65 66 67 67 63 51 41 36 30 33 32 30 37 42 44 42 43 36 35 29 26 22 25
68 64 66 66 67 64 67 68 65 65 67 67 65 62 55 54 59 65 64 64 66 67 72 72 73 68 66 68 68 63 58 47 37 34 30 31 27 31 40 43 49 48 50 47 49 37 29 25 20
70 71 68 65 63 62 63 65 65 62 62 66 63 56 58 61 64 64 62 67 68 69 72 75 73 72 64 64 65 60 49 40 38 32 32 26 33 37 44 46 50 50 50 46 44 39 33 25 24
77 73 71 68 68 66 63 62 62 61 65 65 62 63 66 63 64 65 66 65 68 72 74 76 75 71 64 67 62 52 42 36 36 33 30 26 41 42 50 50 52 51 53 47 43 41 34 28 27
76 77 76 73 72 73 74 68 67 70 73 68 69 68 66 66 66 65 67 67 72 73 76 75 74 70 73 68 49 42 36 34 34 36 29 25 45 47 54 53 54 53 50 51 45 44 35 32 31
75 74 75 72 76 78 78 72 77 74 75 71 72 72 69 67 70 69 68 71 72 76 74 75 72 73 72 59 43 36 33 31 35 35 28 30 44 50 61 59 57 50 47 49 49 42 41 34 33
77 73 73 74 75 75 74 72 73 73 76 75 75 73 71 70 71 70 71 72 72 71 73 72 70 70 60 43 38 36 29 31 34 30 28 30 44 49 64 64 57 50 49 48 48 43 39 31 30
79 78 76 76 74 73 72 70 69 70 73 73 74 71 69 67 70 71 73 71 72 71 73 70 66 57 43 38 34 30 28 32 30 29 29 28 37 44 55 62 58 49 52 46 48 48 32 29 30
82 79 74 73 72 72 69 75 72 71 75 74 71 70 71 71 71 71 71 70 73 72 66 63 54 44 39 33 29 26 30 31 28 28 29 28 34 36 36 51 60 51 51 52 50 44 37 27 31
85 81 77 74 74 71 68 65 66 70 72 73 73 73 71 70 70 69 68 66 72 73 72 53 42 37 34 28 23 27 29 29 27 30 30 32 34 33 36 41 45 56 49 48 43 44 39 33 38
85 82 83 81 79 76 70 63 65 65 71 68 67 66 65 64 66 69 70 76 68 62 52 38 34 33 30 20 23 26 30 28 30 28 33 34 32 35 40 38 48 51 53 53 43 43 37 34 37
83 85 86 82 80 79 75 68 64 65 71 70 71 69 66 67 70 74 77 74 60 50 36 35 33 35 24 20 20 26 31 32 30 27 33 31 28 32 32 38 43 49 52 55 49 46 41 39 39
88 79 81 82 80 76 72 71 72 73 76 76 75 73 73 75 77 76 76 60 48 39 35 33 37 28 25 18 19 25 30 35 30 30 33 32 29 29 28 31 39 39 51 54 53 42 39 40 39
87 84 80 79 81 76 74 71 74 71 74 75 72 71 71 73 74 70 60 50 36 36 36 40 34 27 24 22 14 23 33 30 31 33 34 32 32 38 34 36 42 45 43 47 44 40 41 45 38
90 87 86 83 78 74 75 76 81 80 76 74 74 75 74 72 69 63 58 37 38 42 41 39 32 27 26 23 11 25 33 33 33 30 25 32 39 35 38 35 44 43 42 42 38 42 44 40 43
91 91 91 85 77 80 77 74 80 81 78 77 75 74 70 58 56 58 43 36 40 44 44 38 33 27 26 20 13 20 31 37 34 37 33 33 36 38 35 31 44 47 41 43 47 42 46 48 47
89 90 88 83 79 75 75 78 76 77 73 73 70 55 50 45 52 41 35 37 51 48 45 41 33 28 26 17 13 14 39 38 37 40 38 40 40 31 34 35 34 41 38 45 44 54 58 54 54
80 84 80 84 87 84 79 77 80 76 72 66 55 48 39 43 46 36 34 48 50 50 48 44 35 29 27 16 9 12 39 41 42 37 36 43 35 37 34 34 42 47 46 49 51 52 56 57 58
82 81 87 84 78 75 73 73 72 72 65 56 51 46 42 45 39 35 44 52 52 51 50 44 37 31 28 20 12 9 35 41 47 39 39 43 40 45 42 45 48 48 50 52 52 55 60 59 59
72 71 77 81 75 73 68 65 65 63 63 57 50 44 43 41 36 41 53 54 56 53 52 46 40 34 28 24 17 13 27 39 39 46 40 46 45 47 53 52 51 52 54 59 60 57 59 59 56

GFSSGP_250_spd_093.txt.gz
Wind_Speed
76 74 73 73 72 68 66 68 69 69 69 67 69 68 68 68 68 67 62 60 59 60 55 53 52 52 51 49 50 50 49 49 50 50 48 49 53 55 57 59 61 63 64 65 65 66 68 71 73
78 80 78 76 73 71 67 73 72 71 69 68 68 69 69 69 68 65 63 59 58 60 56 50 49 49 48 50 51 51 52 52 52 52 50 49 51 56 56 54 57 58 60 60 62 62 64 66 69
81 79 78 78 75 70 70 75 72 72 65 70 69 69 70 70 68 65 62 58 56 58 55 48 49 49 50 51 52 52 53 55 54 53 50 48 52 57 55 53 52 52 52 56 56 57 57 61 62
86 85 83 79 73 71 71 77 70 72 65 70 68 67 67 69 68 64 59 56 56 56 54 49 48 51 53 54 53 55 56 56 56 52 50 53 56 56 48 45 45 45 44 46 48 49 51 52 55
78 84 83 80 75 77 75 77 74 77 70 68 64 66 66 66 66 63 59 58 56 57 53 51 50 54 55 56 55 57 58 58 57 56 52 54 54 49 39 42 44 43 42 41 40 40 40 44 46
69 72 72 72 73 80 83 80 81 77 71 70 67 68 68 66 65 62 63 60 59 59 57 55 54 55 58 57 57 58 60 59 57 55 52 52 49 41 38 38 40 39 36 36 37 38 38 35 36
63 68 61 60 64 73 77 76 79 78 72 68 66 68 68 65 66 65 64 64 60 62 60 57 58 58 58 58 58 61 62 58 57 56 54 50 46 43 39 31 33 30 32 27 32 32 31 26 27
56 64 64 59 61 63 66 62 74 74 73 72 66 67 72 64 66 68 64 59 63 62 61 62 61 60 60 59 61 61 60 59 59 57 54 53 45 47 47 41 35 29 26 21 24 22 30 23 28
63 59 56 67 66 63 63 62 69 67 63 61 61 66 68 65 70 68 61 60 63 62 62 65 64 62 60 60 60 60 60 62 61 58 57 56 45 39 39 31 22 17 18 17 15 19 22 20 16
61 61 64 70 71 65 58 68 67 65 61 60 60 63 67 70 69 62 63 65 65 63 63 66 66 64 61 61 61 62 62 64 63 60 59 57 44 39 36 33 25 28 28 25 23 23 24 20 13
64 58 71 68 69 69 61 65 66 64 60 59 60 61 65 62 64 66 65 67 66 62 62 66 67 64 64 65 62 63 64 63 62 62 58 55 42 39 39 36 37 36 33 34 28 27 28 24 19
65 60 64 73 70 67 67 66 65 68 64 65 69 63 64 60 61 64 66 66 61 59 63 64 67 63 64 64 64 67 67 66 66 63 57 51 39 40 43 40 42 37 35 34 34 31 29 28 25
65 66 68 69 72 67 70 65 71 68 68 63 61 65 61 58 63 64 64 62 60 63 64 64 65 68 66 64 68 67 64 67 65 61 55 45 37 38 35 39 43 41 45 39 38 33 31 29 27
75 70 66 67 75 70 70 70 69 67 66 59 63 65 64 64 63 62 62 61 64 65 66 64 67 69 70 71 69 64 65 70 62 57 48 40 37 37 33 37 40 43 49 44 44 46 43 37 32
83 74 70 70 73 76 74 71 68 68 62 55 55 56 57 57 56 61 65 66 68 67 67 65 67 70 73 72 72 67 69 69 60 51 40 36 32 31 35 33 41 40 51 49 52 49 52 41 37
88 81 73 74 76 71 83 68 71 75 72 71 66 61 59 62 67 68 68 69 69 68 69 68 70 74 75 76 66 69 71 64 50 43 38 36 30 32 38 40 45 50 48 52 55 52 50 40 34
87 82 79 77 77 73 75 77 78 74 70 74 72 69 68 70 71 72 72 73 72 72 69 71 72 75 77 68 67 71 66 51 40 36 38 34 30 32 42 47 48 53 53 53 53 50 47 44 36
89 89 83 78 79 76 74 73 78 75 74 74 74 74 74 75 74 72 73 72 71 71 73 73 75 75 72 69 70 62 51 39 35 35 34 26 32 34 46 53 50 56 55 55 56 51 49 48 42
85 87 84 79 85 77 71 71 72 75 74 78 76 75 75 74 71 69 71 70 70 70 70 74 75 73 69 68 63 49 39 31 32 34 28 30 33 35 46 50 52 55 58 59 52 52 51 50 47
79 85 81 82 84 80 72 68 69 69 71 75 74 71 69 67 67 67 67 68 71 73 74 74 76 65 71 64 49 37 30 28 33 30 29 32 33 31 46 44 52 55 58 54 53 51 48 47 43
74 79 82 82 86 78 75 63 72 73 70 71 70 67 66 67 68 70 70 70 67 68 72 73 69 68 75 52 37 29 27 30 28 30 32 29 30 27 33 43 48 47 61 60 47 52 47 47 43
69 78 82 82 84 79 75 66 70 71 71 70 66 63 64 65 65 67 64 65 66 69 70 72 71 75 59 39 29 26 28 29 30 32 28 31 29 29 32 39 45 41 55 61 49 49 49 49 55
66 78 79 81 84 81 71 72 71 72 70 71 67 63 65 61 59 62 64 66 67 69 74 74 71 60 42 33 29 26 27 29 31 29 30 30 32 35 33 34 40 39 48 51 59 52 51 55 47
64 70 79 82 82 77 76 78 75 82 74 72 71 69 64 62 64 66 68 70 73 77 78 73 60 49 36 34 29 28 26 29 31 28 31 30 35 33 28 27 31 34 36 45 47 53 50 47 49
61 66 77 83 81 73 77 76 61 79 76 77 74 69 69 68 68 71 74 76 82 80 70 68 59 40 37 33 31 31 26 29 30 35 32 34 35 31 29 31 26 29 35 36 49 51 56 50 47
58 63 71 78 80 71 70 68 79 80 80 78 75 69 70 70 73 76 81 82 82 75 73 56 40 40 38 32 31 30 28 30 32 37 35 36 35 32 35 26 32 38 36 37 40 55 55 47 44
56 58 64 76 79 81 78 77 77 77 77 78 77 77 76 76 76 78 80 77 77 67 57 42 41 42 37 33 31 28 28 31 34 34 37 34 34 33 43 38 39 36 39 38 36 40 47 47 49
54 59 61 66 78 79 79 78 78 74 74 75 74 69 71 73 75 77 76 71 58 54 45 40 45 45 37 34 30 30 26 35 36 38 37 33 29 26 41 40 36 35 39 42 37 41 43 44 46
57 61 63 63 66 79 80 78 78 80 79 75 74 74 74 73 71 72 67 57 54 44 39 45 49 43 38 33 30 31 29 37 42 40 40 38 35 29 38 33 31 31 41 37 34 42 41 47 50
61 65 66 67 62 67 72 74 79 82 80 74 72 70 69 70 66 60 53 57 39 38 43 51 51 45 38 35 31 29 30 34 45 45 38 39 38 37 39 31 35 34 39 45 45 49 48 49 54

GFSSGP_250_spd_096.txt.gz
Wind_Speed
77 78 79 78 76 72 68 67 71 73 73 66 67 70 70 73 74 72 69 67 61 59 60 55 55 56 55 53 52 51 52 51 51 51 51 50 52 51 51 51 52 56 59 61 61 62 63 63 61
76 77 79 82 76 72 68 71 75 80 77 68 65 73 71 76 73 73 69 66 62 60 61 55 54 52 51 50 51 51 51 51 51 51 50 50 51 49 48 49 53 55 57 58 59 57 57 59 58
50 65 74 78 74 73 75 78 83 86 75 68 68 75 73 75 76 69 68 66 60 59 61 55 53 50 49 47 48 49 52 52 52 52 51 52 53 50 46 47 52 51 47 49 50 51 50 51 51
49 48 45 51 67 74 76 79 84 86 74 68 70 72 70 72 69 69 65 66 62 59 61 56 52 48 48 49 48 50 53 53 52 52 53 54 55 50 44 47 49 48 44 40 40 41 43 44 46
51 50 48 38 39 60 70 80 84 85 78 73 71 71 71 73 67 66 65 62 59 59 61 58 55 52 50 50 51 52 54 54 53 53 54 57 55 47 45 46 45 40 38 37 38 39 39 42 42
55 56 48 46 44 53 62 70 76 79 78 75 70 74 76 72 69 68 63 63 65 64 64 59 58 57 52 53 53 54 54 55 55 53 55 54 53 45 47 46 42 39 34 28 30 35 34 33 36
58 59 54 46 46 48 62 66 66 65 64 69 71 76 79 79 68 64 68 65 65 65 65 61 63 60 52 55 54 55 55 57 53 54 55 56 52 46 50 46 45 37 35 32 31 27 26 28 29
63 62 56 54 54 50 56 63 59 57 53 64 66 70 74 76 64 61 68 66 69 69 69 64 63 61 57 56 57 55 56 57 55 57 57 55 54 45 48 45 38 33 27 26 23 15 13 12 17
70 64 55 56 64 57 58 60 62 57 59 65 64 60 65 64 62 62 67 67 70 67 65 68 64 62 58 58 59 56 58 58 57 58 57 59 55 50 50 43 35 25 24 22 18 17 16 15 18
72 66 57 62 63 64 62 60 60 58 64 63 63 60 59 53 56 60 66 67 65 68 66 67 67 64 62 60 60 57 57 58 60 59 60 61 57 54 53 47 36 33 32 26 29 27 22 20 21
74 67 70 66 67 68 65 61 56 59 63 63 59 57 52 51 51 55 61 68 67 66 61 65 69 68 61 57 59 57 59 60 62 63 64 68 62 59 55 46 35 38 37 31 35 32 25 22 22
72 71 74 72 71 70 67 63 54 57 63 64 58 56 54 54 52 56 60 62 62 57 55 62 68 64 60 58 59 60 62 62 65 67 69 69 62 62 54 45 38 39 42 39 37 29 32 28 29
73 73 75 75 78 75 72 65 58 54 66 64 63 55 55 59 62 58 59 60 61 62 63 63 65 62 61 61 62 62 63 65 68 72 75 70 63 63 55 45 39 41 44 40 42 45 38 33 35
79 80 81 81 80 81 79 67 60 57 66 64 59 58 58 62 63 61 61 58 60 67 65 61 62 61 63 65 66 66 67 66 72 74 79 68 67 59 50 40 41 44 42 42 44 45 37 40 36
81 85 89 88 86 88 85 71 57 66 64 64 63 58 59 59 59 57 59 64 71 68 65 54 62 63 65 69 70 68 72 73 73 78 73 73 68 54 40 37 41 41 43 44 49 45 38 32 32
86 94 94 91 96 90 93 67 70 73 70 62 64 61 59 51 50 49 51 57 59 57 57 58 58 68 68 67 70 73 73 76 79 75 70 70 55 38 31 38 39 39 39 48 52 43 41 40 42
88 98 100 95 94 89 95 76 76 78 71 68 63 60 65 67 59 48 51 51 54 59 62 65 64 69 73 71 73 73 73 74 80 69 69 54 38 28 32 39 34 36 41 39 53 45 48 45 46
91 99 92 84 86 91 87 77 78 80 71 69 70 60 63 68 69 68 65 64 63 69 68 65 66 70 73 71 72 74 75 81 70 71 58 40 28 25 35 37 33 38 43 44 57 47 54 53 52
87 87 83 78 82 88 78 77 77 78 66 64 64 71 69 68 70 65 64 65 66 66 65 69 69 69 67 68 69 74 76 73 67 62 42 31 27 28 40 36 32 40 43 43 48 52 52 53 53
76 78 73 75 75 82 74 73 75 79 60 70 75 73 68 70 69 65 62 62 64 65 64 67 67 62 66 72 75 74 73 68 62 46 32 27 27 32 38 36 34 48 46 43 47 56 49 58 54
70 65 66 67 72 71 69 68 75 79 77 61 74 74 71 69 67 65 65 66 66 66 68 67 65 66 70 78 74 71 68 65 47 35 25 25 30 33 35 36 37 54 51 48 49 55 56 56 53
61 59 61 62 66 62 67 67 78 80 75 71 68 67 61 65 65 66 63 63 62 60 62 62 65 72 71 77 69 70 66 53 34 29 26 28 33 34 34 34 38 56 56 54 48 55 53 57 54
51 57 55 59 61 60 62 64 73 79 76 74 64 65 61 58 58 58 55 57 57 59 62 62 66 75 71 74 67 71 54 39 31 29 30 32 34 34 32 36 39 56 52 49 48 56 50 57 52
49 50 52 53 56 51 59 62 71 75 73 76 60 63 62 55 54 59 60 58 58 60 58 63 75 76 71 71 72 66 53 34 32 32 31 33 33 31 33 31 28 40 45 44 44 47 52 52 50
46 47 45 48 46 45 56 64 66 65 72 67 67 57 55 53 58 60 64 56 61 63 66 67 72 71 70 78 73 57 41 35 34 31 33 34 33 33 32 30 29 29 35 44 39 44 55 56 43
49 45 43 41 41 44 53 59 63 69 66 70 67 64 55 57 63 62 62 63 66 63 63 70 72 77 75 73 63 41 35 38 36 33 31 32 33 33 33 33 28 25 22 37 27 33 47 59 58
43 39 41 43 39 44 49 56 63 65 67 66 70 57 53 56 67 63 67 63 70 64 69 70 73 76 74 64 38 36 38 38 35 34 31 33 32 32 34 32 35 29 25 30 33 28 35 45 49
40 47 43 39 43 47 50 56 64 63 65 68 70 73 66 66 70 78 72 69 70 74 76 75 68 67 61 38 35 36 40 33 31 31 27 35 34 32 37 32 36 30 33 33 33 28 34 38 45
38 44 38 41 44 48 56 55 59 56 73 68 68 62 68 65 65 69 72 72 72 77 70 65 60 56 38 34 36 41 36 32 31 27 32 37 35 33 36 37 39 28 32 36 39 35 37 38 42
41 44 43 44 45 49 59 58 65 71 68 73 68 68 76 75 67 71 71 71 70 71 63 62 59 42 35 39 43 40 35 32 31 27 35 34 35 32 29 28 45 40 35 31 35 37 38 33 36

GFSSGP_250_spd_099.txt.gz
Wind_Speed
64 68 71 73 72 67 64 65 71 75 81 78 74 69 71 79 80 77 68 67 67 65 64 62 60 57 56 54 53 54 52 51 53 52 51 51 50 51 50 51 52 50 49 51 55 57 56 55 53
48 50 49 59 67 69 67 71 75 78 86 76 72 72 71 78 79 76 68 66 66 67 65 62 61 54 54 52 51 49 48 47 48 50 49 50 49 49 49 50 49 46 45 46 49 48 46 44 45
45 44 43 38 33 41 63 73 76 81 84 77 73 72 74 79 79 73 67 66 67 65 63 61 61 53 52 49 47 46 45 45 48 49 49 50 49 49 49 50 49 47 43 45 43 44 41 38 38
46 42 42 36 37 37 38 54 66 83 80 74 73 73 76 81 82 73 70 65 64 62 60 59 62 52 47 49 46 46 46 47 48 49 50 50 49 49 49 48 47 43 44 43 41 37 36 36 34
49 47 43 38 36 41 41 43 56 70 74 75 73 73 76 80 80 72 64 63 60 61 59 59 62 54 50 50 44 47 49 50 51 51 52 50 49 49 51 50 44 41 40 38 33 27 30 34 35
52 54 47 43 43 45 47 51 51 57 58 62 58 62 71 78 75 74 66 63 61 63 61 59 64 61 55 49 50 49 51 49 51 53 52 51 49 51 51 49 44 43 40 37 29 26 32 33 33
62 60 53 48 47 45 54 58 57 57 52 50 53 51 56 65 66 65 64 60 62 63 61 61 64 63 55 51 50 51 49 52 53 53 53 51 52 52 50 50 45 44 40 34 28 25 21 21 15
66 65 60 56 55 53 61 62 61 58 53 52 44 49 54 54 55 52 56 55 60 63 64 62 64 66 58 52 55 54 48 53 55 55 55 52 52 53 51 52 46 41 40 32 27 21 14 17 14
74 68 60 65 63 61 64 59 64 63 52 49 48 45 57 52 46 46 44 52 61 63 61 62 64 66 57 54 57 50 51 53 57 55 54 52 53 53 53 55 52 50 38 32 32 29 24 26 23
73 72 65 70 70 64 64 62 60 67 58 52 51 51 60 52 48 46 49 46 51 62 61 60 64 65 55 53 60 55 50 56 55 55 54 54 53 55 56 58 59 53 37 32 38 34 25 31 32
69 67 69 70 72 71 68 68 66 66 65 59 58 58 58 55 53 48 50 50 45 53 57 62 63 62 62 66 64 58 51 51 52 57 56 56 56 55 60 62 64 59 44 40 43 39 32 37 37
68 67 69 70 74 75 69 68 67 70 66 67 62 61 60 56 52 54 46 48 48 52 53 59 63 64 61 54 54 52 55 52 54 57 59 59 60 59 66 67 69 61 48 39 44 42 39 41 38
73 66 66 69 72 75 75 70 69 70 68 68 65 64 59 57 48 51 50 51 50 54 52 58 61 61 59 53 55 59 51 54 56 58 62 63 65 64 68 74 70 59 51 42 49 48 39 46 43
75 69 66 67 74 78 81 77 81 74 74 69 68 68 62 56 48 51 50 50 50 59 57 59 57 56 55 53 61 54 54 57 59 62 62 65 68 69 70 78 69 58 50 40 53 51 45 41 38
82 73 70 67 73 84 88 89 81 79 83 77 73 68 63 57 52 48 52 48 51 59 55 56 57 53 56 59 54 55 56 59 61 63 67 67 68 71 77 73 66 52 41 38 54 53 49 43 44
84 83 77 69 80 79 93 87 86 91 91 85 78 71 67 59 54 50 50 51 52 59 58 50 53 60 59 55 56 58 59 61 64 66 68 68 68 76 76 66 55 41 33 42 53 55 53 48 45
85 87 83 75 79 85 92 91 91 95 93 83 81 77 68 60 59 56 50 49 48 54 53 43 43 43 53 56 56 60 64 63 65 66 68 69 74 74 66 56 41 32 32 47 50 53 52 50 43
89 90 86 83 71 89 90 85 89 91 95 86 87 81 67 63 63 61 57 56 51 47 39 37 34 40 52 61 59 60 64 65 63 64 68 69 74 69 56 40 31 29 37 43 46 52 53 51 45
91 90 90 82 82 92 89 80 76 84 82 83 82 77 74 68 67 67 60 59 58 53 47 40 46 50 57 64 59 63 63 63 64 67 69 73 68 59 40 32 32 34 38 40 44 46 54 55 48
91 89 85 83 82 89 83 72 70 72 71 70 73 77 82 77 69 64 61 61 57 58 59 57 50 54 57 64 59 61 62 64 64 67 70 64 64 44 33 30 34 37 33 39 39 41 57 57 53
90 88 82 81 78 80 69 64 60 64 63 72 67 69 74 75 67 62 60 55 55 58 57 54 53 53 56 61 61 63 64 62 65 68 67 63 55 35 29 31 36 37 37 38 41 42 47 58 52
87 79 78 67 64 58 66 46 52 56 58 60 64 68 69 69 65 60 53 54 53 54 57 54 52 56 60 61 65 64 60 62 69 71 64 60 44 33 30 33 38 40 38 38 45 45 38 42 57
73 71 67 61 50 47 53 40 47 53 49 54 59 63 65 68 61 54 58 58 55 55 55 52 54 56 59 59 63 59 60 69 70 66 68 53 36 32 31 35 38 38 42 42 42 45 46 46 56
66 61 55 52 42 36 45 37 41 47 48 50 53 56 61 59 55 51 56 59 59 57 56 53 51 53 57 59 63 63 67 70 64 67 61 42 33 32 35 37 38 38 42 44 49 54 56 48 48
59 55 49 40 34 33 42 28 39 45 42 43 51 57 60 54 61 50 46 50 54 45 49 53 52 55 57 58 61 66 65 63 65 68 51 35 34 35 34 34 36 37 37 44 52 54 60 47 41
49 47 42 39 32 35 26 27 39 41 40 33 42 59 61 64 52 54 50 49 49 54 57 58 55 54 55 62 65 60 63 68 67 58 40 35 35 35 33 34 35 33 32 39 52 52 45 46 46
40 36 43 37 31 28 28 31 34 36 39 45 53 50 63 61 59 57 53 57 52 56 57 58 62 60 60 62 59 61 65 68 60 43 34 36 38 35 33 33 36 33 29 30 37 51 47 43 42
36 37 33 31 28 31 31 32 33 36 42 56 60 45 51 59 63 55 51 48 55 55 53 53 52 55 56 62 61 64 65 59 40 38 33 36 38 35 32 36 35 33 29 30 27 38 39 38 32
30 28 26 29 33 39 35 33 31 45 43 53 45 46 47 59 57 53 50 51 57 59 52 55 58 55 58 62 67 68 55 40 37 36 33 39 34 33 35 37 36 35 35 30 26 29 35 33 27
29 33 35 41 42 44 45 45 41 37 62 55 53 62 56 53 61 60 53 57 62 58 56 57 62 62 65 65 67 48 36 36 36 34 36 33 29 32 38 33 37 36 39 33 31 28 33 32 28

GFSSGP_250_spd_102.txt.gz
Wind_Speed
49 48 50 46 57 63 68 66 75 82 81 77 77 76 75 76 79 76 68 68 68 69 69 71 70 68 66 61 59 57 55 54 52 51 52 53 52 51 50 50 49 49 51 50 48 48 48 47 45
38 40 44 43 39 39 46 59 68 81 83 83 82 81 80 79 78 74 68 65 67 68 69 70 70 69 66 59 57 53 51 51 50 49 49 49 48 48 47 46 47 48 46 45 44 44 45 45 44
39 37 37 37 34 36 37 50 52 67 75 81 82 82 86 82 77 74 72 68 66 64 65 65 66 67 66 58 55 51 49 46 47 46 46 45 45 45 45 45 45 45 45 43 41 41 42 42 40
47 44 43 34 33 41 39 43 50 58 56 59 67 78 83 82 80 77 73 71 69 67 63 63 62 64 64 58 52 48 43 45 43 44 45 45 46 45 46 45 45 44 42 40 39 39 39 37 34
48 47 44 41 42 45 44 44 53 57 57 54 52 54 64 70 77 78 77 73 67 63 62 59 59 60 62 58 52 48 43 44 45 47 46 46 42 45 46 45 45 45 45 42 40 40 36 33 35
52 51 47 45 46 50 50 55 54 60 63 59 52 51 54 58 61 67 73 74 69 64 63 62 62 60 62 60 53 50 40 44 47 47 49 47 45 46 45 46 45 46 43 43 41 40 36 37 34
62 62 57 57 49 51 58 63 61 62 62 61 59 52 50 48 48 53 58 62 64 63 63 63 59 58 60 63 56 51 45 45 50 49 50 46 45 46 46 46 43 44 44 46 43 39 33 26 23
64 62 68 71 65 56 64 67 67 68 64 64 67 57 50 48 45 48 54 51 48 48 52 59 57 57 57 62 56 54 49 49 49 50 49 48 48 48 46 45 44 45 44 44 44 41 34 30 28
70 68 69 72 72 70 69 67 72 71 65 68 70 63 57 50 46 47 46 40 41 46 49 54 50 51 54 60 54 51 50 51 53 48 51 51 51 48 47 46 45 47 47 48 50 38 37 37 38
68 71 65 68 67 64 68 70 71 72 69 70 74 66 61 59 49 45 44 42 41 48 51 54 51 53 56 60 53 48 49 50 51 55 56 53 49 49 48 48 48 50 52 56 51 45 37 38 40
76 69 62 65 64 63 58 63 67 70 69 72 73 71 64 63 60 54 46 46 47 49 51 57 53 50 52 55 54 49 49 49 55 58 47 49 46 49 49 50 52 54 56 57 56 57 43 42 42
70 71 64 65 70 69 70 66 63 68 70 74 74 72 68 67 66 59 57 49 53 51 51 53 60 54 52 52 51 49 50 48 47 49 50 47 46 49 52 52 53 57 59 59 61 65 46 42 41
72 73 70 73 76 80 77 65 64 66 72 73 75 74 72 71 69 65 63 53 54 55 51 57 59 51 49 49 47 47 50 51 47 54 49 47 50 52 54 55 56 61 61 62 67 62 51 45 47
77 76 79 77 83 87 83 69 65 59 74 75 77 78 74 71 73 68 58 55 54 57 55 60 55 54 46 47 49 51 51 45 49 52 48 48 52 55 56 58 61 65 65 70 64 55 49 47 49
77 77 77 83 89 85 85 68 63 67 74 78 82 81 80 75 75 68 65 50 52 56 56 54 51 51 46 48 52 53 52 51 55 47 48 52 54 57 59 60 63 67 72 70 58 50 45 46 50
80 84 86 84 86 81 88 81 68 76 75 78 83 86 85 83 78 74 64 56 52 56 56 55 49 51 46 46 51 52 54 55 52 47 51 53 56 57 60 61 66 70 71 61 51 41 38 46 52
91 92 87 71 86 88 93 87 70 77 79 73 78 84 88 87 86 83 74 60 54 56 58 53 51 52 53 47 47 50 52 50 50 49 50 54 56 57 58 62 68 74 65 52 41 30 37 47 52
90 88 85 81 83 97 93 87 82 80 80 77 77 80 87 87 85 82 79 68 57 57 61 54 46 49 49 44 43 46 51 47 47 48 51 54 55 54 58 61 69 67 51 40 30 31 40 48 51
93 95 88 89 92 102 94 89 86 85 81 79 80 81 83 82 84 81 80 70 65 59 62 63 44 42 37 42 44 49 46 44 46 52 54 53 52 55 59 61 65 57 42 31 27 35 41 46 49
104 100 99 97 92 98 93 86 79 80 78 82 78 78 81 73 70 70 82 72 66 61 64 60 47 46 45 43 47 45 41 45 51 54 53 51 53 60 58 63 59 48 36 27 32 37 39 45 49
97 106 100 97 92 94 94 80 73 67 72 73 72 73 67 66 71 69 71 76 65 62 60 62 52 47 45 46 48 47 45 47 50 52 55 55 58 60 58 58 53 41 33 30 35 35 40 47 53
108 105 100 97 93 88 84 69 56 59 60 63 66 60 57 63 66 65 65 66 63 59 57 62 60 56 50 49 55 52 47 47 50 55 57 59 60 57 61 52 49 36 31 34 35 37 43 49 57
101 96 92 92 83 75 60 57 47 53 51 56 55 48 50 51 53 52 55 57 62 59 59 59 57 60 60 60 52 54 48 48 51 60 59 57 59 61 60 52 42 36 34 36 38 31 38 43 54
91 87 83 74 66 51 56 44 48 46 47 44 36 39 40 44 46 45 48 55 63 60 59 59 56 56 52 49 51 52 50 51 58 59 59 59 60 63 60 50 38 36 36 39 38 42 38 43 45
84 75 65 57 54 50 43 41 39 36 32 31 32 36 37 42 45 47 53 60 68 64 62 59 51 49 52 53 53 56 51 53 57 59 57 60 62 61 57 41 37 38 39 39 43 44 43 45 50
71 61 55 50 46 38 36 40 32 26 25 28 30 36 36 38 43 48 54 58 60 60 57 51 52 54 54 56 53 56 52 56 55 56 60 63 60 64 47 36 39 39 38 41 47 47 50 47 55
60 51 46 40 37 31 29 27 28 23 22 28 34 38 38 43 46 54 55 60 53 51 52 50 52 52 46 50 56 51 52 52 54 56 57 56 62 56 37 36 39 36 37 40 43 41 40 48 59
46 39 34 31 28 32 28 28 29 26 33 37 34 38 35 50 52 50 58 58 61 56 54 49 50 50 53 51 50 52 54 55 57 60 59 59 61 41 35 37 36 36 36 37 35 31 36 46 58
32 29 27 26 31 33 36 33 33 37 48 42 47 50 37 53 54 52 57 61 63 49 43 44 49 51 56 55 55 53 55 58 58 57 61 63 49 36 35 34 36 39 36 34 31 32 34 42 48
23 22 27 32 35 37 40 39 38 47 59 51 44 48 47 49 63 57 57 58 54 56 50 51 53 49 49 53 51 48 54 58 57 59 59 49 43 35 35 36 38 37 35 37 34 32 34 36 41

GFSSGP_250_spd_105.txt.gz
Wind_Speed
38 41 46 50 50 50 51 54 69 80 80 83 85 85 85 85 84 80 76 75 74 72 73 75 76 75 74 72 70 68 67 65 64 62 61 60 60 58 54 53 53 53 49 48 48 44 44 47 47
40 40 40 40 39 42 51 61 63 68 69 74 75 81 82 84 87 86 81 79 78 75 73 75 78 80 77 75 71 67 64 64 62 59 57 56 56 54 53 51 50 48 42 43 43 38 40 44 46
45 45 44 41 37 40 43 54 62 71 66 59 62 63 65 68 74 77 79 80 79 78 78 79 79 78 79 74 74 69 65 59 55 53 50 51 50 50 46 46 46 44 42 42 39 37 40 45 46
42 42 44 39 39 43 47 52 52 60 64 65 60 58 54 53 59 66 70 71 77 79 79 77 76 76 74 73 74 68 65 60 53 49 51 49 47 45 44 42 40 41 42 39 37 37 38 42 45
46 48 47 45 45 46 49 52 53 59 63 63 60 60 61 56 55 54 51 54 62 71 75 76 73 72 70 72 74 68 61 56 51 48 48 45 45 43 39 43 41 38 39 37 35 36 38 41 44
44 47 46 48 48 55 55 56 54 59 64 65 62 57 55 54 56 55 52 48 49 53 62 67 68 69 71 69 68 67 61 58 52 50 46 44 45 43 40 40 38 35 38 36 35 36 39 38 43
50 51 49 51 54 55 59 64 62 61 60 63 67 60 54 54 53 51 48 49 51 52 53 57 63 68 69 68 66 66 60 55 49 48 48 45 45 42 41 37 38 38 38 35 35 38 38 42 41
56 52 51 51 55 55 63 65 65 66 67 66 69 65 62 59 56 53 51 50 53 52 52 54 55 58 61 63 63 63 61 52 46 46 50 49 46 44 39 40 42 40 39 40 39 42 43 40 40
60 53 56 52 59 62 66 68 68 67 61 67 69 68 67 62 59 54 55 56 55 53 54 54 52 50 51 49 54 55 58 50 45 46 48 48 46 44 43 48 45 41 43 43 43 42 45 45 43
54 55 58 61 62 64 61 66 62 61 57 60 67 66 66 61 61 57 56 60 61 54 52 51 50 53 53 51 51 51 52 49 47 47 47 46 47 45 49 47 43 40 44 43 45 44 46 48 46
63 58 56 61 65 67 65 68 62 61 61 62 68 67 66 64 59 59 59 63 63 61 54 56 55 56 54 50 50 50 54 53 49 46 45 47 45 48 46 43 42 43 44 46 49 48 50 50 49
55 56 63 65 66 69 71 69 64 69 70 69 73 73 69 65 60 55 60 61 65 63 60 56 58 55 60 58 54 51 51 51 44 43 46 45 46 44 46 45 42 46 47 49 52 54 56 56 53
57 63 69 67 73 71 71 67 66 68 71 78 80 78 67 68 65 60 61 66 68 59 61 59 57 58 62 57 54 51 51 53 45 39 43 46 49 51 51 45 45 47 48 53 55 56 59 61 59
71 67 70 73 70 73 73 70 65 70 80 82 82 80 70 68 70 66 65 65 73 71 64 61 59 63 67 62 56 52 49 49 44 43 46 47 46 51 48 46 47 48 52 55 59 61 64 63 63
68 69 72 74 78 75 79 68 71 83 85 80 78 74 71 71 71 71 68 68 71 74 70 63 63 62 65 66 60 53 50 49 47 47 49 51 51 53 45 46 47 51 55 56 59 65 67 67 57
69 65 69 77 75 75 80 73 80 85 77 75 76 77 75 74 75 73 74 70 73 74 72 69 63 62 63 65 63 55 51 45 46 47 48 50 52 51 49 47 47 53 53 56 61 65 67 56 45
75 73 73 78 78 86 91 80 69 83 86 76 77 78 81 80 76 75 76 74 72 76 73 70 65 60 63 61 65 58 53 40 42 45 49 53 48 46 43 44 49 51 52 55 62 68 59 47 36
86 86 75 76 78 81 83 84 73 79 82 79 83 86 84 83 83 82 75 75 73 74 74 73 69 63 61 57 57 55 50 42 45 50 52 50 41 43 41 45 47 49 53 58 61 64 52 37 24
90 89 81 80 80 83 87 86 86 84 87 89 93 89 88 86 83 87 82 76 75 73 73 73 69 64 59 56 49 53 54 48 45 49 48 42 43 44 44 45 47 49 54 58 62 59 42 29 22
97 97 89 81 84 92 91 84 84 88 94 97 92 88 87 89 89 88 83 80 77 76 70 70 69 66 57 55 58 52 52 47 45 39 37 42 45 44 43 47 48 51 53 56 60 48 35 25 25
98 99 93 90 88 93 96 85 83 84 96 96 89 88 87 78 81 80 79 81 77 67 66 64 67 66 59 58 57 59 48 47 45 41 42 46 45 41 42 47 49 52 54 57 55 41 31 26 31
96 104 99 99 103 97 100 89 78 95 88 86 84 83 63 66 74 75 73 74 68 59 57 53 65 67 61 60 56 55 53 48 45 47 46 43 43 44 45 45 53 52 57 58 53 40 34 27 32
101 104 104 105 103 93 79 89 64 82 67 66 63 54 50 54 59 62 61 63 61 58 53 48 58 66 61 61 60 56 48 45 40 42 43 49 45 45 44 50 53 57 57 59 53 38 35 33 32
107 104 101 94 90 83 80 84 70 64 56 52 45 43 43 42 45 50 51 53 54 56 55 57 60 67 65 65 63 60 55 48 46 47 49 45 44 46 49 54 56 58 59 58 55 39 39 35 33
99 92 87 82 81 76 76 66 63 53 47 41 41 41 35 34 37 40 43 47 51 54 60 64 68 70 65 63 65 62 58 55 55 52 49 46 47 48 54 56 58 60 61 60 47 40 41 41 34
88 85 81 77 69 66 62 56 48 42 37 36 35 36 33 31 33 35 39 44 49 56 64 71 73 65 60 57 60 58 53 51 54 49 49 52 46 51 57 56 60 61 61 58 42 40 42 42 41
73 71 69 61 59 56 51 47 41 33 31 32 31 32 30 31 34 34 38 43 47 55 64 68 66 60 57 56 55 53 54 47 45 44 47 49 51 54 53 58 60 60 62 44 42 40 41 41 46
57 55 57 53 50 45 44 41 34 30 29 30 30 28 31 35 39 39 40 45 49 54 57 59 58 57 53 56 48 47 42 45 45 46 47 49 47 52 57 61 59 59 49 41 42 39 40 42 48
51 49 46 41 36 36 36 34 34 33 35 36 36 34 30 36 43 43 44 47 47 50 52 56 55 55 52 48 50 48 45 43 45 46 45 44 51 56 58 60 57 55 40 42 43 40 40 42 45
44 38 35 35 34 33 34 34 37 41 44 41 41 35 33 38 40 43 45 46 47 51 58 57 53 54 53 56 51 49 53 46 42 40 43 51 54 56 58 61 57 42 38 43 41 40 40 40 38

GFSSGP_250_spd_111.txt.gz
Wind_Speed
41 40 38 38 39 40 45 57 59 51 50 55 58 57 57 60 59 58 56 62 68 73 78 80 81 82 83 82 80 80 79 77 76 75 75 75 73 73 72 71 69 67 65 64 64 62 61 63 60
46 46 45 43 44 46 52 59 56 49 46 49 50 50 51 56 54 55 57 55 57 60 64 70 75 78 81 83 84 83 82 81 78 77 75 75 73 73 72 70 67 64 61 59 59 56 57 57 54
47 46 48 46 45 48 56 62 59 54 52 54 51 51 50 51 50 51 51 53 56 58 57 57 60 65 68 71 72 74 78 80 81 77 75 75 73 70 68 66 63 59 56 56 51 50 50 49 48
48 45 45 45 45 50 55 55 54 52 51 50 46 48 49 47 51 52 52 53 52 52 53 57 59 60 60 60 63 65 66 66 68 70 70 69 67 65 60 59 56 52 50 50 46 43 44 43 40
50 49 43 41 43 49 52 53 51 50 49 47 45 47 51 50 51 53 53 55 55 56 55 56 56 58 59 59 60 61 59 59 58 61 61 62 62 60 57 52 55 50 48 45 41 40 40 40 37
49 49 43 44 48 53 57 54 52 54 51 50 47 50 55 53 56 58 57 56 58 57 57 56 57 58 59 59 60 59 58 57 56 55 55 55 56 53 51 51 51 49 46 45 42 43 40 38 37
52 48 41 40 46 51 58 58 59 58 58 56 51 53 54 53 58 59 59 57 58 59 60 60 60 60 59 58 59 60 57 56 54 54 53 52 51 53 49 46 46 47 45 42 44 43 40 37 36
49 48 48 56 53 55 57 55 58 57 56 51 51 50 51 52 51 54 53 54 55 56 58 62 65 65 64 62 60 60 60 58 55 53 52 51 50 49 49 46 45 44 41 41 42 44 41 40 36
57 51 56 60 60 56 59 57 60 59 56 56 58 53 50 52 52 53 54 55 55 53 54 55 64 68 69 66 64 63 62 59 57 55 52 51 51 48 48 45 42 42 40 43 43 43 38 38 36
59 59 61 61 63 62 56 58 61 57 57 57 58 56 55 53 56 57 59 60 52 52 54 53 55 60 68 69 66 64 64 60 56 53 50 51 51 47 47 46 43 41 41 39 42 37 37 37 34
68 68 69 63 64 63 60 58 57 60 60 62 60 61 55 56 60 63 59 58 63 56 55 56 57 58 60 66 69 66 66 62 58 52 47 46 48 48 45 44 44 46 42 39 38 31 35 35 35
68 69 68 65 65 63 61 57 58 60 63 66 67 63 58 61 64 61 63 61 63 63 62 59 62 59 58 58 62 65 65 62 59 54 47 44 47 46 44 44 44 45 42 41 36 33 36 35 36
67 68 69 68 70 69 68 64 63 61 65 65 65 64 63 67 68 60 61 64 65 71 66 66 63 63 57 57 58 59 62 60 59 56 51 47 46 46 44 42 41 43 44 37 35 35 35 36 38
71 73 73 73 72 67 72 72 67 65 66 68 68 66 70 69 65 63 61 65 66 72 74 72 71 63 56 59 59 59 58 61 58 56 53 48 48 47 47 44 41 40 38 37 35 37 37 39 38
70 71 70 70 74 71 69 69 73 71 73 74 74 74 68 68 71 70 70 66 69 75 79 79 78 68 56 57 64 61 60 58 59 58 56 52 49 45 43 45 44 40 39 35 35 38 35 40 38
76 77 76 75 75 72 71 68 73 76 77 78 77 76 76 73 73 67 72 72 71 77 81 85 83 77 62 55 64 65 64 61 61 61 57 52 51 49 44 41 44 39 38 37 38 36 37 38 36
75 77 79 79 79 80 79 75 80 79 81 79 78 76 76 76 83 82 77 74 74 80 84 83 80 77 71 56 58 66 65 64 61 60 58 52 49 50 46 44 45 42 39 41 33 35 38 36 36
82 82 83 84 87 88 86 78 84 86 86 74 71 69 72 80 87 91 88 85 83 83 84 80 80 80 79 68 53 60 61 62 66 64 64 61 52 50 47 44 44 42 43 38 31 34 37 36 34
83 85 88 88 91 91 89 84 88 95 84 71 76 83 83 81 81 89 95 96 90 82 86 86 84 84 84 77 64 54 58 62 64 68 70 65 57 53 48 45 46 44 43 36 36 38 41 37 35
86 87 88 89 92 94 91 77 69 85 77 86 89 91 84 77 77 77 81 83 87 85 88 91 89 90 86 79 68 56 58 63 64 68 66 66 60 58 52 48 48 45 41 38 40 44 42 40 36
88 88 90 92 91 88 88 72 78 87 88 92 91 90 86 82 77 77 78 81 83 88 90 92 92 93 87 78 68 58 60 56 59 60 64 65 68 64 54 51 46 44 40 39 41 44 40 40 35
100 98 92 95 96 93 98 82 85 91 90 88 89 86 83 83 81 78 80 86 89 92 95 92 87 85 85 79 68 59 57 52 63 67 70 69 67 64 53 51 47 36 39 47 46 41 37 38 36
107 105 102 99 100 98 100 92 74 81 91 92 88 86 86 85 84 84 85 86 88 90 91 89 82 83 87 79 70 62 59 56 71 72 70 65 65 65 52 52 53 47 45 46 43 40 37 39 36
106 104 103 100 100 97 94 93 81 84 86 85 83 83 82 79 80 79 81 78 77 78 77 78 77 77 78 76 69 64 64 65 73 72 68 63 65 62 52 52 50 46 44 43 43 41 38 39 38
97 96 94 94 92 90 92 91 83 78 79 78 70 71 72 70 69 66 65 64 64 65 66 64 63 65 70 70 67 66 68 71 73 71 66 62 61 58 52 52 52 45 43 44 42 39 40 40 40
83 83 85 85 86 84 82 81 77 75 70 69 65 64 58 55 53 52 51 49 49 51 53 54 54 57 60 64 64 66 64 70 69 69 63 61 58 57 53 46 48 40 43 44 41 42 42 43 42
77 79 79 76 76 76 75 75 66 67 62 58 54 48 44 43 41 39 35 36 39 40 43 44 46 47 50 54 58 60 67 67 65 67 64 60 57 52 47 47 44 41 47 44 43 45 41 43 43
69 69 69 69 72 69 66 62 60 55 49 45 43 42 40 35 29 29 30 33 32 35 37 40 41 43 48 49 50 53 62 58 57 60 62 59 51 49 47 50 47 49 46 48 46 44 44 43 46
60 64 65 63 62 56 56 54 49 45 45 42 39 34 29 24 25 28 27 26 28 29 30 33 35 39 43 43 43 46 54 54 51 57 64 54 49 50 52 51 50 51 49 48 47 40 43 45 48
57 56 54 51 51 49 50 48 41 42 38 34 30 25 20 21 26 27 26 20 19 24 24 27 29 33 33 38 47 46 49 50 52 56 58 53 50 47 51 52 55 54 52 47 44 43 46 50 50

GFSSGP_250_spd_114.txt.gz
Wind_Speed
36 38 40 39 41 45 49 54 53 47 48 49 51 51 52 54 53 56 56 58 61 65 69 72 74 78 80 78 78 78 78 79 79 79 80 79 78 78 76 75 73 72 72 70 70 66 66 63 63
36 36 35 38 43 47 52 54 53 50 48 49 51 52 52 51 51 55 54 55 55 57 60 64 66 68 70 69 71 74 76 77 76 75 77 77 78 77 77 77 73 72 70 70 67 63 60 57 58
43 43 43 40 48 49 51 52 55 53 50 49 53 55 56 56 56 60 58 58 58 58 57 57 59 64 67 68 66 66 69 67 61 63 66 64 63 64 64 68 69 69 67 64 60 57 54 54 50
49 47 48 48 49 55 53 52 50 51 50 47 49 52 54 53 54 57 58 59 59 58 59 59 58 59 60 61 63 64 62 63 63 60 55 54 54 55 55 56 59 57 56 56 52 49 49 47 47
55 55 51 53 52 57 54 50 49 48 46 46 49 51 51 51 54 56 55 55 57 58 59 62 62 61 59 62 61 61 60 58 55 55 55 54 54 53 53 53 54 52 53 47 47 48 47 46 44
58 60 57 55 58 59 58 50 43 42 44 45 43 50 55 56 53 54 56 58 57 57 58 59 62 64 63 62 63 63 61 59 56 53 53 53 52 51 51 51 50 50 46 44 47 46 44 44 43
62 64 59 54 52 58 62 52 51 56 54 49 49 49 54 57 59 61 59 58 58 60 63 59 60 63 64 65 64 64 64 63 61 58 53 52 50 49 49 50 51 47 48 46 47 45 41 43 42
62 61 58 59 59 54 57 58 57 59 58 56 54 51 54 52 54 54 55 54 54 52 52 52 54 54 56 57 62 65 66 67 64 61 58 52 50 49 46 47 49 49 46 44 46 44 42 42 45
55 59 63 60 59 57 59 60 61 59 59 59 54 53 54 56 53 55 57 55 54 53 52 53 56 54 51 54 56 64 68 70 67 64 61 56 50 45 44 45 45 47 45 40 42 41 44 46 43
57 56 56 59 60 61 61 64 65 62 62 60 61 58 54 56 59 59 55 53 55 55 57 59 58 58 57 54 55 57 61 70 71 66 64 60 53 46 44 42 42 41 41 40 43 44 46 46 44
53 55 60 65 64 67 70 71 70 67 66 66 63 60 55 54 58 63 63 57 56 57 58 60 61 57 58 57 57 57 59 58 63 69 66 60 55 49 46 43 43 45 45 44 45 47 49 42 40
60 58 56 60 63 67 70 67 67 66 70 66 62 60 59 59 60 62 63 61 57 57 59 59 62 62 60 62 62 61 59 56 58 58 62 63 56 51 47 44 42 46 43 46 45 46 47 45 39
64 62 59 58 65 68 70 71 72 72 71 71 70 68 63 62 61 61 64 64 62 63 63 62 64 65 63 63 66 66 65 61 58 55 56 58 55 53 48 44 41 40 45 42 47 48 47 47 37
65 66 65 63 65 67 69 71 69 73 74 74 73 72 71 70 70 71 66 68 66 70 74 67 66 67 67 66 67 68 69 68 64 54 52 52 52 53 50 43 42 42 41 42 40 46 49 45 37
63 66 65 64 66 69 71 71 71 72 72 71 72 73 73 72 72 72 72 72 73 74 75 66 67 69 66 70 72 76 71 71 64 63 51 53 50 51 51 46 44 44 41 40 43 41 42 41 39
68 67 69 70 71 71 73 76 76 76 74 73 75 76 77 75 76 78 78 77 75 75 77 76 73 71 69 70 73 76 76 74 70 60 58 52 51 53 51 48 44 43 41 40 42 41 42 41 38
70 71 70 71 74 76 74 75 77 76 77 78 79 82 83 84 83 83 83 82 80 77 77 80 80 79 74 73 73 81 82 79 70 57 56 58 56 52 52 49 46 45 43 42 41 41 42 40 35
73 73 77 77 76 78 79 80 84 84 85 86 86 87 88 88 91 90 86 81 79 78 77 81 82 83 84 82 73 77 84 84 74 61 60 58 55 54 52 51 47 43 40 42 43 40 41 39 35
80 76 79 81 81 83 83 83 90 90 92 92 92 92 92 93 90 88 89 89 80 77 82 85 88 89 90 88 86 82 84 86 79 69 59 61 57 62 50 52 52 44 40 41 41 41 43 38 36
87 88 84 82 85 86 86 81 96 95 96 94 94 93 94 94 90 83 82 83 85 85 89 90 91 94 89 87 89 89 88 87 86 79 61 59 61 62 63 54 55 53 43 39 43 44 42 41 44
91 90 90 92 93 89 91 79 95 96 97 98 96 100 99 93 89 88 90 92 93 92 92 93 93 92 94 92 90 88 92 88 86 81 70 67 67 65 60 58 55 56 47 40 43 43 40 44 45
100 99 98 97 97 94 94 91 87 97 99 90 96 94 91 92 93 93 92 94 92 91 91 91 91 93 95 96 93 89 88 93 86 86 80 70 63 65 62 60 56 58 50 44 47 45 41 46 42
103 104 106 108 105 100 96 99 83 96 96 95 97 94 93 93 92 89 89 89 92 90 87 88 88 91 95 94 93 92 88 91 92 87 86 74 64 65 68 58 54 56 51 47 45 40 41 46 44
96 100 104 107 104 99 100 100 90 96 92 90 92 93 91 88 88 87 86 85 86 87 87 89 90 91 91 91 90 90 89 87 92 87 87 82 62 67 70 59 54 56 51 45 46 46 47 49 44
79 81 85 87 93 92 87 89 89 79 84 82 84 85 87 85 79 77 79 78 78 77 77 77 76 77 81 77 79 81 81 78 79 78 82 76 59 66 67 58 56 58 51 46 49 50 54 50 45
68 70 73 73 76 75 73 72 76 75 76 77 80 79 75 70 71 69 67 66 64 63 64 65 65 66 68 68 70 74 73 72 70 72 74 70 63 72 66 61 57 58 49 47 44 49 47 46 42
55 59 62 65 66 67 70 70 70 71 71 69 67 64 63 61 59 58 55 56 56 56 55 53 53 55 56 55 56 60 63 64 67 71 73 72 63 70 63 61 56 55 50 46 44 39 39 44 41
53 53 55 58 60 62 64 65 65 61 57 54 56 57 54 50 48 44 44 43 43 43 41 38 39 41 42 44 46 48 52 54 61 67 67 68 64 65 63 57 55 55 52 48 47 46 41 46 47
48 50 51 54 56 59 57 54 49 46 48 50 49 45 42 37 34 32 28 27 26 25 27 28 29 31 31 31 33 37 40 44 50 54 56 56 66 58 58 54 53 56 56 52 50 49 40 45 51
44 47 50 52 52 48 46 47 47 41 41 41 35 34 31 26 21 16 15 16 15 15 20 21 21 21 23 22 21 22 24 28 36 38 46 51 52 54 56 53 53 51 55 51 49 48 48 53 52

GFSSGP_250_spd_117.txt.gz
Wind_Speed
39 37 37 37 35 37 40 43 42 40 44 46 44 48 48 48 48 52 50 53 56 59 64 67 68 69 69 70 71 71 72 77 76 77 80 79 79 78 77 78 77 77 78 78 78 77 76 73 73
45 43 41 42 45 44 50 41 41 33 34 40 45 50 51 50 53 56 54 55 55 56 55 56 58 58 60 61 63 64 64 67 66 64 69 72 73 73 72 73 70 74 72 70 69 66 65 64 64
45 48 48 45 49 52 55 47 48 40 34 38 40 44 45 45 50 52 54 55 58 58 57 57 59 60 60 60 60 60 59 59 59 61 61 60 61 59 60 59 59 59 61 59 60 58 56 51 51
48 49 50 51 53 56 59 56 54 50 44 42 40 39 36 40 42 48 50 51 52 53 54 54 55 55 56 57 58 57 58 57 56 56 56 54 54 56 54 53 54 54 55 53 52 51 50 45 47
48 47 51 53 56 59 62 63 58 58 52 47 40 39 43 45 42 46 49 51 52 53 55 55 55 57 58 59 59 58 59 59 58 57 56 55 53 51 51 50 51 52 51 52 51 49 45 47 43
58 52 48 51 58 62 66 66 61 60 55 49 42 48 48 45 48 50 50 50 52 55 57 57 57 60 61 61 63 62 62 62 61 61 58 57 56 53 50 47 47 47 49 48 47 48 49 44 43
59 59 50 49 48 58 64 64 62 59 59 55 46 53 52 50 50 52 51 49 47 50 52 53 53 54 54 55 57 56 59 59 61 61 60 58 58 55 52 50 47 45 43 45 46 48 43 45 44
55 54 55 51 49 53 59 61 66 64 63 56 50 54 57 56 55 54 51 53 52 51 52 53 52 52 54 54 54 54 52 53 51 54 57 60 59 59 56 51 48 45 42 42 43 45 44 46 43
52 54 55 50 51 50 55 57 63 60 61 56 53 61 59 61 55 58 57 54 55 55 54 57 57 54 51 52 54 57 57 55 55 55 54 56 61 61 60 56 52 47 44 41 39 39 39 36 35
52 52 58 55 50 49 50 60 67 62 62 63 64 64 62 60 60 61 63 59 56 57 56 58 57 55 54 54 55 56 59 59 54 51 50 51 52 56 62 59 55 52 45 41 37 37 37 35 38
52 57 57 58 57 53 51 53 57 65 63 71 71 68 69 61 63 64 66 63 58 60 60 59 58 54 53 56 54 56 56 61 62 57 51 47 47 54 52 55 58 53 45 41 41 41 40 40 42
56 60 64 59 58 59 57 54 51 61 68 70 70 67 68 65 68 69 68 67 62 61 59 60 58 57 59 59 59 61 58 64 63 61 58 56 47 41 46 48 52 52 47 44 44 43 44 44 42
64 63 68 58 57 64 59 56 56 59 68 70 70 72 72 71 71 73 70 72 69 65 63 63 60 59 60 62 62 66 64 64 65 62 60 60 57 48 44 46 47 51 49 45 44 42 38 42 47
63 65 63 58 61 59 63 57 57 64 68 73 72 73 75 76 75 74 72 72 71 70 67 65 63 62 61 64 68 70 68 68 66 64 62 61 62 61 43 44 44 48 48 47 43 41 40 39 40
69 65 62 65 66 63 62 68 65 63 67 72 77 80 79 79 78 77 73 72 72 72 71 69 69 68 66 65 69 70 70 62 70 67 65 65 62 65 56 45 44 46 47 47 43 40 38 39 40
69 69 69 72 69 70 71 70 73 68 70 77 80 83 82 80 78 76 74 76 78 76 75 72 75 76 74 71 71 72 71 71 69 68 66 67 64 66 68 57 44 46 46 46 45 42 39 40 41
76 76 74 74 74 75 77 75 75 74 73 77 83 83 86 86 82 77 75 78 81 82 83 82 83 83 80 79 76 76 75 74 74 71 69 67 71 69 71 63 48 48 48 49 45 42 42 41 40
80 81 80 76 79 79 78 79 80 82 79 77 87 90 89 90 88 84 86 86 86 88 88 88 86 86 84 82 80 77 75 74 77 75 70 70 68 76 72 61 60 48 50 49 48 47 44 43 38
96 94 92 95 95 89 84 84 84 88 88 86 87 90 93 92 93 92 92 93 93 93 95 95 89 88 85 83 80 79 78 78 77 76 75 76 74 72 69 64 56 57 53 52 51 45 44 44 41
104 104 103 103 102 100 93 89 93 93 91 94 94 96 97 98 99 98 98 100 100 98 96 96 94 90 85 84 85 85 83 85 82 80 84 82 82 80 74 73 64 62 52 54 51 46 43 40 40
109 108 110 113 103 99 97 92 94 96 98 97 96 99 103 105 105 106 104 104 102 98 98 97 97 96 94 94 92 89 90 90 90 86 82 84 83 82 78 76 65 57 53 56 53 51 43 38 36
108 118 116 110 99 99 100 98 88 100 104 107 100 93 103 107 107 106 104 105 105 106 103 99 100 101 104 100 97 98 95 91 88 87 85 84 82 80 77 75 74 64 58 55 59 55 50 41 40
120 116 105 103 101 100 89 110 79 105 103 113 98 99 105 107 105 103 104 104 105 105 106 105 104 101 99 99 100 97 95 90 89 86 85 85 82 81 83 75 74 68 61 56 62 59 54 45 41
110 102 102 99 92 87 84 95 84 94 100 101 100 103 103 103 105 106 106 105 106 107 107 101 96 94 94 95 95 95 93 92 91 87 83 80 81 84 81 81 78 72 62 57 60 61 57 49 42
95 96 90 85 83 72 75 75 86 83 87 96 98 97 98 102 107 104 107 105 101 97 95 91 89 88 91 91 92 92 92 92 90 87 83 82 84 84 77 77 81 77 67 58 60 62 56 50 44
87 75 75 71 68 64 63 62 74 70 74 78 82 84 88 89 91 90 87 82 81 81 83 85 82 80 80 80 78 77 79 79 80 81 84 81 84 85 85 79 77 79 62 57 57 61 53 49 45
75 68 61 56 54 52 54 58 59 59 65 67 70 71 74 77 77 75 72 74 74 71 69 70 69 66 64 62 63 64 66 68 69 68 71 69 74 80 82 86 82 77 61 64 58 60 49 48 47
63 58 53 51 49 51 52 56 59 56 60 62 65 67 67 65 64 64 62 57 54 54 53 51 52 51 50 48 48 50 52 52 53 57 60 60 55 61 69 79 72 71 63 65 59 60 49 49 47
53 54 49 49 49 52 52 55 55 54 53 53 54 55 53 51 48 44 42 40 41 42 43 43 40 39 39 38 39 42 45 42 40 42 45 48 46 52 61 66 62 60 69 63 60 60 57 51 50
48 45 46 48 49 48 46 44 45 39 38 42 44 40 39 35 33 31 31 30 27 23 22 22 21 21 20 21 19 22 27 30 29 28 25 29 38 48 55 52 54 64 61 57 64 60 56 53 53

GFSSGP_250_spd_120.txt.gz
Wind_Speed
39 37 42 48 46 45 43 44 38 32 32 37 29 35 39 42 43 44 43 51 49 48 52 55 55 54 55 58 58 58 60 59 60 59 59 59 60 61 64 65 66 65 64 66 67 69 70 68 69
39 42 42 42 51 50 52 54 44 39 36 41 36 36 36 37 39 45 44 47 49 48 52 53 53 53 54 54 55 56 54 54 55 53 53 52 53 53 53 57 56 56 56 56 56 54 54 53 56
41 42 47 48 46 52 58 62 53 48 44 45 42 40 40 38 38 41 38 38 39 38 41 44 46 48 49 50 51 52 53 53 52 53 52 50 51 50 48 48 50 51 51 53 52 50 50 48 49
46 46 47 47 56 53 53 64 58 57 51 52 52 51 47 46 38 42 39 42 39 42 40 42 41 44 47 48 50 51 52 53 53 51 49 49 51 51 50 49 48 47 48 48 45 45 45 46 46
44 51 43 41 49 56 61 57 57 56 60 55 56 55 57 44 46 45 44 45 44 42 43 43 42 42 44 47 50 51 52 53 55 57 56 54 52 51 51 51 50 50 46 45 44 42 43 42 42
52 44 42 36 40 49 59 63 55 47 54 53 52 52 58 43 44 54 48 47 49 45 46 47 46 46 44 44 46 49 51 49 48 49 48 51 50 51 50 50 50 50 48 46 43 41 40 39 41
51 52 48 41 39 43 50 53 60 51 51 47 47 53 61 54 42 57 54 50 53 52 47 52 52 49 50 46 46 48 51 48 48 48 48 46 45 47 46 49 50 51 50 48 45 42 40 40 38
45 51 56 53 52 48 47 46 47 53 51 47 47 46 57 57 44 52 59 59 58 57 51 51 54 57 55 50 52 49 48 48 49 50 50 46 44 43 44 47 48 50 51 50 48 44 42 39 38
50 46 55 59 62 54 48 45 47 52 54 51 50 54 58 59 46 50 62 67 62 61 54 51 57 60 56 57 52 48 48 47 50 52 51 49 47 43 41 41 44 47 45 49 49 47 42 39 32
52 57 55 59 57 51 52 54 47 48 54 56 55 60 60 60 60 59 63 66 67 62 58 59 61 62 61 58 55 52 50 49 48 52 52 50 46 49 49 45 42 44 47 44 46 47 44 42 38
64 57 59 59 59 61 53 56 46 46 50 54 58 61 59 59 59 63 69 67 69 65 58 66 64 62 60 60 57 56 53 52 50 50 50 51 53 53 53 48 42 42 44 42 43 46 46 42 40
68 67 66 60 69 64 57 56 53 48 49 56 57 56 57 61 64 68 71 71 69 66 60 64 68 66 65 62 58 60 55 53 50 53 53 55 56 58 53 51 47 45 41 40 40 41 46 43 40
80 76 70 69 65 71 69 58 56 54 58 58 58 61 58 59 65 68 68 70 71 67 68 67 73 69 69 65 60 56 60 53 48 54 60 63 58 61 53 54 48 52 49 38 39 40 42 43 41
78 77 73 74 76 74 72 70 68 64 66 58 60 59 60 59 70 70 72 73 73 71 72 70 71 69 68 69 66 59 60 57 54 57 64 62 62 62 55 57 55 53 51 43 40 42 41 43 43
80 79 78 75 79 77 76 76 70 67 65 61 65 64 66 69 67 74 77 76 72 76 76 73 72 74 72 71 68 66 70 63 58 58 68 65 64 62 59 59 57 55 53 49 43 42 43 43 43
84 82 80 83 81 80 78 74 74 73 70 65 67 72 70 73 79 81 77 77 77 80 79 76 72 73 73 73 71 67 66 68 66 63 69 68 70 64 64 59 57 56 55 55 48 43 43 46 45
86 83 85 85 88 84 82 80 78 75 75 74 73 74 79 79 82 82 81 83 85 85 82 81 76 76 76 74 72 71 72 75 75 75 72 71 72 70 70 64 63 57 56 55 52 46 45 47 48
85 87 89 90 96 94 91 92 91 90 88 90 90 85 83 87 88 82 84 88 89 90 88 88 87 85 86 86 86 83 85 87 84 80 77 73 72 71 67 68 68 63 53 57 56 50 47 48 50
91 93 89 91 96 105 97 94 92 96 97 97 97 97 100 95 91 88 93 93 93 94 95 94 92 88 86 86 87 88 88 87 87 82 77 73 69 73 73 72 69 67 59 54 57 57 48 51 50
97 100 98 96 103 108 107 107 97 102 104 105 103 106 108 105 96 94 97 96 99 100 97 97 95 94 90 88 88 90 92 91 89 87 79 75 72 72 75 74 70 69 64 64 61 60 59 47 49
99 104 105 108 107 109 111 109 109 115 114 114 115 110 103 99 96 100 102 103 104 106 105 104 102 102 99 99 100 101 100 97 91 85 79 83 79 76 78 78 78 78 74 69 67 61 66 52 50
100 108 111 113 114 113 109 117 120 110 104 110 119 96 88 94 99 101 103 105 108 108 109 109 109 109 109 107 105 105 101 99 98 99 92 90 89 83 81 79 77 78 75 68 62 65 62 52 51
114 118 118 118 115 121 109 121 107 97 99 99 96 94 92 95 97 99 102 104 109 110 109 108 108 108 109 108 107 105 104 101 99 98 98 95 92 90 80 80 80 79 72 66 60 70 58 56 54
120 123 121 117 112 107 100 103 97 98 92 88 82 83 87 89 90 92 97 100 106 111 112 111 110 111 110 110 109 108 106 106 106 105 100 93 87 86 82 78 78 73 71 57 50 84 70 63 54
123 119 113 102 101 97 95 95 95 84 73 74 73 71 76 76 81 81 88 95 100 104 106 108 107 105 103 103 104 109 106 102 95 88 85 86 85 83 83 73 73 71 68 73 73 68 64 66 60
113 113 101 99 96 90 85 77 83 69 58 63 68 66 67 70 71 76 81 83 88 92 97 99 98 97 100 99 95 92 87 84 84 86 85 83 82 81 81 78 66 70 67 69 73 79 71 75 58
111 106 102 97 87 79 71 67 70 57 54 55 56 58 62 64 63 64 65 69 72 73 75 76 79 81 80 79 79 78 77 74 72 74 74 73 74 73 74 75 62 64 68 73 75 71 71 72 66
101 96 89 82 71 67 62 60 60 54 53 53 52 54 56 57 56 54 54 56 57 59 61 63 65 67 66 64 62 61 60 59 59 60 59 54 53 52 60 62 54 43 57 76 74 79 65 64 57
85 78 72 67 62 57 53 53 56 54 49 47 48 48 50 50 49 50 52 51 48 48 48 48 48 48 47 46 43 42 43 44 46 47 46 44 44 43 46 53 54 58 69 79 91 83 77 58 58
64 64 60 54 53 51 50 50 52 49 43 41 42 43 42 39 39 38 34 33 32 32 33 33 33 32 31 28 27 28 32 37 42 35 30 32 37 36 44 59 60 59 66 79 91 83 73 64 57

GFSSGP_250_spd_123.txt.gz
Wind_Speed
26 23 28 45 38 42 45 50 45 40 40 46 39 35 35 31 27 28 31 34 35 42 47 49 49 49 49 49 50 50 50 50 50 51 52 52 53 55 55 55 54 54 56 53 51 48 49 51 48
38 41 47 48 48 44 51 50 41 45 44 52 46 44 41 35 31 33 37 35 31 35 38 38 39 41 42 45 46 47 48 49 50 51 51 50 50 50 49 50 51 50 49 48 47 46 45 45 45
45 46 46 47 44 51 52 44 43 43 45 49 50 50 45 39 41 45 45 39 35 33 36 34 37 38 38 38 37 38 42 44 45 45 46 47 46 46 45 47 48 48 48 46 46 44 42 43 43
52 53 49 49 52 47 51 45 43 39 37 42 47 50 49 41 46 52 53 43 37 37 39 37 35 35 39 39 41 41 41 40 39 42 42 43 41 41 43 44 45 45 46 47 46 44 43 40 41
50 54 55 56 55 47 46 49 47 44 40 45 43 47 43 39 44 52 54 50 43 42 44 40 38 40 41 40 40 40 41 40 40 41 42 42 40 40 40 41 41 42 42 44 44 45 43 41 40
49 52 58 61 50 50 43 42 49 47 43 48 50 46 43 38 39 46 53 51 49 47 46 46 43 44 45 44 40 41 43 43 41 40 40 40 39 38 38 39 39 39 40 42 42 43 43 42 40
48 49 58 44 45 41 47 51 49 48 46 39 45 49 46 43 33 43 52 57 53 52 52 52 49 49 50 47 40 41 47 44 42 40 42 42 39 37 38 35 34 39 41 40 41 37 41 42 40
56 49 52 52 45 47 49 58 50 49 50 46 46 43 46 47 41 35 51 62 55 49 54 53 54 56 56 49 41 45 50 47 45 42 43 43 41 39 35 35 37 40 38 42 42 40 35 38 41
55 56 50 55 62 56 60 58 61 53 56 57 54 47 42 47 47 46 49 59 56 54 48 56 56 56 59 58 47 49 50 48 46 46 45 44 39 40 33 33 38 41 44 41 40 42 38 36 37
57 53 53 59 58 62 64 67 65 63 61 55 53 49 37 40 44 50 58 62 56 56 61 52 55 57 59 62 56 52 50 58 54 50 47 45 44 41 37 33 39 44 42 46 44 40 41 38 34
62 57 57 68 63 65 63 65 67 65 62 63 57 53 51 49 43 49 57 62 66 60 58 56 55 55 59 61 59 55 57 57 55 53 49 46 48 43 43 42 40 42 45 47 41 40 42 37 36
63 66 68 69 65 62 61 61 66 65 67 70 65 60 59 54 51 46 49 56 60 63 63 58 57 58 64 56 61 59 58 60 59 54 49 52 50 51 42 46 47 46 44 48 45 48 42 38 36
68 66 58 59 64 65 61 64 65 66 68 67 66 67 67 60 54 51 47 51 57 57 53 56 63 65 62 61 56 61 66 63 59 56 56 53 52 54 48 47 50 50 49 47 50 50 47 37 36
70 61 65 70 69 68 65 66 68 72 71 66 64 64 68 71 67 59 54 52 55 57 55 60 64 67 67 63 60 61 60 61 62 62 59 49 45 55 55 49 52 55 55 50 51 50 44 41 39
70 67 69 73 70 69 72 72 70 75 74 73 72 70 69 71 70 67 57 55 52 63 67 68 68 71 74 73 69 62 60 58 60 58 55 54 54 59 63 56 58 61 58 53 53 49 52 48 38
67 74 74 74 78 77 77 74 76 76 77 78 77 75 77 81 76 72 72 65 62 61 70 72 74 73 74 76 75 73 67 59 65 58 57 58 56 61 67 67 68 64 60 55 51 51 51 49 39
78 77 72 76 86 81 80 77 81 84 84 83 83 83 86 95 87 81 76 76 72 68 75 80 76 79 78 79 79 78 76 72 65 66 64 59 53 62 71 73 76 71 60 56 53 52 53 49 48
75 77 76 82 88 86 86 84 83 86 86 89 93 98 97 102 92 88 88 84 82 81 82 80 80 80 84 82 80 78 78 74 75 74 72 72 67 59 57 73 70 68 66 64 61 53 53 49 49
84 88 87 84 87 89 87 84 87 91 93 98 103 106 108 108 101 93 89 93 99 98 91 91 87 81 87 89 83 83 81 82 82 82 79 76 73 71 77 79 62 63 72 74 70 60 52 56 56
84 86 87 88 93 95 87 85 92 93 100 109 109 114 114 110 107 103 103 102 106 103 101 97 95 91 89 93 95 92 92 90 87 85 83 80 78 79 77 75 52 71 73 72 73 65 60 57 56
90 92 93 93 95 94 97 95 99 97 108 119 118 114 113 110 110 108 107 101 95 94 101 101 100 97 94 95 98 98 94 91 89 87 85 82 79 76 79 76 69 78 76 70 76 67 63 62 54
91 98 99 100 100 101 102 110 103 105 112 118 111 110 111 105 105 107 101 93 92 92 92 99 102 100 96 98 100 102 102 100 99 95 91 89 86 86 86 77 75 70 72 73 73 68 61 55 54
98 103 101 100 101 107 92 119 114 112 117 107 99 98 97 96 95 98 92 86 85 83 88 90 93 95 96 99 101 103 101 102 100 100 98 95 96 94 93 88 83 78 75 72 67 72 57 46 47
101 107 114 114 116 114 113 119 116 114 102 95 94 95 93 89 86 85 82 76 76 74 76 81 85 87 88 93 97 100 103 104 102 103 102 100 98 97 92 92 86 84 84 77 73 65 44 37 52
114 117 117 120 123 118 118 123 117 102 93 93 89 90 86 81 75 75 73 68 65 66 65 67 70 76 81 84 90 95 99 103 104 104 104 101 100 97 97 97 95 91 85 80 76 70 41 37 68
117 123 127 126 112 112 118 106 106 92 93 87 79 73 71 67 64 60 57 55 53 55 56 57 59 62 67 72 78 85 88 93 100 107 108 106 105 101 99 97 98 92 74 65 63 64 58 62 78
123 118 116 113 106 104 93 97 93 87 78 74 68 61 58 54 52 51 49 45 43 44 47 50 51 54 58 61 66 71 75 78 84 91 95 96 96 94 89 85 79 77 72 63 59 64 58 67 69
101 101 102 108 98 90 86 85 81 70 63 57 54 51 49 49 46 46 46 46 44 41 41 42 45 45 47 50 51 54 56 58 61 65 70 73 76 77 78 78 74 71 71 63 64 57 58 57 62
94 93 90 94 94 84 73 64 63 59 51 46 45 43 45 44 44 45 43 43 39 36 34 35 36 37 40 41 43 45 46 47 49 52 53 56 59 60 61 64 63 64 67 62 67 62 56 51 58
93 89 89 80 71 68 63 52 50 48 45 42 40 40 38 41 41 40 38 34 28 26 26 26 26 25 25 25 25 26 29 34 37 40 42 41 41 42 46 48 56 59 63 56 76 67 54 51 65

GFSSGP_250_spd_126.txt.gz
Wind_Speed
34 37 30 34 40 38 34 34 31 34 40 34 41 40 40 37 35 33 38 41 36 35 34 28 29 31 33 35 34 39 41 41 44 48 50 51 52 53 56 54 54 55 56 53 53 54 54 51 49
32 35 32 46 51 49 38 34 34 41 39 36 39 38 35 38 41 36 39 44 39 41 42 36 33 29 29 32 32 33 33 32 33 35 37 41 44 45 45 47 48 50 52 53 53 53 53 49 47
36 31 41 47 50 50 40 42 42 36 33 29 34 38 36 35 42 43 41 41 45 41 39 39 38 35 33 31 29 29 29 31 33 33 35 34 32 33 35 37 39 41 44 47 49 49 49 49 51
42 32 38 44 51 53 50 47 40 33 28 40 43 41 38 38 39 45 45 45 41 46 46 40 39 40 39 35 31 32 32 31 31 32 38 38 38 37 36 35 35 37 37 39 40 42 47 47 47
41 44 41 40 47 47 46 34 38 28 37 42 47 43 39 41 41 44 46 47 42 42 44 42 40 42 43 38 35 35 38 32 30 33 36 37 38 37 34 32 32 31 32 34 37 36 41 42 43
38 45 52 49 47 48 45 40 35 41 43 50 43 42 44 40 40 42 48 50 52 44 44 43 42 41 44 44 40 39 42 40 34 31 36 38 37 37 36 34 31 29 25 29 34 34 36 37 40
37 43 50 48 48 51 49 38 43 46 46 50 49 47 49 51 43 35 51 55 56 47 44 44 44 40 42 46 44 46 46 46 36 36 36 37 39 39 36 38 33 31 23 29 33 36 36 35 35
41 43 48 48 47 53 50 45 44 48 55 53 52 52 48 45 43 37 45 56 59 58 49 48 45 43 42 42 43 41 43 46 44 42 38 42 43 43 40 38 35 30 30 35 35 38 38 41 37
46 49 53 52 49 56 60 52 49 53 57 56 55 55 55 52 48 43 41 54 58 57 56 55 54 51 44 49 51 45 42 43 46 48 40 48 45 44 42 38 38 35 35 33 36 38 43 42 38
50 50 53 56 57 61 58 54 59 59 61 58 53 57 58 54 53 49 45 45 51 55 56 60 60 58 57 52 50 49 48 45 47 50 47 47 47 48 44 41 42 39 39 32 36 39 44 44 44
49 52 51 54 56 62 63 59 59 59 55 56 57 56 59 59 60 57 52 47 45 39 39 49 60 59 60 60 58 55 49 47 46 48 49 47 51 51 46 46 44 41 42 39 36 37 44 45 47
57 57 56 56 55 56 58 61 56 58 62 64 61 64 63 62 59 59 55 50 47 47 42 42 51 53 51 55 61 60 58 52 49 51 49 50 51 50 51 48 48 43 45 44 40 40 49 50 48
59 59 58 57 60 58 59 61 58 63 68 65 63 67 69 71 66 62 59 56 53 51 50 46 42 53 52 52 51 50 54 56 54 51 48 44 44 45 46 52 52 53 50 47 46 45 47 48 44
63 61 58 60 61 61 63 67 67 69 67 67 72 73 75 72 67 68 63 59 59 56 57 54 51 54 55 56 57 52 51 53 52 48 45 43 46 49 51 49 49 47 49 50 51 51 51 49 46
69 62 64 66 66 65 67 59 70 72 80 76 78 81 79 75 72 72 71 65 65 65 62 63 62 62 63 59 60 64 55 50 50 56 50 40 38 42 62 55 45 54 54 51 58 55 53 47 48
64 61 64 70 68 68 65 64 75 80 81 78 79 81 81 81 79 74 71 72 73 74 72 76 77 74 69 70 67 62 67 61 53 48 51 42 37 53 52 60 51 53 51 58 61 57 59 49 52
64 62 68 71 69 65 68 70 73 75 76 81 84 87 86 84 81 76 76 79 80 81 81 83 86 83 79 75 75 72 64 65 65 61 53 48 50 56 53 48 61 59 62 55 66 61 62 52 51
66 66 69 73 72 72 69 70 77 86 85 90 91 93 95 91 82 77 83 85 92 92 94 97 98 96 93 87 80 78 76 70 68 66 68 66 63 58 28 38 50 65 59 56 66 63 71 67 51
73 74 76 79 80 83 88 88 91 91 93 94 96 97 96 96 95 95 99 100 101 101 107 105 102 100 99 96 92 86 85 80 76 74 73 69 69 62 55 60 74 52 50 60 67 63 62 62 54
83 82 84 87 89 85 82 82 89 95 99 98 99 98 95 96 100 106 103 104 108 109 109 105 103 103 100 97 99 94 90 90 86 82 77 78 72 69 67 59 67 67 60 60 49 58 62 54 47
89 90 88 88 86 88 88 85 88 96 101 103 102 102 108 111 114 113 112 111 114 111 107 99 95 95 97 97 97 98 95 96 98 91 85 82 83 81 76 78 76 60 63 48 57 62 69 65 57
87 92 94 95 97 96 97 98 93 101 106 103 108 110 116 119 120 114 112 115 112 103 94 91 90 89 90 90 89 92 91 94 97 99 91 87 88 87 86 83 78 73 75 74 73 72 75 64 55
96 96 96 96 97 98 98 112 97 107 110 112 116 122 126 124 118 108 109 106 100 91 87 83 81 80 80 82 81 79 84 88 95 99 97 93 91 92 93 89 88 83 82 81 78 77 73 61 61
101 100 100 100 100 98 103 113 106 109 113 118 122 125 126 115 104 97 93 93 93 84 76 70 66 64 64 67 75 75 76 80 89 98 97 97 95 96 95 97 95 93 90 89 83 75 72 67 56
107 107 109 107 107 106 109 115 115 109 107 106 101 102 99 92 89 90 87 81 76 70 64 58 53 52 52 54 59 65 67 73 80 87 93 97 95 99 98 98 96 94 93 90 87 78 72 71 46
111 112 115 116 113 109 111 107 96 90 92 95 93 91 86 81 80 75 71 67 62 58 52 48 45 45 43 44 48 51 55 60 69 75 79 85 90 97 102 102 99 97 96 93 89 79 74 70 65
115 116 117 119 112 109 92 91 88 88 90 89 88 83 76 69 64 60 56 50 49 49 46 42 39 39 39 38 40 41 44 48 55 64 71 74 78 86 93 100 104 104 104 99 94 85 77 66 59
119 115 114 109 101 96 91 84 85 85 84 81 71 67 63 58 52 47 43 42 42 42 40 38 39 36 36 35 35 35 35 39 46 53 62 69 74 79 84 89 93 95 95 97 96 90 83 76 73
115 107 104 105 103 97 86 81 82 80 75 65 58 54 47 43 43 43 41 37 37 33 32 34 35 34 32 30 31 32 32 33 36 43 51 59 65 70 76 79 82 84 85 89 88 82 84 80 79
106 107 105 101 91 87 83 76 78 70 62 54 46 41 40 40 41 40 37 36 33 32 30 30 26 24 21 21 22 25 27 29 31 35 41 46 52 55 59 64 66 69 72 75 77 78 75 77 76

GFSSGP_250_spd_129.txt.gz
Wind_Speed
26 29 30 36 40 32 34 34 22 24 33 36 36 34 32 30 30 33 38 43 43 45 46 40 34 32 34 33 30 31 32 33 36 38 35 33 34 34 36 40 43 47 49 51 50 51 52 53 54
33 33 35 35 34 33 35 26 29 28 33 38 30 30 30 34 38 39 38 40 45 45 45 44 42 38 35 33 32 31 30 29 25 24 25 23 25 28 30 33 34 36 38 42 42 43 43 46 47
40 36 40 35 36 34 29 26 27 24 31 35 30 29 38 41 39 39 39 41 42 45 45 45 44 43 38 39 36 35 33 33 29 29 25 27 28 32 31 31 33 33 35 38 40 40 39 38 39
42 42 41 40 34 37 37 31 28 33 28 32 32 36 41 42 37 39 39 41 42 42 43 47 44 45 44 36 38 38 37 34 31 32 30 30 31 32 32 32 32 31 32 33 34 33 34 34 37
42 44 49 44 39 37 33 31 34 35 32 36 37 39 44 47 38 40 44 46 45 42 43 47 45 42 39 37 36 37 38 38 35 36 38 30 31 32 37 36 32 32 31 31 33 31 32 30 29
44 45 48 47 43 38 35 37 39 39 37 42 41 42 42 43 44 44 44 46 45 47 42 45 49 48 45 40 37 34 35 37 42 43 43 37 31 30 33 36 34 35 33 31 29 30 32 32 35
50 47 47 51 48 40 40 45 44 48 49 45 48 44 47 46 48 45 45 49 46 47 45 45 48 52 54 48 43 40 37 35 38 38 36 38 36 36 32 38 37 38 35 32 32 29 28 34 35
47 42 41 45 48 48 44 44 52 55 55 54 54 46 47 51 51 44 43 53 51 49 44 43 52 56 52 53 52 50 41 38 38 39 37 35 36 40 37 38 38 39 38 35 36 32 30 35 37
48 44 45 43 43 46 46 47 48 55 57 57 60 50 49 56 49 44 49 55 49 42 48 47 45 51 58 55 54 52 50 49 47 46 42 38 35 38 39 39 40 41 38 38 37 36 37 35 36
53 54 53 50 46 48 47 48 51 54 63 56 54 53 55 51 48 43 54 56 53 48 44 46 47 39 39 51 58 55 54 53 51 49 49 42 39 40 39 40 40 44 40 40 41 41 38 34 39
58 55 55 53 52 53 54 50 55 59 59 53 56 57 57 53 59 63 52 56 60 54 47 44 49 48 49 45 48 55 54 55 55 55 50 44 44 44 41 39 41 38 36 38 42 38 34 32 37
61 60 61 61 58 55 54 55 57 59 63 56 55 58 65 62 63 50 50 66 63 62 59 52 50 50 52 51 46 51 55 55 56 54 51 48 44 42 42 42 31 30 32 32 36 33 35 32 36
62 60 62 66 63 59 55 57 57 67 62 62 63 61 63 67 68 63 67 68 67 65 64 58 55 56 54 56 53 49 47 54 56 54 49 49 37 33 38 34 32 36 40 40 32 37 37 39 35
60 59 60 59 60 57 54 54 57 60 62 66 64 64 61 69 72 73 76 73 71 67 66 66 62 62 59 60 61 58 54 50 53 53 45 41 40 42 43 40 34 46 47 47 42 46 49 42 41
62 62 62 59 55 55 54 57 61 61 63 67 67 65 67 71 78 75 72 70 72 72 71 71 71 68 67 66 65 64 65 61 52 52 54 52 50 49 46 45 43 42 52 46 55 51 46 40 44
62 59 59 60 59 60 60 60 64 68 70 73 68 66 70 70 71 70 70 72 74 76 80 76 71 71 71 73 73 71 74 75 67 60 55 56 55 49 44 50 41 41 39 43 50 51 51 49 47
66 62 62 61 60 60 61 63 67 68 68 69 66 65 70 77 79 82 80 80 79 80 83 83 83 83 83 81 81 81 81 83 83 77 69 61 54 49 47 41 47 45 45 47 50 54 54 42 51
64 62 63 63 66 64 70 72 73 74 77 81 84 84 85 87 92 89 83 85 88 89 90 92 89 87 86 86 89 91 92 93 94 93 84 70 67 61 59 49 66 51 55 56 50 47 56 52 60
66 67 70 74 74 72 78 78 79 81 83 86 90 92 92 93 91 93 94 95 95 95 96 98 98 97 100 101 100 102 101 102 102 100 97 87 75 69 70 64 57 49 50 48 51 62 52 55 57
74 76 81 81 83 82 85 83 83 84 87 90 92 93 95 96 97 99 100 102 103 102 102 104 108 110 112 113 114 117 116 108 106 102 99 97 88 76 72 73 64 62 56 63 55 58 53 50 48
82 83 84 85 87 86 86 89 87 89 92 92 95 99 101 103 106 107 107 110 112 113 115 117 118 120 120 123 124 109 103 102 97 93 95 96 95 84 78 79 74 79 63 66 55 48 58 47 59
86 89 88 89 90 91 93 90 91 95 96 99 101 104 105 106 107 110 112 115 117 119 121 122 123 118 112 105 100 94 90 87 89 86 87 94 96 94 84 79 84 83 82 76 68 45 60 55 64
93 95 96 97 98 98 100 103 95 100 101 105 108 111 111 111 114 113 117 117 116 111 108 104 99 97 95 86 82 79 79 83 83 82 80 88 96 97 91 85 87 87 87 84 72 66 59 51 59
101 103 104 105 105 104 104 108 101 108 112 114 114 114 114 114 112 104 103 103 100 98 96 93 89 86 83 79 75 70 69 71 73 76 76 83 91 96 97 95 90 90 88 89 83 84 71 67 54
105 107 109 109 111 111 112 115 110 111 111 114 116 113 110 108 102 100 99 98 96 91 88 84 77 75 72 67 64 59 59 61 66 68 72 76 85 92 95 97 93 91 92 94 93 97 89 86 75
111 113 114 117 116 115 113 114 113 115 113 113 108 103 99 99 98 95 93 88 84 77 69 66 65 64 60 56 50 47 47 50 57 61 65 69 78 85 89 93 95 94 93 95 97 99 98 95 90
116 116 116 119 118 116 109 111 115 115 109 103 100 97 95 93 87 85 80 73 69 65 61 58 56 52 49 45 43 43 39 41 45 50 52 59 67 77 81 86 92 96 95 98 97 96 97 99 96
122 119 117 120 122 116 109 108 107 102 100 97 92 88 83 78 75 69 64 62 58 54 51 49 49 47 40 37 37 37 33 32 37 43 43 48 56 67 75 77 84 93 96 99 100 99 100 103 102
122 118 120 119 117 111 104 99 101 98 92 86 81 75 70 66 60 58 56 53 49 44 41 41 41 32 29 30 31 32 30 28 31 35 39 41 46 55 66 71 76 85 94 100 100 101 102 105 106
119 119 120 116 106 105 104 89 92 88 80 73 69 67 58 53 52 52 51 47 42 39 36 34 26 25 23 23 23 25 24 23 25 28 31 35 40 46 54 64 70 76 85 92 94 97 100 105 108